<?xml version="1.0" encoding="UTF-8" standalone="no" ?>
<gpx xmlns="http://www.topografix.com/GPX/1/1" xmlns:xsi="http://www.w3.org/2001/XMLSchema-instance" xsi:schemaLocation="http://www.topografix.com/GPX/1/1 http://www.topografix.com/GPX/1/1/gpx.xsd" version="1.1" creator="VisuGPX - https://www.visugpx.com">
  <metadata>
    <name>Crêtes de Catinat</name>
    <desc><![CDATA[Une belle boucle avec pratiquement pas de portage.]]></desc>
  </metadata>
  <trk>
    <name><![CDATA[110811-Cretes-de-Catinat-Guillestrois-5]]></name>
    <trkseg>
      <trkpt lat="44.69967" lon="6.62405">
        <ele>1128.751953</ele>
        <time>2011-08-11T10:17:35Z</time>
      </trkpt>
      <trkpt lat="44.69997" lon="6.62403">
        <ele>1130.600708</ele>
        <time>2011-08-11T10:19:03Z</time>
      </trkpt>
      <trkpt lat="44.69997" lon="6.62405">
        <ele>1131.038818</ele>
        <time>2011-08-11T10:19:05Z</time>
      </trkpt>
      <trkpt lat="44.70008" lon="6.62415">
        <ele>1135.112061</ele>
        <time>2011-08-11T10:19:51Z</time>
      </trkpt>
      <trkpt lat="44.7002" lon="6.62398">
        <ele>1133.292114</ele>
        <time>2011-08-11T10:19:59Z</time>
      </trkpt>
      <trkpt lat="44.7003" lon="6.62385">
        <ele>1132.435059</ele>
        <time>2011-08-11T10:20:05Z</time>
      </trkpt>
      <trkpt lat="44.7004" lon="6.62367">
        <ele>1130.64856</ele>
        <time>2011-08-11T10:20:11Z</time>
      </trkpt>
      <trkpt lat="44.70053" lon="6.62352">
        <ele>1131.630615</ele>
        <time>2011-08-11T10:20:19Z</time>
      </trkpt>
      <trkpt lat="44.7007" lon="6.62342">
        <ele>1136.301758</ele>
        <time>2011-08-11T10:20:27Z</time>
      </trkpt>
      <trkpt lat="44.7008" lon="6.62328">
        <ele>1137.157715</ele>
        <time>2011-08-11T10:20:34Z</time>
      </trkpt>
      <trkpt lat="44.70092" lon="6.62312">
        <ele>1137.626099</ele>
        <time>2011-08-11T10:20:42Z</time>
      </trkpt>
      <trkpt lat="44.70105" lon="6.62303">
        <ele>1140.856445</ele>
        <time>2011-08-11T10:20:50Z</time>
      </trkpt>
      <trkpt lat="44.70117" lon="6.62292">
        <ele>1141.593506</ele>
        <time>2011-08-11T10:20:58Z</time>
      </trkpt>
      <trkpt lat="44.70128" lon="6.62275">
        <ele>1140.545044</ele>
        <time>2011-08-11T10:21:06Z</time>
      </trkpt>
      <trkpt lat="44.7014" lon="6.62258">
        <ele>1138.680298</ele>
        <time>2011-08-11T10:21:17Z</time>
      </trkpt>
      <trkpt lat="44.7014" lon="6.62285">
        <ele>1145.663086</ele>
        <time>2011-08-11T10:21:35Z</time>
      </trkpt>
      <trkpt lat="44.70135" lon="6.62303">
        <ele>1149.173706</ele>
        <time>2011-08-11T10:21:43Z</time>
      </trkpt>
      <trkpt lat="44.7013" lon="6.62323">
        <ele>1152.949707</ele>
        <time>2011-08-11T10:21:53Z</time>
      </trkpt>
      <trkpt lat="44.70125" lon="6.62342">
        <ele>1156.359497</ele>
        <time>2011-08-11T10:22:03Z</time>
      </trkpt>
      <trkpt lat="44.70115" lon="6.62358">
        <ele>1157.869507</ele>
        <time>2011-08-11T10:22:14Z</time>
      </trkpt>
      <trkpt lat="44.70105" lon="6.62375">
        <ele>1159.265625</ele>
        <time>2011-08-11T10:22:24Z</time>
      </trkpt>
      <trkpt lat="44.70095" lon="6.62392">
        <ele>1159.018066</ele>
        <time>2011-08-11T10:22:34Z</time>
      </trkpt>
      <trkpt lat="44.70088" lon="6.62412">
        <ele>1160.255737</ele>
        <time>2011-08-11T10:22:44Z</time>
      </trkpt>
      <trkpt lat="44.70102" lon="6.62403">
        <ele>1163.59375</ele>
        <time>2011-08-11T10:22:56Z</time>
      </trkpt>
      <trkpt lat="44.70113" lon="6.62393">
        <ele>1165.261719</ele>
        <time>2011-08-11T10:23:05Z</time>
      </trkpt>
      <trkpt lat="44.70128" lon="6.62383">
        <ele>1167.842041</ele>
        <time>2011-08-11T10:23:15Z</time>
      </trkpt>
      <trkpt lat="44.70143" lon="6.62373">
        <ele>1170.109863</ele>
        <time>2011-08-11T10:23:25Z</time>
      </trkpt>
      <trkpt lat="44.70155" lon="6.62358">
        <ele>1168.595337</ele>
        <time>2011-08-11T10:23:35Z</time>
      </trkpt>
      <trkpt lat="44.70155" lon="6.62378">
        <ele>1174.010376</ele>
        <time>2011-08-11T10:23:55Z</time>
      </trkpt>
      <trkpt lat="44.70147" lon="6.62393">
        <ele>1175.107544</ele>
        <time>2011-08-11T10:24:04Z</time>
      </trkpt>
      <trkpt lat="44.70137" lon="6.62412">
        <ele>1176.011719</ele>
        <time>2011-08-11T10:24:14Z</time>
      </trkpt>
      <trkpt lat="44.70135" lon="6.62432">
        <ele>1179.504272</ele>
        <time>2011-08-11T10:24:24Z</time>
      </trkpt>
      <trkpt lat="44.70142" lon="6.62452">
        <ele>1185.807373</ele>
        <time>2011-08-11T10:24:34Z</time>
      </trkpt>
      <trkpt lat="44.70143" lon="6.62473">
        <ele>1191.023926</ele>
        <time>2011-08-11T10:24:42Z</time>
      </trkpt>
      <trkpt lat="44.70132" lon="6.62485">
        <ele>1190.359131</ele>
        <time>2011-08-11T10:24:51Z</time>
      </trkpt>
      <trkpt lat="44.70115" lon="6.62498">
        <ele>1189.143799</ele>
        <time>2011-08-11T10:25:03Z</time>
      </trkpt>
      <trkpt lat="44.70103" lon="6.62513">
        <ele>1190.93457</ele>
        <time>2011-08-11T10:25:13Z</time>
      </trkpt>
      <trkpt lat="44.7009" lon="6.62522">
        <ele>1190.419678</ele>
        <time>2011-08-11T10:25:21Z</time>
      </trkpt>
      <trkpt lat="44.7008" lon="6.62537">
        <ele>1192.40686</ele>
        <time>2011-08-11T10:25:29Z</time>
      </trkpt>
      <trkpt lat="44.70093" lon="6.6254">
        <ele>1197.297974</ele>
        <time>2011-08-11T10:25:42Z</time>
      </trkpt>
      <trkpt lat="44.70107" lon="6.62533">
        <ele>1198.046143</ele>
        <time>2011-08-11T10:25:52Z</time>
      </trkpt>
      <trkpt lat="44.70122" lon="6.62527">
        <ele>1199.311768</ele>
        <time>2011-08-11T10:26:04Z</time>
      </trkpt>
      <trkpt lat="44.70142" lon="6.62518">
        <ele>1201.677856</ele>
        <time>2011-08-11T10:26:16Z</time>
      </trkpt>
      <trkpt lat="44.70157" lon="6.62512">
        <ele>1204.328735</ele>
        <time>2011-08-11T10:26:24Z</time>
      </trkpt>
      <trkpt lat="44.7017" lon="6.62503">
        <ele>1206.113159</ele>
        <time>2011-08-11T10:26:32Z</time>
      </trkpt>
      <trkpt lat="44.70182" lon="6.6249">
        <ele>1206.241333</ele>
        <time>2011-08-11T10:26:43Z</time>
      </trkpt>
      <trkpt lat="44.70195" lon="6.6248">
        <ele>1207.853149</ele>
        <time>2011-08-11T10:26:53Z</time>
      </trkpt>
      <trkpt lat="44.70207" lon="6.62468">
        <ele>1208.453125</ele>
        <time>2011-08-11T10:27:01Z</time>
      </trkpt>
      <trkpt lat="44.7022" lon="6.62465">
        <ele>1211.805054</ele>
        <time>2011-08-11T10:27:11Z</time>
      </trkpt>
      <trkpt lat="44.70233" lon="6.62457">
        <ele>1213.719971</ele>
        <time>2011-08-11T10:27:21Z</time>
      </trkpt>
      <trkpt lat="44.70247" lon="6.62445">
        <ele>1214.682617</ele>
        <time>2011-08-11T10:27:31Z</time>
      </trkpt>
      <trkpt lat="44.70267" lon="6.62427">
        <ele>1216.702148</ele>
        <time>2011-08-11T10:27:49Z</time>
      </trkpt>
      <trkpt lat="44.7028" lon="6.62417">
        <ele>1218.466919</ele>
        <time>2011-08-11T10:28:08Z</time>
      </trkpt>
      <trkpt lat="44.70298" lon="6.62407">
        <ele>1221.032104</ele>
        <time>2011-08-11T10:28:26Z</time>
      </trkpt>
      <trkpt lat="44.70313" lon="6.62398">
        <ele>1222.768921</ele>
        <time>2011-08-11T10:28:36Z</time>
      </trkpt>
      <trkpt lat="44.70342" lon="6.62383">
        <ele>1226.781372</ele>
        <time>2011-08-11T10:28:56Z</time>
      </trkpt>
      <trkpt lat="44.70367" lon="6.62377">
        <ele>1232.368042</ele>
        <time>2011-08-11T10:29:15Z</time>
      </trkpt>
      <trkpt lat="44.70378" lon="6.62365">
        <ele>1233.700317</ele>
        <time>2011-08-11T10:29:25Z</time>
      </trkpt>
      <trkpt lat="44.70388" lon="6.62352">
        <ele>1233.799194</ele>
        <time>2011-08-11T10:29:35Z</time>
      </trkpt>
      <trkpt lat="44.70402" lon="6.62342">
        <ele>1235.647217</ele>
        <time>2011-08-11T10:29:45Z</time>
      </trkpt>
      <trkpt lat="44.70415" lon="6.62333">
        <ele>1237.641357</ele>
        <time>2011-08-11T10:29:55Z</time>
      </trkpt>
      <trkpt lat="44.70428" lon="6.6233">
        <ele>1241.681152</ele>
        <time>2011-08-11T10:30:07Z</time>
      </trkpt>
      <trkpt lat="44.70442" lon="6.62315">
        <ele>1242.130615</ele>
        <time>2011-08-11T10:30:18Z</time>
      </trkpt>
      <trkpt lat="44.70452" lon="6.62302">
        <ele>1241.636597</ele>
        <time>2011-08-11T10:30:28Z</time>
      </trkpt>
      <trkpt lat="44.70445" lon="6.62327">
        <ele>1246.895264</ele>
        <time>2011-08-11T10:30:46Z</time>
      </trkpt>
      <trkpt lat="44.70437" lon="6.62343">
        <ele>1249.037964</ele>
        <time>2011-08-11T10:30:56Z</time>
      </trkpt>
      <trkpt lat="44.70422" lon="6.6236">
        <ele>1248.67688</ele>
        <time>2011-08-11T10:31:14Z</time>
      </trkpt>
      <trkpt lat="44.70435" lon="6.62367">
        <ele>1256.133911</ele>
        <time>2011-08-11T10:33:08Z</time>
      </trkpt>
      <trkpt lat="44.70445" lon="6.62352">
        <ele>1255.023682</ele>
        <time>2011-08-11T10:33:18Z</time>
      </trkpt>
      <trkpt lat="44.70457" lon="6.62337">
        <ele>1254.347778</ele>
        <time>2011-08-11T10:33:31Z</time>
      </trkpt>
      <trkpt lat="44.7047" lon="6.62328">
        <ele>1256.316528</ele>
        <time>2011-08-11T10:33:41Z</time>
      </trkpt>
      <trkpt lat="44.70483" lon="6.62322">
        <ele>1258.648438</ele>
        <time>2011-08-11T10:33:51Z</time>
      </trkpt>
      <trkpt lat="44.70498" lon="6.62315">
        <ele>1261.534058</ele>
        <time>2011-08-11T10:34:01Z</time>
      </trkpt>
      <trkpt lat="44.70512" lon="6.62307">
        <ele>1263.278687</ele>
        <time>2011-08-11T10:34:11Z</time>
      </trkpt>
      <trkpt lat="44.70525" lon="6.62297">
        <ele>1264.333008</ele>
        <time>2011-08-11T10:34:22Z</time>
      </trkpt>
      <trkpt lat="44.7054" lon="6.62287">
        <ele>1265.80603</ele>
        <time>2011-08-11T10:34:34Z</time>
      </trkpt>
      <trkpt lat="44.70553" lon="6.62275">
        <ele>1266.413696</ele>
        <time>2011-08-11T10:34:46Z</time>
      </trkpt>
      <trkpt lat="44.70567" lon="6.62268">
        <ele>1268.631958</ele>
        <time>2011-08-11T10:34:56Z</time>
      </trkpt>
      <trkpt lat="44.70582" lon="6.62262">
        <ele>1271.286255</ele>
        <time>2011-08-11T10:35:06Z</time>
      </trkpt>
      <trkpt lat="44.70595" lon="6.62253">
        <ele>1272.86438</ele>
        <time>2011-08-11T10:35:17Z</time>
      </trkpt>
      <trkpt lat="44.7061" lon="6.6225">
        <ele>1277.136597</ele>
        <time>2011-08-11T10:35:27Z</time>
      </trkpt>
      <trkpt lat="44.70625" lon="6.62242">
        <ele>1280.245117</ele>
        <time>2011-08-11T10:35:37Z</time>
      </trkpt>
      <trkpt lat="44.70638" lon="6.62232">
        <ele>1282.346924</ele>
        <time>2011-08-11T10:35:47Z</time>
      </trkpt>
      <trkpt lat="44.70653" lon="6.62223">
        <ele>1285.800415</ele>
        <time>2011-08-11T10:35:57Z</time>
      </trkpt>
      <trkpt lat="44.70665" lon="6.6221">
        <ele>1287.110352</ele>
        <time>2011-08-11T10:36:07Z</time>
      </trkpt>
      <trkpt lat="44.70672" lon="6.62193">
        <ele>1285.598877</ele>
        <time>2011-08-11T10:36:16Z</time>
      </trkpt>
      <trkpt lat="44.7068" lon="6.6217">
        <ele>1282.897339</ele>
        <time>2011-08-11T10:36:28Z</time>
      </trkpt>
      <trkpt lat="44.70692" lon="6.62182">
        <ele>1289.794434</ele>
        <time>2011-08-11T10:36:46Z</time>
      </trkpt>
      <trkpt lat="44.70707" lon="6.62187">
        <ele>1294.736816</ele>
        <time>2011-08-11T10:37:03Z</time>
      </trkpt>
      <trkpt lat="44.7072" lon="6.62177">
        <ele>1295.221558</ele>
        <time>2011-08-11T10:37:15Z</time>
      </trkpt>
      <trkpt lat="44.70732" lon="6.62167">
        <ele>1294.915771</ele>
        <time>2011-08-11T10:37:25Z</time>
      </trkpt>
      <trkpt lat="44.70745" lon="6.62158">
        <ele>1295.275757</ele>
        <time>2011-08-11T10:37:35Z</time>
      </trkpt>
      <trkpt lat="44.70777" lon="6.62137">
        <ele>1297.27832</ele>
        <time>2011-08-11T10:37:55Z</time>
      </trkpt>
      <trkpt lat="44.70787" lon="6.6212">
        <ele>1295.463379</ele>
        <time>2011-08-11T10:38:03Z</time>
      </trkpt>
      <trkpt lat="44.70795" lon="6.62105">
        <ele>1293.547852</ele>
        <time>2011-08-11T10:38:12Z</time>
      </trkpt>
      <trkpt lat="44.70808" lon="6.62095">
        <ele>1294.260864</ele>
        <time>2011-08-11T10:38:22Z</time>
      </trkpt>
      <trkpt lat="44.70823" lon="6.62088">
        <ele>1296.154907</ele>
        <time>2011-08-11T10:38:32Z</time>
      </trkpt>
      <trkpt lat="44.70838" lon="6.62085">
        <ele>1299.161011</ele>
        <time>2011-08-11T10:38:42Z</time>
      </trkpt>
      <trkpt lat="44.70853" lon="6.62088">
        <ele>1304.415405</ele>
        <time>2011-08-11T10:38:52Z</time>
      </trkpt>
      <trkpt lat="44.70868" lon="6.62087">
        <ele>1308.054321</ele>
        <time>2011-08-11T10:39:05Z</time>
      </trkpt>
      <trkpt lat="44.70883" lon="6.62083">
        <ele>1311.310547</ele>
        <time>2011-08-11T10:39:15Z</time>
      </trkpt>
      <trkpt lat="44.70897" lon="6.62075">
        <ele>1312.692383</ele>
        <time>2011-08-11T10:39:27Z</time>
      </trkpt>
      <trkpt lat="44.7091" lon="6.62068">
        <ele>1314.782227</ele>
        <time>2011-08-11T10:39:39Z</time>
      </trkpt>
      <trkpt lat="44.70922" lon="6.62055">
        <ele>1314.334839</ele>
        <time>2011-08-11T10:39:49Z</time>
      </trkpt>
      <trkpt lat="44.70933" lon="6.62042">
        <ele>1314.421997</ele>
        <time>2011-08-11T10:39:59Z</time>
      </trkpt>
      <trkpt lat="44.70942" lon="6.62023">
        <ele>1312.304565</ele>
        <time>2011-08-11T10:40:12Z</time>
      </trkpt>
      <trkpt lat="44.70953" lon="6.62008">
        <ele>1313.281616</ele>
        <time>2011-08-11T10:40:22Z</time>
      </trkpt>
      <trkpt lat="44.70967" lon="6.61995">
        <ele>1315.84668</ele>
        <time>2011-08-11T10:40:32Z</time>
      </trkpt>
      <trkpt lat="44.70982" lon="6.61983">
        <ele>1314.880737</ele>
        <time>2011-08-11T10:40:40Z</time>
      </trkpt>
      <trkpt lat="44.70993" lon="6.61973">
        <ele>1313.52356</ele>
        <time>2011-08-11T10:40:46Z</time>
      </trkpt>
      <trkpt lat="44.7101" lon="6.61968">
        <ele>1315.414917</ele>
        <time>2011-08-11T10:40:52Z</time>
      </trkpt>
      <trkpt lat="44.7103" lon="6.61972">
        <ele>1318.664429</ele>
        <time>2011-08-11T10:40:58Z</time>
      </trkpt>
      <trkpt lat="44.71043" lon="6.61977">
        <ele>1321.073364</ele>
        <time>2011-08-11T10:41:02Z</time>
      </trkpt>
      <trkpt lat="44.71058" lon="6.61985">
        <ele>1324.386719</ele>
        <time>2011-08-11T10:41:07Z</time>
      </trkpt>
      <trkpt lat="44.7107" lon="6.61975">
        <ele>1324.375244</ele>
        <time>2011-08-11T10:41:11Z</time>
      </trkpt>
      <trkpt lat="44.71082" lon="6.61948">
        <ele>1320.68811</ele>
        <time>2011-08-11T10:41:15Z</time>
      </trkpt>
      <trkpt lat="44.71087" lon="6.6192">
        <ele>1319.10437</ele>
        <time>2011-08-11T10:41:19Z</time>
      </trkpt>
      <trkpt lat="44.71088" lon="6.61895">
        <ele>1317.591431</ele>
        <time>2011-08-11T10:41:23Z</time>
      </trkpt>
      <trkpt lat="44.71092" lon="6.61873">
        <ele>1315.830933</ele>
        <time>2011-08-11T10:41:27Z</time>
      </trkpt>
      <trkpt lat="44.71102" lon="6.61857">
        <ele>1315.041504</ele>
        <time>2011-08-11T10:41:31Z</time>
      </trkpt>
      <trkpt lat="44.7112" lon="6.6185">
        <ele>1316.950562</ele>
        <time>2011-08-11T10:41:35Z</time>
      </trkpt>
      <trkpt lat="44.71137" lon="6.61848">
        <ele>1318.337646</ele>
        <time>2011-08-11T10:41:39Z</time>
      </trkpt>
      <trkpt lat="44.71152" lon="6.61853">
        <ele>1321.06543</ele>
        <time>2011-08-11T10:41:43Z</time>
      </trkpt>
      <trkpt lat="44.71168" lon="6.61855">
        <ele>1325.015747</ele>
        <time>2011-08-11T10:41:49Z</time>
      </trkpt>
      <trkpt lat="44.71182" lon="6.61835">
        <ele>1324.476685</ele>
        <time>2011-08-11T10:41:55Z</time>
      </trkpt>
      <trkpt lat="44.71185" lon="6.61812">
        <ele>1321.902954</ele>
        <time>2011-08-11T10:42:01Z</time>
      </trkpt>
      <trkpt lat="44.71193" lon="6.61795">
        <ele>1322.442139</ele>
        <time>2011-08-11T10:42:07Z</time>
      </trkpt>
      <trkpt lat="44.71207" lon="6.6178">
        <ele>1324.651855</ele>
        <time>2011-08-11T10:42:13Z</time>
      </trkpt>
      <trkpt lat="44.71228" lon="6.61755">
        <ele>1327.05603</ele>
        <time>2011-08-11T10:42:23Z</time>
      </trkpt>
      <trkpt lat="44.71253" lon="6.61727">
        <ele>1329.897949</ele>
        <time>2011-08-11T10:42:33Z</time>
      </trkpt>
      <trkpt lat="44.71293" lon="6.6168">
        <ele>1333.285767</ele>
        <time>2011-08-11T10:42:54Z</time>
      </trkpt>
      <trkpt lat="44.71307" lon="6.6167">
        <ele>1334.063843</ele>
        <time>2011-08-11T10:42:58Z</time>
      </trkpt>
      <trkpt lat="44.71322" lon="6.61657">
        <ele>1334.217407</ele>
        <time>2011-08-11T10:43:02Z</time>
      </trkpt>
      <trkpt lat="44.71338" lon="6.61642">
        <ele>1333.692749</ele>
        <time>2011-08-11T10:43:06Z</time>
      </trkpt>
      <trkpt lat="44.71357" lon="6.61635">
        <ele>1333.579346</ele>
        <time>2011-08-11T10:43:10Z</time>
      </trkpt>
      <trkpt lat="44.71372" lon="6.61635">
        <ele>1334.378784</ele>
        <time>2011-08-11T10:43:14Z</time>
      </trkpt>
      <trkpt lat="44.71392" lon="6.61633">
        <ele>1335.262451</ele>
        <time>2011-08-11T10:43:20Z</time>
      </trkpt>
      <trkpt lat="44.71418" lon="6.61628">
        <ele>1336.862671</ele>
        <time>2011-08-11T10:43:30Z</time>
      </trkpt>
      <trkpt lat="44.71437" lon="6.61627">
        <ele>1338.640869</ele>
        <time>2011-08-11T10:43:38Z</time>
      </trkpt>
      <trkpt lat="44.71478" lon="6.61622">
        <ele>1345.762451</ele>
        <time>2011-08-11T10:43:56Z</time>
      </trkpt>
      <trkpt lat="44.71492" lon="6.61618">
        <ele>1348.263184</ele>
        <time>2011-08-11T10:44:02Z</time>
      </trkpt>
      <trkpt lat="44.71505" lon="6.61612">
        <ele>1350.143066</ele>
        <time>2011-08-11T10:44:11Z</time>
      </trkpt>
      <trkpt lat="44.71518" lon="6.61605">
        <ele>1351.881592</ele>
        <time>2011-08-11T10:44:19Z</time>
      </trkpt>
      <trkpt lat="44.71537" lon="6.616">
        <ele>1353.546753</ele>
        <time>2011-08-11T10:44:29Z</time>
      </trkpt>
      <trkpt lat="44.71548" lon="6.6159">
        <ele>1354.040771</ele>
        <time>2011-08-11T10:44:37Z</time>
      </trkpt>
      <trkpt lat="44.7156" lon="6.61577">
        <ele>1355.168945</ele>
        <time>2011-08-11T10:44:45Z</time>
      </trkpt>
      <trkpt lat="44.71567" lon="6.61558">
        <ele>1355.958008</ele>
        <time>2011-08-11T10:44:53Z</time>
      </trkpt>
      <trkpt lat="44.71567" lon="6.61537">
        <ele>1355.388062</ele>
        <time>2011-08-11T10:45:03Z</time>
      </trkpt>
      <trkpt lat="44.7157" lon="6.61517">
        <ele>1354.46582</ele>
        <time>2011-08-11T10:45:15Z</time>
      </trkpt>
      <trkpt lat="44.71577" lon="6.61497">
        <ele>1354.349731</ele>
        <time>2011-08-11T10:45:23Z</time>
      </trkpt>
      <trkpt lat="44.7159" lon="6.61482">
        <ele>1356.195923</ele>
        <time>2011-08-11T10:45:31Z</time>
      </trkpt>
      <trkpt lat="44.71603" lon="6.61465">
        <ele>1356.569702</ele>
        <time>2011-08-11T10:45:39Z</time>
      </trkpt>
      <trkpt lat="44.71615" lon="6.61452">
        <ele>1356.569092</ele>
        <time>2011-08-11T10:45:48Z</time>
      </trkpt>
      <trkpt lat="44.7163" lon="6.61448">
        <ele>1358.477295</ele>
        <time>2011-08-11T10:45:56Z</time>
      </trkpt>
      <trkpt lat="44.71645" lon="6.6145">
        <ele>1360.906128</ele>
        <time>2011-08-11T10:47:34Z</time>
      </trkpt>
      <trkpt lat="44.71662" lon="6.6144">
        <ele>1361.607178</ele>
        <time>2011-08-11T10:47:40Z</time>
      </trkpt>
      <trkpt lat="44.71677" lon="6.61423">
        <ele>1361.270142</ele>
        <time>2011-08-11T10:47:44Z</time>
      </trkpt>
      <trkpt lat="44.71693" lon="6.61403">
        <ele>1360.195679</ele>
        <time>2011-08-11T10:47:48Z</time>
      </trkpt>
      <trkpt lat="44.71728" lon="6.61363">
        <ele>1360.182983</ele>
        <time>2011-08-11T10:47:58Z</time>
      </trkpt>
      <trkpt lat="44.71738" lon="6.61345">
        <ele>1359.619751</ele>
        <time>2011-08-11T10:48:02Z</time>
      </trkpt>
      <trkpt lat="44.71762" lon="6.61307">
        <ele>1359.106445</ele>
        <time>2011-08-11T10:48:10Z</time>
      </trkpt>
      <trkpt lat="44.71792" lon="6.6126">
        <ele>1360.496826</ele>
        <time>2011-08-11T10:48:18Z</time>
      </trkpt>
      <trkpt lat="44.71807" lon="6.61235">
        <ele>1361.559937</ele>
        <time>2011-08-11T10:48:22Z</time>
      </trkpt>
      <trkpt lat="44.71813" lon="6.6121">
        <ele>1361.657471</ele>
        <time>2011-08-11T10:48:26Z</time>
      </trkpt>
      <trkpt lat="44.71828" lon="6.61153">
        <ele>1363.58313</ele>
        <time>2011-08-11T10:48:36Z</time>
      </trkpt>
      <trkpt lat="44.71835" lon="6.61125">
        <ele>1364.18689</ele>
        <time>2011-08-11T10:48:44Z</time>
      </trkpt>
      <trkpt lat="44.7184" lon="6.61105">
        <ele>1365.146484</ele>
        <time>2011-08-11T10:48:51Z</time>
      </trkpt>
      <trkpt lat="44.71847" lon="6.61088">
        <ele>1367.221069</ele>
        <time>2011-08-11T10:48:57Z</time>
      </trkpt>
      <trkpt lat="44.71852" lon="6.61068">
        <ele>1368.081787</ele>
        <time>2011-08-11T10:49:05Z</time>
      </trkpt>
      <trkpt lat="44.71855" lon="6.61045">
        <ele>1368.110229</ele>
        <time>2011-08-11T10:49:15Z</time>
      </trkpt>
      <trkpt lat="44.71858" lon="6.61022">
        <ele>1368.413574</ele>
        <time>2011-08-11T10:49:25Z</time>
      </trkpt>
      <trkpt lat="44.71863" lon="6.61002">
        <ele>1369.310303</ele>
        <time>2011-08-11T10:49:35Z</time>
      </trkpt>
      <trkpt lat="44.71868" lon="6.6098">
        <ele>1370.062134</ele>
        <time>2011-08-11T10:49:45Z</time>
      </trkpt>
      <trkpt lat="44.71873" lon="6.60962">
        <ele>1370.503662</ele>
        <time>2011-08-11T10:49:55Z</time>
      </trkpt>
      <trkpt lat="44.71883" lon="6.60948">
        <ele>1373.066895</ele>
        <time>2011-08-11T10:50:03Z</time>
      </trkpt>
      <trkpt lat="44.71898" lon="6.60942">
        <ele>1377.821899</ele>
        <time>2011-08-11T10:50:13Z</time>
      </trkpt>
      <trkpt lat="44.71913" lon="6.60932">
        <ele>1381.588379</ele>
        <time>2011-08-11T10:50:23Z</time>
      </trkpt>
      <trkpt lat="44.71925" lon="6.60922">
        <ele>1383.582886</ele>
        <time>2011-08-11T10:50:31Z</time>
      </trkpt>
      <trkpt lat="44.71937" lon="6.60908">
        <ele>1385.012573</ele>
        <time>2011-08-11T10:50:42Z</time>
      </trkpt>
      <trkpt lat="44.71948" lon="6.60897">
        <ele>1386.873047</ele>
        <time>2011-08-11T10:50:50Z</time>
      </trkpt>
      <trkpt lat="44.71958" lon="6.60882">
        <ele>1387.582153</ele>
        <time>2011-08-11T10:51:00Z</time>
      </trkpt>
      <trkpt lat="44.71972" lon="6.60863">
        <ele>1386.970215</ele>
        <time>2011-08-11T10:51:12Z</time>
      </trkpt>
      <trkpt lat="44.71982" lon="6.60848">
        <ele>1385.17749</ele>
        <time>2011-08-11T10:51:22Z</time>
      </trkpt>
      <trkpt lat="44.71993" lon="6.60838">
        <ele>1385.05127</ele>
        <time>2011-08-11T10:51:30Z</time>
      </trkpt>
      <trkpt lat="44.72008" lon="6.60835">
        <ele>1387.16748</ele>
        <time>2011-08-11T10:51:40Z</time>
      </trkpt>
      <trkpt lat="44.72023" lon="6.60833">
        <ele>1388.173828</ele>
        <time>2011-08-11T10:51:48Z</time>
      </trkpt>
      <trkpt lat="44.7204" lon="6.60827">
        <ele>1387.837036</ele>
        <time>2011-08-11T10:51:59Z</time>
      </trkpt>
      <trkpt lat="44.72053" lon="6.6083">
        <ele>1390.046143</ele>
        <time>2011-08-11T10:52:07Z</time>
      </trkpt>
      <trkpt lat="44.72075" lon="6.60838">
        <ele>1393.203369</ele>
        <time>2011-08-11T10:52:19Z</time>
      </trkpt>
      <trkpt lat="44.72088" lon="6.60847">
        <ele>1395.926392</ele>
        <time>2011-08-11T10:52:27Z</time>
      </trkpt>
      <trkpt lat="44.72105" lon="6.60847">
        <ele>1396.0177</ele>
        <time>2011-08-11T10:52:35Z</time>
      </trkpt>
      <trkpt lat="44.7212" lon="6.60848">
        <ele>1396.352661</ele>
        <time>2011-08-11T10:52:43Z</time>
      </trkpt>
      <trkpt lat="44.72135" lon="6.6085">
        <ele>1396.682129</ele>
        <time>2011-08-11T10:52:51Z</time>
      </trkpt>
      <trkpt lat="44.72122" lon="6.60857">
        <ele>1398.50769</ele>
        <time>2011-08-11T10:53:15Z</time>
      </trkpt>
      <trkpt lat="44.7209" lon="6.60878">
        <ele>1404.625366</ele>
        <time>2011-08-11T10:53:34Z</time>
      </trkpt>
      <trkpt lat="44.72075" lon="6.60885">
        <ele>1406.03894</ele>
        <time>2011-08-11T10:53:42Z</time>
      </trkpt>
      <trkpt lat="44.72057" lon="6.60895">
        <ele>1407.118774</ele>
        <time>2011-08-11T10:53:52Z</time>
      </trkpt>
      <trkpt lat="44.72033" lon="6.60903">
        <ele>1406.438477</ele>
        <time>2011-08-11T10:54:04Z</time>
      </trkpt>
      <trkpt lat="44.7202" lon="6.60918">
        <ele>1406.791138</ele>
        <time>2011-08-11T10:54:12Z</time>
      </trkpt>
      <trkpt lat="44.72013" lon="6.60942">
        <ele>1408.792236</ele>
        <time>2011-08-11T10:54:20Z</time>
      </trkpt>
      <trkpt lat="44.72005" lon="6.60958">
        <ele>1409.411743</ele>
        <time>2011-08-11T10:54:28Z</time>
      </trkpt>
      <trkpt lat="44.71995" lon="6.60972">
        <ele>1409.185181</ele>
        <time>2011-08-11T10:54:38Z</time>
      </trkpt>
      <trkpt lat="44.71995" lon="6.60993">
        <ele>1411.467651</ele>
        <time>2011-08-11T10:54:48Z</time>
      </trkpt>
      <trkpt lat="44.71998" lon="6.61017">
        <ele>1414.187012</ele>
        <time>2011-08-11T10:55:01Z</time>
      </trkpt>
      <trkpt lat="44.71997" lon="6.61037">
        <ele>1415.641479</ele>
        <time>2011-08-11T10:55:11Z</time>
      </trkpt>
      <trkpt lat="44.71988" lon="6.61053">
        <ele>1415.503784</ele>
        <time>2011-08-11T10:55:21Z</time>
      </trkpt>
      <trkpt lat="44.71978" lon="6.61067">
        <ele>1414.691772</ele>
        <time>2011-08-11T10:55:31Z</time>
      </trkpt>
      <trkpt lat="44.71975" lon="6.61087">
        <ele>1415.784058</ele>
        <time>2011-08-11T10:55:41Z</time>
      </trkpt>
      <trkpt lat="44.71983" lon="6.61102">
        <ele>1418.702637</ele>
        <time>2011-08-11T10:55:49Z</time>
      </trkpt>
      <trkpt lat="44.71993" lon="6.6112">
        <ele>1422.233887</ele>
        <time>2011-08-11T10:56:02Z</time>
      </trkpt>
      <trkpt lat="44.72007" lon="6.61133">
        <ele>1425.586792</ele>
        <time>2011-08-11T10:56:12Z</time>
      </trkpt>
      <trkpt lat="44.72018" lon="6.61143">
        <ele>1428.712036</ele>
        <time>2011-08-11T10:56:20Z</time>
      </trkpt>
      <trkpt lat="44.72025" lon="6.61162">
        <ele>1432.355347</ele>
        <time>2011-08-11T10:56:28Z</time>
      </trkpt>
      <trkpt lat="44.72018" lon="6.61182">
        <ele>1434.167358</ele>
        <time>2011-08-11T10:56:36Z</time>
      </trkpt>
      <trkpt lat="44.72005" lon="6.61192">
        <ele>1433.371094</ele>
        <time>2011-08-11T10:56:44Z</time>
      </trkpt>
      <trkpt lat="44.71992" lon="6.61203">
        <ele>1433.261841</ele>
        <time>2011-08-11T10:56:54Z</time>
      </trkpt>
      <trkpt lat="44.71977" lon="6.61215">
        <ele>1431.721313</ele>
        <time>2011-08-11T10:57:05Z</time>
      </trkpt>
      <trkpt lat="44.71965" lon="6.6123">
        <ele>1430.860474</ele>
        <time>2011-08-11T10:57:15Z</time>
      </trkpt>
      <trkpt lat="44.71962" lon="6.6125">
        <ele>1432.672119</ele>
        <time>2011-08-11T10:57:23Z</time>
      </trkpt>
      <trkpt lat="44.71962" lon="6.61277">
        <ele>1435.623535</ele>
        <time>2011-08-11T10:57:31Z</time>
      </trkpt>
      <trkpt lat="44.71957" lon="6.613">
        <ele>1436.512573</ele>
        <time>2011-08-11T10:57:37Z</time>
      </trkpt>
      <trkpt lat="44.71952" lon="6.61318">
        <ele>1436.808594</ele>
        <time>2011-08-11T10:57:41Z</time>
      </trkpt>
      <trkpt lat="44.71945" lon="6.61338">
        <ele>1436.689697</ele>
        <time>2011-08-11T10:57:47Z</time>
      </trkpt>
      <trkpt lat="44.71958" lon="6.61342">
        <ele>1440.878296</ele>
        <time>2011-08-11T10:57:58Z</time>
      </trkpt>
      <trkpt lat="44.71965" lon="6.6132">
        <ele>1441.243164</ele>
        <time>2011-08-11T10:58:08Z</time>
      </trkpt>
      <trkpt lat="44.71973" lon="6.61303">
        <ele>1442.30249</ele>
        <time>2011-08-11T10:58:18Z</time>
      </trkpt>
      <trkpt lat="44.71982" lon="6.61287">
        <ele>1443.218872</ele>
        <time>2011-08-11T10:58:28Z</time>
      </trkpt>
      <trkpt lat="44.7199" lon="6.61272">
        <ele>1444.053711</ele>
        <time>2011-08-11T10:58:36Z</time>
      </trkpt>
      <trkpt lat="44.72002" lon="6.61262">
        <ele>1445.290039</ele>
        <time>2011-08-11T10:58:44Z</time>
      </trkpt>
      <trkpt lat="44.72017" lon="6.61257">
        <ele>1447.636963</ele>
        <time>2011-08-11T10:58:52Z</time>
      </trkpt>
      <trkpt lat="44.72037" lon="6.61253">
        <ele>1450.507202</ele>
        <time>2011-08-11T10:59:05Z</time>
      </trkpt>
      <trkpt lat="44.72052" lon="6.61252">
        <ele>1452.047729</ele>
        <time>2011-08-11T10:59:15Z</time>
      </trkpt>
      <trkpt lat="44.72067" lon="6.61255">
        <ele>1454.508423</ele>
        <time>2011-08-11T10:59:25Z</time>
      </trkpt>
      <trkpt lat="44.72082" lon="6.61257">
        <ele>1456.643066</ele>
        <time>2011-08-11T10:59:35Z</time>
      </trkpt>
      <trkpt lat="44.72105" lon="6.61262">
        <ele>1460.286987</ele>
        <time>2011-08-11T10:59:47Z</time>
      </trkpt>
      <trkpt lat="44.7212" lon="6.6127">
        <ele>1463.378174</ele>
        <time>2011-08-11T10:59:57Z</time>
      </trkpt>
      <trkpt lat="44.72145" lon="6.61285">
        <ele>1468.447388</ele>
        <time>2011-08-11T11:00:15Z</time>
      </trkpt>
      <trkpt lat="44.72162" lon="6.61288">
        <ele>1470.882813</ele>
        <time>2011-08-11T11:00:26Z</time>
      </trkpt>
      <trkpt lat="44.72175" lon="6.61278">
        <ele>1470.191528</ele>
        <time>2011-08-11T11:00:36Z</time>
      </trkpt>
      <trkpt lat="44.7219" lon="6.61278">
        <ele>1471.033447</ele>
        <time>2011-08-11T11:00:48Z</time>
      </trkpt>
      <trkpt lat="44.72205" lon="6.61278">
        <ele>1471.863403</ele>
        <time>2011-08-11T11:00:56Z</time>
      </trkpt>
      <trkpt lat="44.72222" lon="6.61277">
        <ele>1472.639038</ele>
        <time>2011-08-11T11:01:06Z</time>
      </trkpt>
      <trkpt lat="44.72235" lon="6.6127">
        <ele>1472.428345</ele>
        <time>2011-08-11T11:01:17Z</time>
      </trkpt>
      <trkpt lat="44.72228" lon="6.6129">
        <ele>1475.796265</ele>
        <time>2011-08-11T11:01:35Z</time>
      </trkpt>
      <trkpt lat="44.72213" lon="6.61293">
        <ele>1475.237549</ele>
        <time>2011-08-11T11:01:47Z</time>
      </trkpt>
      <trkpt lat="44.722" lon="6.61302">
        <ele>1475.985352</ele>
        <time>2011-08-11T11:01:59Z</time>
      </trkpt>
      <trkpt lat="44.72187" lon="6.61313">
        <ele>1477.285278</ele>
        <time>2011-08-11T11:02:10Z</time>
      </trkpt>
      <trkpt lat="44.72175" lon="6.61327">
        <ele>1478.893188</ele>
        <time>2011-08-11T11:02:20Z</time>
      </trkpt>
      <trkpt lat="44.72158" lon="6.61342">
        <ele>1479.167969</ele>
        <time>2011-08-11T11:02:38Z</time>
      </trkpt>
      <trkpt lat="44.72155" lon="6.61362">
        <ele>1481.093384</ele>
        <time>2011-08-11T11:04:06Z</time>
      </trkpt>
      <trkpt lat="44.7215" lon="6.61382">
        <ele>1482.841187</ele>
        <time>2011-08-11T11:04:15Z</time>
      </trkpt>
      <trkpt lat="44.72145" lon="6.61403">
        <ele>1483.740234</ele>
        <time>2011-08-11T11:04:25Z</time>
      </trkpt>
      <trkpt lat="44.72137" lon="6.61422">
        <ele>1482.727783</ele>
        <time>2011-08-11T11:04:35Z</time>
      </trkpt>
      <trkpt lat="44.72148" lon="6.61433">
        <ele>1484.909058</ele>
        <time>2011-08-11T11:04:47Z</time>
      </trkpt>
      <trkpt lat="44.72163" lon="6.61435">
        <ele>1487.575195</ele>
        <time>2011-08-11T11:04:59Z</time>
      </trkpt>
      <trkpt lat="44.72175" lon="6.61425">
        <ele>1489.071899</ele>
        <time>2011-08-11T11:05:09Z</time>
      </trkpt>
      <trkpt lat="44.72178" lon="6.61403">
        <ele>1488.433838</ele>
        <time>2011-08-11T11:05:21Z</time>
      </trkpt>
      <trkpt lat="44.72185" lon="6.61387">
        <ele>1487.706787</ele>
        <time>2011-08-11T11:05:34Z</time>
      </trkpt>
      <trkpt lat="44.72197" lon="6.61372">
        <ele>1486.989258</ele>
        <time>2011-08-11T11:05:46Z</time>
      </trkpt>
      <trkpt lat="44.7221" lon="6.61378">
        <ele>1489.408447</ele>
        <time>2011-08-11T11:05:58Z</time>
      </trkpt>
      <trkpt lat="44.72223" lon="6.61392">
        <ele>1493.534424</ele>
        <time>2011-08-11T11:06:10Z</time>
      </trkpt>
      <trkpt lat="44.72247" lon="6.61418">
        <ele>1501.125488</ele>
        <time>2011-08-11T11:06:29Z</time>
      </trkpt>
      <trkpt lat="44.72255" lon="6.61433">
        <ele>1504.811279</ele>
        <time>2011-08-11T11:06:37Z</time>
      </trkpt>
      <trkpt lat="44.72257" lon="6.61453">
        <ele>1507.937012</ele>
        <time>2011-08-11T11:06:47Z</time>
      </trkpt>
      <trkpt lat="44.72255" lon="6.61473">
        <ele>1509.873779</ele>
        <time>2011-08-11T11:06:57Z</time>
      </trkpt>
      <trkpt lat="44.72252" lon="6.61493">
        <ele>1510.859375</ele>
        <time>2011-08-11T11:07:05Z</time>
      </trkpt>
      <trkpt lat="44.72268" lon="6.61492">
        <ele>1514.833496</ele>
        <time>2011-08-11T11:07:23Z</time>
      </trkpt>
      <trkpt lat="44.7228" lon="6.61477">
        <ele>1516.21936</ele>
        <time>2011-08-11T11:07:34Z</time>
      </trkpt>
      <trkpt lat="44.7229" lon="6.61462">
        <ele>1516.839478</ele>
        <time>2011-08-11T11:07:46Z</time>
      </trkpt>
      <trkpt lat="44.723" lon="6.61448">
        <ele>1516.998535</ele>
        <time>2011-08-11T11:07:56Z</time>
      </trkpt>
      <trkpt lat="44.72307" lon="6.61465">
        <ele>1520.749512</ele>
        <time>2011-08-11T11:08:08Z</time>
      </trkpt>
      <trkpt lat="44.72305" lon="6.61487">
        <ele>1522.794312</ele>
        <time>2011-08-11T11:08:19Z</time>
      </trkpt>
      <trkpt lat="44.72307" lon="6.6151">
        <ele>1525.512573</ele>
        <time>2011-08-11T11:08:29Z</time>
      </trkpt>
      <trkpt lat="44.7231" lon="6.61552">
        <ele>1531.387207</ele>
        <time>2011-08-11T11:08:47Z</time>
      </trkpt>
      <trkpt lat="44.72305" lon="6.6157">
        <ele>1533.196777</ele>
        <time>2011-08-11T11:08:55Z</time>
      </trkpt>
      <trkpt lat="44.72295" lon="6.61583">
        <ele>1533.310425</ele>
        <time>2011-08-11T11:09:04Z</time>
      </trkpt>
      <trkpt lat="44.72283" lon="6.61595">
        <ele>1532.602051</ele>
        <time>2011-08-11T11:09:12Z</time>
      </trkpt>
      <trkpt lat="44.72273" lon="6.6161">
        <ele>1534.136475</ele>
        <time>2011-08-11T11:09:22Z</time>
      </trkpt>
      <trkpt lat="44.72288" lon="6.61605">
        <ele>1536.328369</ele>
        <time>2011-08-11T11:09:34Z</time>
      </trkpt>
      <trkpt lat="44.72303" lon="6.61595">
        <ele>1536.702271</ele>
        <time>2011-08-11T11:09:44Z</time>
      </trkpt>
      <trkpt lat="44.72318" lon="6.61588">
        <ele>1538.470337</ele>
        <time>2011-08-11T11:09:55Z</time>
      </trkpt>
      <trkpt lat="44.72333" lon="6.61587">
        <ele>1541.054199</ele>
        <time>2011-08-11T11:10:07Z</time>
      </trkpt>
      <trkpt lat="44.72353" lon="6.61585">
        <ele>1543.049316</ele>
        <time>2011-08-11T11:10:19Z</time>
      </trkpt>
      <trkpt lat="44.72387" lon="6.61583">
        <ele>1545.654175</ele>
        <time>2011-08-11T11:10:39Z</time>
      </trkpt>
      <trkpt lat="44.724" lon="6.6158">
        <ele>1545.327271</ele>
        <time>2011-08-11T11:10:48Z</time>
      </trkpt>
      <trkpt lat="44.72413" lon="6.61573">
        <ele>1544.522583</ele>
        <time>2011-08-11T11:10:58Z</time>
      </trkpt>
      <trkpt lat="44.72427" lon="6.61568">
        <ele>1543.956787</ele>
        <time>2011-08-11T11:11:06Z</time>
      </trkpt>
      <trkpt lat="44.7244" lon="6.6158">
        <ele>1544.697998</ele>
        <time>2011-08-11T11:11:16Z</time>
      </trkpt>
      <trkpt lat="44.7243" lon="6.61593">
        <ele>1547.32959</ele>
        <time>2011-08-11T11:11:26Z</time>
      </trkpt>
      <trkpt lat="44.72417" lon="6.61605">
        <ele>1549.255249</ele>
        <time>2011-08-11T11:11:39Z</time>
      </trkpt>
      <trkpt lat="44.72405" lon="6.61623">
        <ele>1553.131836</ele>
        <time>2011-08-11T11:11:49Z</time>
      </trkpt>
      <trkpt lat="44.72393" lon="6.61633">
        <ele>1555.092529</ele>
        <time>2011-08-11T11:11:57Z</time>
      </trkpt>
      <trkpt lat="44.7238" lon="6.61643">
        <ele>1556.930908</ele>
        <time>2011-08-11T11:12:09Z</time>
      </trkpt>
      <trkpt lat="44.72363" lon="6.61653">
        <ele>1557.818604</ele>
        <time>2011-08-11T11:12:19Z</time>
      </trkpt>
      <trkpt lat="44.72345" lon="6.61663">
        <ele>1558.75647</ele>
        <time>2011-08-11T11:12:32Z</time>
      </trkpt>
      <trkpt lat="44.72332" lon="6.61673">
        <ele>1560.31897</ele>
        <time>2011-08-11T11:12:42Z</time>
      </trkpt>
      <trkpt lat="44.72318" lon="6.61682">
        <ele>1560.811523</ele>
        <time>2011-08-11T11:12:48Z</time>
      </trkpt>
      <trkpt lat="44.72305" lon="6.61695">
        <ele>1563.126587</ele>
        <time>2011-08-11T11:12:59Z</time>
      </trkpt>
      <trkpt lat="44.72292" lon="6.61705">
        <ele>1564.914795</ele>
        <time>2011-08-11T11:13:09Z</time>
      </trkpt>
      <trkpt lat="44.7228" lon="6.61715">
        <ele>1567.211426</ele>
        <time>2011-08-11T11:13:19Z</time>
      </trkpt>
      <trkpt lat="44.72268" lon="6.61727">
        <ele>1569.785522</ele>
        <time>2011-08-11T11:13:29Z</time>
      </trkpt>
      <trkpt lat="44.72253" lon="6.61737">
        <ele>1571.649902</ele>
        <time>2011-08-11T11:13:42Z</time>
      </trkpt>
      <trkpt lat="44.72233" lon="6.61738">
        <ele>1571.366821</ele>
        <time>2011-08-11T11:14:00Z</time>
      </trkpt>
      <trkpt lat="44.7222" lon="6.61747">
        <ele>1573.572754</ele>
        <time>2011-08-11T11:14:18Z</time>
      </trkpt>
      <trkpt lat="44.72233" lon="6.61755">
        <ele>1576.100098</ele>
        <time>2011-08-11T11:15:21Z</time>
      </trkpt>
      <trkpt lat="44.7225" lon="6.61762">
        <ele>1578.476318</ele>
        <time>2011-08-11T11:15:39Z</time>
      </trkpt>
      <trkpt lat="44.72265" lon="6.61765">
        <ele>1579.923218</ele>
        <time>2011-08-11T11:15:51Z</time>
      </trkpt>
      <trkpt lat="44.7228" lon="6.61768">
        <ele>1581.323608</ele>
        <time>2011-08-11T11:16:01Z</time>
      </trkpt>
      <trkpt lat="44.72293" lon="6.61763">
        <ele>1580.971069</ele>
        <time>2011-08-11T11:16:12Z</time>
      </trkpt>
      <trkpt lat="44.7231" lon="6.61758">
        <ele>1581.039917</ele>
        <time>2011-08-11T11:16:24Z</time>
      </trkpt>
      <trkpt lat="44.72327" lon="6.61753">
        <ele>1581.036133</ele>
        <time>2011-08-11T11:16:34Z</time>
      </trkpt>
      <trkpt lat="44.7234" lon="6.61748">
        <ele>1580.932373</ele>
        <time>2011-08-11T11:16:47Z</time>
      </trkpt>
      <trkpt lat="44.72355" lon="6.61748">
        <ele>1582.410156</ele>
        <time>2011-08-11T11:16:57Z</time>
      </trkpt>
      <trkpt lat="44.72372" lon="6.61747">
        <ele>1583.557251</ele>
        <time>2011-08-11T11:17:09Z</time>
      </trkpt>
      <trkpt lat="44.72388" lon="6.61747">
        <ele>1584.953125</ele>
        <time>2011-08-11T11:17:21Z</time>
      </trkpt>
      <trkpt lat="44.72402" lon="6.61752">
        <ele>1587.550293</ele>
        <time>2011-08-11T11:17:34Z</time>
      </trkpt>
      <trkpt lat="44.72412" lon="6.61767">
        <ele>1593.097778</ele>
        <time>2011-08-11T11:17:46Z</time>
      </trkpt>
      <trkpt lat="44.72422" lon="6.6178">
        <ele>1598.13916</ele>
        <time>2011-08-11T11:17:54Z</time>
      </trkpt>
      <trkpt lat="44.72437" lon="6.61787">
        <ele>1600.903076</ele>
        <time>2011-08-11T11:18:06Z</time>
      </trkpt>
      <trkpt lat="44.72445" lon="6.61802">
        <ele>1606.023804</ele>
        <time>2011-08-11T11:18:16Z</time>
      </trkpt>
      <trkpt lat="44.72432" lon="6.61808">
        <ele>1607.361084</ele>
        <time>2011-08-11T11:18:29Z</time>
      </trkpt>
      <trkpt lat="44.72417" lon="6.61818">
        <ele>1609.312622</ele>
        <time>2011-08-11T11:18:41Z</time>
      </trkpt>
      <trkpt lat="44.72407" lon="6.61832">
        <ele>1611.931274</ele>
        <time>2011-08-11T11:18:53Z</time>
      </trkpt>
      <trkpt lat="44.72392" lon="6.61843">
        <ele>1613.330078</ele>
        <time>2011-08-11T11:19:05Z</time>
      </trkpt>
      <trkpt lat="44.7238" lon="6.61855">
        <ele>1615.042114</ele>
        <time>2011-08-11T11:19:16Z</time>
      </trkpt>
      <trkpt lat="44.72368" lon="6.61867">
        <ele>1616.710083</ele>
        <time>2011-08-11T11:19:28Z</time>
      </trkpt>
      <trkpt lat="44.72355" lon="6.61873">
        <ele>1616.928833</ele>
        <time>2011-08-11T11:19:38Z</time>
      </trkpt>
      <trkpt lat="44.72342" lon="6.61882">
        <ele>1617.518433</ele>
        <time>2011-08-11T11:19:50Z</time>
      </trkpt>
      <trkpt lat="44.72328" lon="6.61892">
        <ele>1618.456665</ele>
        <time>2011-08-11T11:20:03Z</time>
      </trkpt>
      <trkpt lat="44.72317" lon="6.61903">
        <ele>1619.944092</ele>
        <time>2011-08-11T11:20:15Z</time>
      </trkpt>
      <trkpt lat="44.72303" lon="6.61917">
        <ele>1621.613892</ele>
        <time>2011-08-11T11:20:33Z</time>
      </trkpt>
      <trkpt lat="44.72288" lon="6.61923">
        <ele>1621.430664</ele>
        <time>2011-08-11T11:20:45Z</time>
      </trkpt>
      <trkpt lat="44.72275" lon="6.61932">
        <ele>1622.113281</ele>
        <time>2011-08-11T11:20:55Z</time>
      </trkpt>
      <trkpt lat="44.72263" lon="6.61943">
        <ele>1624.402466</ele>
        <time>2011-08-11T11:21:08Z</time>
      </trkpt>
      <trkpt lat="44.72248" lon="6.61953">
        <ele>1626.077637</ele>
        <time>2011-08-11T11:21:20Z</time>
      </trkpt>
      <trkpt lat="44.72235" lon="6.61965">
        <ele>1628.460449</ele>
        <time>2011-08-11T11:21:32Z</time>
      </trkpt>
      <trkpt lat="44.72252" lon="6.61977">
        <ele>1633.755981</ele>
        <time>2011-08-11T11:21:50Z</time>
      </trkpt>
      <trkpt lat="44.72267" lon="6.61982">
        <ele>1636.515381</ele>
        <time>2011-08-11T11:22:07Z</time>
      </trkpt>
      <trkpt lat="44.7228" lon="6.61985">
        <ele>1638.656128</ele>
        <time>2011-08-11T11:22:19Z</time>
      </trkpt>
      <trkpt lat="44.72293" lon="6.6199">
        <ele>1641.702515</ele>
        <time>2011-08-11T11:22:31Z</time>
      </trkpt>
      <trkpt lat="44.72307" lon="6.61993">
        <ele>1644.050293</ele>
        <time>2011-08-11T11:22:41Z</time>
      </trkpt>
      <trkpt lat="44.72322" lon="6.61993">
        <ele>1645.388916</ele>
        <time>2011-08-11T11:22:51Z</time>
      </trkpt>
      <trkpt lat="44.72338" lon="6.6199">
        <ele>1646.190186</ele>
        <time>2011-08-11T11:23:04Z</time>
      </trkpt>
      <trkpt lat="44.72352" lon="6.61987">
        <ele>1646.743408</ele>
        <time>2011-08-11T11:23:14Z</time>
      </trkpt>
      <trkpt lat="44.72367" lon="6.61978">
        <ele>1646.16333</ele>
        <time>2011-08-11T11:23:27Z</time>
      </trkpt>
      <trkpt lat="44.7238" lon="6.61975">
        <ele>1646.834839</ele>
        <time>2011-08-11T11:23:37Z</time>
      </trkpt>
      <trkpt lat="44.72393" lon="6.61972">
        <ele>1647.552368</ele>
        <time>2011-08-11T11:23:49Z</time>
      </trkpt>
      <trkpt lat="44.72408" lon="6.61967">
        <ele>1648.103149</ele>
        <time>2011-08-11T11:23:59Z</time>
      </trkpt>
      <trkpt lat="44.72403" lon="6.6199">
        <ele>1653.513062</ele>
        <time>2011-08-11T11:24:16Z</time>
      </trkpt>
      <trkpt lat="44.7239" lon="6.61998">
        <ele>1654.404297</ele>
        <time>2011-08-11T11:24:28Z</time>
      </trkpt>
      <trkpt lat="44.7238" lon="6.62012">
        <ele>1657.142822</ele>
        <time>2011-08-11T11:24:40Z</time>
      </trkpt>
      <trkpt lat="44.72368" lon="6.62025">
        <ele>1659.816772</ele>
        <time>2011-08-11T11:24:50Z</time>
      </trkpt>
      <trkpt lat="44.72357" lon="6.62037">
        <ele>1662.25</ele>
        <time>2011-08-11T11:25:00Z</time>
      </trkpt>
      <trkpt lat="44.72372" lon="6.62043">
        <ele>1665.401733</ele>
        <time>2011-08-11T11:25:17Z</time>
      </trkpt>
      <trkpt lat="44.72385" lon="6.62038">
        <ele>1665.168701</ele>
        <time>2011-08-11T11:25:29Z</time>
      </trkpt>
      <trkpt lat="44.724" lon="6.62038">
        <ele>1666.544922</ele>
        <time>2011-08-11T11:25:41Z</time>
      </trkpt>
      <trkpt lat="44.72413" lon="6.62027">
        <ele>1664.702026</ele>
        <time>2011-08-11T11:25:53Z</time>
      </trkpt>
      <trkpt lat="44.72427" lon="6.62017">
        <ele>1663.610962</ele>
        <time>2011-08-11T11:26:06Z</time>
      </trkpt>
      <trkpt lat="44.72428" lon="6.62037">
        <ele>1669.171509</ele>
        <time>2011-08-11T11:26:24Z</time>
      </trkpt>
      <trkpt lat="44.72413" lon="6.62048">
        <ele>1670.786255</ele>
        <time>2011-08-11T11:26:36Z</time>
      </trkpt>
      <trkpt lat="44.72398" lon="6.62065">
        <ele>1674.574463</ele>
        <time>2011-08-11T11:26:53Z</time>
      </trkpt>
      <trkpt lat="44.72387" lon="6.62075">
        <ele>1676.446167</ele>
        <time>2011-08-11T11:27:05Z</time>
      </trkpt>
      <trkpt lat="44.72367" lon="6.62092">
        <ele>1679.112671</ele>
        <time>2011-08-11T11:27:23Z</time>
      </trkpt>
      <trkpt lat="44.72355" lon="6.62102">
        <ele>1681.171265</ele>
        <time>2011-08-11T11:27:33Z</time>
      </trkpt>
      <trkpt lat="44.72343" lon="6.62113">
        <ele>1683.69165</ele>
        <time>2011-08-11T11:27:45Z</time>
      </trkpt>
      <trkpt lat="44.72328" lon="6.62128">
        <ele>1686.652344</ele>
        <time>2011-08-11T11:28:02Z</time>
      </trkpt>
      <trkpt lat="44.72313" lon="6.62137">
        <ele>1688.04541</ele>
        <time>2011-08-11T11:28:14Z</time>
      </trkpt>
      <trkpt lat="44.723" lon="6.62143">
        <ele>1689.833862</ele>
        <time>2011-08-11T11:28:26Z</time>
      </trkpt>
      <trkpt lat="44.72287" lon="6.62148">
        <ele>1691.19873</ele>
        <time>2011-08-11T11:28:37Z</time>
      </trkpt>
      <trkpt lat="44.72275" lon="6.6216">
        <ele>1693.863403</ele>
        <time>2011-08-11T11:28:49Z</time>
      </trkpt>
      <trkpt lat="44.72265" lon="6.62173">
        <ele>1696.270508</ele>
        <time>2011-08-11T11:28:59Z</time>
      </trkpt>
      <trkpt lat="44.72253" lon="6.62183">
        <ele>1697.91687</ele>
        <time>2011-08-11T11:29:09Z</time>
      </trkpt>
      <trkpt lat="44.72232" lon="6.62202">
        <ele>1700.932861</ele>
        <time>2011-08-11T11:29:28Z</time>
      </trkpt>
      <trkpt lat="44.72218" lon="6.62213">
        <ele>1702.56189</ele>
        <time>2011-08-11T11:29:40Z</time>
      </trkpt>
      <trkpt lat="44.72207" lon="6.62228">
        <ele>1704.624512</ele>
        <time>2011-08-11T11:29:52Z</time>
      </trkpt>
      <trkpt lat="44.7219" lon="6.62243">
        <ele>1706.24585</ele>
        <time>2011-08-11T11:30:09Z</time>
      </trkpt>
      <trkpt lat="44.7217" lon="6.62262">
        <ele>1707.793457</ele>
        <time>2011-08-11T11:30:27Z</time>
      </trkpt>
      <trkpt lat="44.72158" lon="6.62272">
        <ele>1708.525146</ele>
        <time>2011-08-11T11:30:38Z</time>
      </trkpt>
      <trkpt lat="44.72143" lon="6.62273">
        <ele>1707.111694</ele>
        <time>2011-08-11T11:33:39Z</time>
      </trkpt>
      <trkpt lat="44.72132" lon="6.62287">
        <ele>1708.829468</ele>
        <time>2011-08-11T11:33:51Z</time>
      </trkpt>
      <trkpt lat="44.7213" lon="6.62312">
        <ele>1714.414063</ele>
        <time>2011-08-11T11:34:03Z</time>
      </trkpt>
      <trkpt lat="44.72117" lon="6.6232">
        <ele>1713.52832</ele>
        <time>2011-08-11T11:34:13Z</time>
      </trkpt>
      <trkpt lat="44.72102" lon="6.62328">
        <ele>1712.0625</ele>
        <time>2011-08-11T11:34:23Z</time>
      </trkpt>
      <trkpt lat="44.72092" lon="6.62342">
        <ele>1712.897461</ele>
        <time>2011-08-11T11:34:33Z</time>
      </trkpt>
      <trkpt lat="44.72083" lon="6.62367">
        <ele>1716.883667</ele>
        <time>2011-08-11T11:34:45Z</time>
      </trkpt>
      <trkpt lat="44.72077" lon="6.62383">
        <ele>1718.32251</ele>
        <time>2011-08-11T11:34:56Z</time>
      </trkpt>
      <trkpt lat="44.72068" lon="6.62402">
        <ele>1719.226807</ele>
        <time>2011-08-11T11:35:08Z</time>
      </trkpt>
      <trkpt lat="44.72063" lon="6.6242">
        <ele>1721.852905</ele>
        <time>2011-08-11T11:35:18Z</time>
      </trkpt>
      <trkpt lat="44.72057" lon="6.6244">
        <ele>1724.036255</ele>
        <time>2011-08-11T11:35:30Z</time>
      </trkpt>
      <trkpt lat="44.72052" lon="6.6247">
        <ele>1728.503784</ele>
        <time>2011-08-11T11:35:48Z</time>
      </trkpt>
      <trkpt lat="44.72052" lon="6.62492">
        <ele>1732.197754</ele>
        <time>2011-08-11T11:35:59Z</time>
      </trkpt>
      <trkpt lat="44.72048" lon="6.62513">
        <ele>1734.453857</ele>
        <time>2011-08-11T11:36:09Z</time>
      </trkpt>
      <trkpt lat="44.72058" lon="6.625">
        <ele>1736.505615</ele>
        <time>2011-08-11T11:36:29Z</time>
      </trkpt>
      <trkpt lat="44.72063" lon="6.6248">
        <ele>1735.533936</ele>
        <time>2011-08-11T11:36:37Z</time>
      </trkpt>
      <trkpt lat="44.72072" lon="6.6246">
        <ele>1736.230469</ele>
        <time>2011-08-11T11:36:45Z</time>
      </trkpt>
      <trkpt lat="44.72082" lon="6.62445">
        <ele>1736.783691</ele>
        <time>2011-08-11T11:36:54Z</time>
      </trkpt>
      <trkpt lat="44.7209" lon="6.62428">
        <ele>1735.919312</ele>
        <time>2011-08-11T11:37:02Z</time>
      </trkpt>
      <trkpt lat="44.72097" lon="6.62412">
        <ele>1734.147827</ele>
        <time>2011-08-11T11:37:10Z</time>
      </trkpt>
      <trkpt lat="44.7211" lon="6.624">
        <ele>1736.456177</ele>
        <time>2011-08-11T11:37:20Z</time>
      </trkpt>
      <trkpt lat="44.72123" lon="6.62392">
        <ele>1738.834351</ele>
        <time>2011-08-11T11:37:32Z</time>
      </trkpt>
      <trkpt lat="44.72137" lon="6.62387">
        <ele>1740.715332</ele>
        <time>2011-08-11T11:37:42Z</time>
      </trkpt>
      <trkpt lat="44.72152" lon="6.62383">
        <ele>1743.453491</ele>
        <time>2011-08-11T11:37:52Z</time>
      </trkpt>
      <trkpt lat="44.72167" lon="6.6238">
        <ele>1746.0979</ele>
        <time>2011-08-11T11:38:03Z</time>
      </trkpt>
      <trkpt lat="44.72187" lon="6.62378">
        <ele>1748.560669</ele>
        <time>2011-08-11T11:38:15Z</time>
      </trkpt>
      <trkpt lat="44.72217" lon="6.62375">
        <ele>1751.285156</ele>
        <time>2011-08-11T11:38:33Z</time>
      </trkpt>
      <trkpt lat="44.72232" lon="6.62375">
        <ele>1752.514038</ele>
        <time>2011-08-11T11:38:41Z</time>
      </trkpt>
      <trkpt lat="44.72247" lon="6.62377">
        <ele>1754.383423</ele>
        <time>2011-08-11T11:38:49Z</time>
      </trkpt>
      <trkpt lat="44.7226" lon="6.6238">
        <ele>1756.756592</ele>
        <time>2011-08-11T11:38:57Z</time>
      </trkpt>
      <trkpt lat="44.72293" lon="6.62388">
        <ele>1758.776733</ele>
        <time>2011-08-11T11:39:16Z</time>
      </trkpt>
      <trkpt lat="44.7231" lon="6.62392">
        <ele>1759.572632</ele>
        <time>2011-08-11T11:39:24Z</time>
      </trkpt>
      <trkpt lat="44.72352" lon="6.62403">
        <ele>1763.55249</ele>
        <time>2011-08-11T11:39:44Z</time>
      </trkpt>
      <trkpt lat="44.72368" lon="6.62408">
        <ele>1765.901978</ele>
        <time>2011-08-11T11:39:55Z</time>
      </trkpt>
      <trkpt lat="44.72385" lon="6.6241">
        <ele>1766.658447</ele>
        <time>2011-08-11T11:40:05Z</time>
      </trkpt>
      <trkpt lat="44.72402" lon="6.62408">
        <ele>1767.326416</ele>
        <time>2011-08-11T11:40:15Z</time>
      </trkpt>
      <trkpt lat="44.7242" lon="6.62407">
        <ele>1770.115112</ele>
        <time>2011-08-11T11:40:27Z</time>
      </trkpt>
      <trkpt lat="44.72433" lon="6.62402">
        <ele>1771.027222</ele>
        <time>2011-08-11T11:40:37Z</time>
      </trkpt>
      <trkpt lat="44.72447" lon="6.62395">
        <ele>1771.735962</ele>
        <time>2011-08-11T11:40:49Z</time>
      </trkpt>
      <trkpt lat="44.72468" lon="6.62383">
        <ele>1773.486206</ele>
        <time>2011-08-11T11:41:07Z</time>
      </trkpt>
      <trkpt lat="44.72482" lon="6.62373">
        <ele>1774.47583</ele>
        <time>2011-08-11T11:41:19Z</time>
      </trkpt>
      <trkpt lat="44.72498" lon="6.62367">
        <ele>1774.727295</ele>
        <time>2011-08-11T11:41:36Z</time>
      </trkpt>
      <trkpt lat="44.72513" lon="6.62367">
        <ele>1775.487549</ele>
        <time>2011-08-11T11:41:46Z</time>
      </trkpt>
      <trkpt lat="44.7253" lon="6.62378">
        <ele>1778.751831</ele>
        <time>2011-08-11T11:42:03Z</time>
      </trkpt>
      <trkpt lat="44.72543" lon="6.62385">
        <ele>1780.005615</ele>
        <time>2011-08-11T11:42:15Z</time>
      </trkpt>
      <trkpt lat="44.72558" lon="6.6239">
        <ele>1780.912842</ele>
        <time>2011-08-11T11:42:27Z</time>
      </trkpt>
      <trkpt lat="44.72553" lon="6.62408">
        <ele>1784.895508</ele>
        <time>2011-08-11T11:42:44Z</time>
      </trkpt>
      <trkpt lat="44.72538" lon="6.62408">
        <ele>1784.941284</ele>
        <time>2011-08-11T11:42:54Z</time>
      </trkpt>
      <trkpt lat="44.72512" lon="6.62412">
        <ele>1785.030029</ele>
        <time>2011-08-11T11:43:12Z</time>
      </trkpt>
      <trkpt lat="44.72497" lon="6.62423">
        <ele>1787.064209</ele>
        <time>2011-08-11T11:43:24Z</time>
      </trkpt>
      <trkpt lat="44.72478" lon="6.62437">
        <ele>1789.22168</ele>
        <time>2011-08-11T11:43:41Z</time>
      </trkpt>
      <trkpt lat="44.72458" lon="6.62453">
        <ele>1792.049438</ele>
        <time>2011-08-11T11:43:59Z</time>
      </trkpt>
      <trkpt lat="44.72445" lon="6.6246">
        <ele>1793.432251</ele>
        <time>2011-08-11T11:44:09Z</time>
      </trkpt>
      <trkpt lat="44.72432" lon="6.62468">
        <ele>1795.88562</ele>
        <time>2011-08-11T11:44:19Z</time>
      </trkpt>
      <trkpt lat="44.72415" lon="6.6248">
        <ele>1799.97644</ele>
        <time>2011-08-11T11:44:31Z</time>
      </trkpt>
      <trkpt lat="44.72398" lon="6.62492">
        <ele>1803.581177</ele>
        <time>2011-08-11T11:44:43Z</time>
      </trkpt>
      <trkpt lat="44.72382" lon="6.62502">
        <ele>1805.033081</ele>
        <time>2011-08-11T11:44:56Z</time>
      </trkpt>
      <trkpt lat="44.72365" lon="6.62503">
        <ele>1804.336304</ele>
        <time>2011-08-11T11:45:08Z</time>
      </trkpt>
      <trkpt lat="44.7235" lon="6.62502">
        <ele>1802.981689</ele>
        <time>2011-08-11T11:45:20Z</time>
      </trkpt>
      <trkpt lat="44.7233" lon="6.62508">
        <ele>1803.501099</ele>
        <time>2011-08-11T11:45:38Z</time>
      </trkpt>
      <trkpt lat="44.72315" lon="6.62518">
        <ele>1805.368042</ele>
        <time>2011-08-11T11:45:55Z</time>
      </trkpt>
      <trkpt lat="44.72302" lon="6.62525">
        <ele>1806.620239</ele>
        <time>2011-08-11T11:46:07Z</time>
      </trkpt>
      <trkpt lat="44.72288" lon="6.62533">
        <ele>1807.839844</ele>
        <time>2011-08-11T11:46:19Z</time>
      </trkpt>
      <trkpt lat="44.7228" lon="6.62548">
        <ele>1810.112793</ele>
        <time>2011-08-11T11:46:31Z</time>
      </trkpt>
      <trkpt lat="44.72268" lon="6.6256">
        <ele>1810.657471</ele>
        <time>2011-08-11T11:49:15Z</time>
      </trkpt>
      <trkpt lat="44.72258" lon="6.62578">
        <ele>1812.347656</ele>
        <time>2011-08-11T11:49:25Z</time>
      </trkpt>
      <trkpt lat="44.72247" lon="6.62593">
        <ele>1813.153076</ele>
        <time>2011-08-11T11:49:35Z</time>
      </trkpt>
      <trkpt lat="44.72237" lon="6.62607">
        <ele>1813.367676</ele>
        <time>2011-08-11T11:49:43Z</time>
      </trkpt>
      <trkpt lat="44.7223" lon="6.62625">
        <ele>1814.2323</ele>
        <time>2011-08-11T11:49:53Z</time>
      </trkpt>
      <trkpt lat="44.72228" lon="6.62645">
        <ele>1816.006104</ele>
        <time>2011-08-11T11:50:02Z</time>
      </trkpt>
      <trkpt lat="44.72232" lon="6.62668">
        <ele>1819.022461</ele>
        <time>2011-08-11T11:50:10Z</time>
      </trkpt>
      <trkpt lat="44.72238" lon="6.62685">
        <ele>1822.335815</ele>
        <time>2011-08-11T11:50:18Z</time>
      </trkpt>
      <trkpt lat="44.72248" lon="6.62702">
        <ele>1826.506836</ele>
        <time>2011-08-11T11:50:30Z</time>
      </trkpt>
      <trkpt lat="44.72252" lon="6.62722">
        <ele>1830.220215</ele>
        <time>2011-08-11T11:50:43Z</time>
      </trkpt>
      <trkpt lat="44.72268" lon="6.62723">
        <ele>1833.867554</ele>
        <time>2011-08-11T11:51:01Z</time>
      </trkpt>
      <trkpt lat="44.72282" lon="6.62713">
        <ele>1834.53894</ele>
        <time>2011-08-11T11:51:13Z</time>
      </trkpt>
      <trkpt lat="44.72297" lon="6.62705">
        <ele>1835.271973</ele>
        <time>2011-08-11T11:51:25Z</time>
      </trkpt>
      <trkpt lat="44.72312" lon="6.62702">
        <ele>1836.495605</ele>
        <time>2011-08-11T11:51:35Z</time>
      </trkpt>
      <trkpt lat="44.72328" lon="6.62703">
        <ele>1838.978394</ele>
        <time>2011-08-11T11:51:45Z</time>
      </trkpt>
      <trkpt lat="44.72343" lon="6.62707">
        <ele>1840.798706</ele>
        <time>2011-08-11T11:51:55Z</time>
      </trkpt>
      <trkpt lat="44.72357" lon="6.62712">
        <ele>1841.749878</ele>
        <time>2011-08-11T11:52:04Z</time>
      </trkpt>
      <trkpt lat="44.7237" lon="6.6272">
        <ele>1843.41272</ele>
        <time>2011-08-11T11:52:14Z</time>
      </trkpt>
      <trkpt lat="44.72385" lon="6.62728">
        <ele>1845.013916</ele>
        <time>2011-08-11T11:52:24Z</time>
      </trkpt>
      <trkpt lat="44.72395" lon="6.62745">
        <ele>1848.251465</ele>
        <time>2011-08-11T11:52:36Z</time>
      </trkpt>
      <trkpt lat="44.72382" lon="6.62748">
        <ele>1849.421387</ele>
        <time>2011-08-11T11:52:46Z</time>
      </trkpt>
      <trkpt lat="44.72365" lon="6.62747">
        <ele>1848.870605</ele>
        <time>2011-08-11T11:52:59Z</time>
      </trkpt>
      <trkpt lat="44.72348" lon="6.62748">
        <ele>1848.963745</ele>
        <time>2011-08-11T11:53:11Z</time>
      </trkpt>
      <trkpt lat="44.72333" lon="6.62755">
        <ele>1849.768799</ele>
        <time>2011-08-11T11:53:23Z</time>
      </trkpt>
      <trkpt lat="44.7232" lon="6.6277">
        <ele>1851.293945</ele>
        <time>2011-08-11T11:53:33Z</time>
      </trkpt>
      <trkpt lat="44.72298" lon="6.62793">
        <ele>1853.863159</ele>
        <time>2011-08-11T11:53:51Z</time>
      </trkpt>
      <trkpt lat="44.72285" lon="6.62803">
        <ele>1853.370483</ele>
        <time>2011-08-11T11:54:01Z</time>
      </trkpt>
      <trkpt lat="44.72302" lon="6.62812">
        <ele>1856.714233</ele>
        <time>2011-08-11T11:54:18Z</time>
      </trkpt>
      <trkpt lat="44.7232" lon="6.62815">
        <ele>1859.511719</ele>
        <time>2011-08-11T11:54:30Z</time>
      </trkpt>
      <trkpt lat="44.72338" lon="6.6282">
        <ele>1862.486816</ele>
        <time>2011-08-11T11:54:42Z</time>
      </trkpt>
      <trkpt lat="44.72355" lon="6.62823">
        <ele>1864.56543</ele>
        <time>2011-08-11T11:54:52Z</time>
      </trkpt>
      <trkpt lat="44.72372" lon="6.62823">
        <ele>1865.965454</ele>
        <time>2011-08-11T11:55:00Z</time>
      </trkpt>
      <trkpt lat="44.72385" lon="6.62828">
        <ele>1868.069214</ele>
        <time>2011-08-11T11:57:50Z</time>
      </trkpt>
      <trkpt lat="44.72403" lon="6.62828">
        <ele>1869.044067</ele>
        <time>2011-08-11T11:57:58Z</time>
      </trkpt>
      <trkpt lat="44.72427" lon="6.6283">
        <ele>1870.395386</ele>
        <time>2011-08-11T11:58:06Z</time>
      </trkpt>
      <trkpt lat="44.7245" lon="6.62833">
        <ele>1870.773193</ele>
        <time>2011-08-11T11:58:12Z</time>
      </trkpt>
      <trkpt lat="44.72465" lon="6.62835">
        <ele>1870.893188</ele>
        <time>2011-08-11T11:58:16Z</time>
      </trkpt>
      <trkpt lat="44.7249" lon="6.62837">
        <ele>1870.748291</ele>
        <time>2011-08-11T11:58:25Z</time>
      </trkpt>
      <trkpt lat="44.72543" lon="6.62843">
        <ele>1874.342773</ele>
        <time>2011-08-11T11:58:43Z</time>
      </trkpt>
      <trkpt lat="44.72562" lon="6.62843">
        <ele>1875.954712</ele>
        <time>2011-08-11T11:58:49Z</time>
      </trkpt>
      <trkpt lat="44.7258" lon="6.62838">
        <ele>1877.214478</ele>
        <time>2011-08-11T11:58:55Z</time>
      </trkpt>
      <trkpt lat="44.72593" lon="6.62828">
        <ele>1875.606567</ele>
        <time>2011-08-11T11:58:59Z</time>
      </trkpt>
      <trkpt lat="44.7261" lon="6.62815">
        <ele>1873.436035</ele>
        <time>2011-08-11T11:59:05Z</time>
      </trkpt>
      <trkpt lat="44.72627" lon="6.62808">
        <ele>1874.464233</ele>
        <time>2011-08-11T11:59:11Z</time>
      </trkpt>
      <trkpt lat="44.72653" lon="6.62798">
        <ele>1876.389771</ele>
        <time>2011-08-11T11:59:22Z</time>
      </trkpt>
      <trkpt lat="44.72668" lon="6.62788">
        <ele>1876.602783</ele>
        <time>2011-08-11T11:59:28Z</time>
      </trkpt>
      <trkpt lat="44.72685" lon="6.62782">
        <ele>1877.768921</ele>
        <time>2011-08-11T11:59:34Z</time>
      </trkpt>
      <trkpt lat="44.727" lon="6.62773">
        <ele>1877.921265</ele>
        <time>2011-08-11T11:59:40Z</time>
      </trkpt>
      <trkpt lat="44.72715" lon="6.62765">
        <ele>1877.634399</ele>
        <time>2011-08-11T11:59:46Z</time>
      </trkpt>
      <trkpt lat="44.72728" lon="6.62758">
        <ele>1877.998291</ele>
        <time>2011-08-11T11:59:50Z</time>
      </trkpt>
      <trkpt lat="44.72745" lon="6.62753">
        <ele>1879.81665</ele>
        <time>2011-08-11T11:59:56Z</time>
      </trkpt>
      <trkpt lat="44.7276" lon="6.62743">
        <ele>1881.246216</ele>
        <time>2011-08-11T12:00:03Z</time>
      </trkpt>
      <trkpt lat="44.72775" lon="6.62732">
        <ele>1881.674683</ele>
        <time>2011-08-11T12:00:09Z</time>
      </trkpt>
      <trkpt lat="44.72798" lon="6.62712">
        <ele>1880.554565</ele>
        <time>2011-08-11T12:00:19Z</time>
      </trkpt>
      <trkpt lat="44.72812" lon="6.62708">
        <ele>1881.641113</ele>
        <time>2011-08-11T12:00:25Z</time>
      </trkpt>
      <trkpt lat="44.72835" lon="6.62702">
        <ele>1883.102417</ele>
        <time>2011-08-11T12:00:33Z</time>
      </trkpt>
      <trkpt lat="44.7285" lon="6.62703">
        <ele>1885.528564</ele>
        <time>2011-08-11T12:00:39Z</time>
      </trkpt>
      <trkpt lat="44.72868" lon="6.62707">
        <ele>1888.938599</ele>
        <time>2011-08-11T12:00:48Z</time>
      </trkpt>
      <trkpt lat="44.7289" lon="6.62712">
        <ele>1892.323608</ele>
        <time>2011-08-11T12:00:58Z</time>
      </trkpt>
      <trkpt lat="44.72905" lon="6.62712">
        <ele>1892.940674</ele>
        <time>2011-08-11T12:01:06Z</time>
      </trkpt>
      <trkpt lat="44.72918" lon="6.62723">
        <ele>1897.315308</ele>
        <time>2011-08-11T12:01:56Z</time>
      </trkpt>
      <trkpt lat="44.72937" lon="6.62725">
        <ele>1897.255859</ele>
        <time>2011-08-11T12:02:06Z</time>
      </trkpt>
      <trkpt lat="44.72953" lon="6.62727">
        <ele>1896.954712</ele>
        <time>2011-08-11T12:02:16Z</time>
      </trkpt>
      <trkpt lat="44.72968" lon="6.62727">
        <ele>1896.21167</ele>
        <time>2011-08-11T12:02:24Z</time>
      </trkpt>
      <trkpt lat="44.72987" lon="6.62725">
        <ele>1894.503906</ele>
        <time>2011-08-11T12:02:34Z</time>
      </trkpt>
      <trkpt lat="44.73002" lon="6.62733">
        <ele>1896.095337</ele>
        <time>2011-08-11T12:02:42Z</time>
      </trkpt>
      <trkpt lat="44.73017" lon="6.62745">
        <ele>1898.85437</ele>
        <time>2011-08-11T12:02:53Z</time>
      </trkpt>
      <trkpt lat="44.73032" lon="6.62753">
        <ele>1900.61731</ele>
        <time>2011-08-11T12:03:03Z</time>
      </trkpt>
      <trkpt lat="44.73047" lon="6.62758">
        <ele>1901.293945</ele>
        <time>2011-08-11T12:03:13Z</time>
      </trkpt>
      <trkpt lat="44.73078" lon="6.62775">
        <ele>1904.494141</ele>
        <time>2011-08-11T12:03:31Z</time>
      </trkpt>
      <trkpt lat="44.73092" lon="6.62778">
        <ele>1904.681396</ele>
        <time>2011-08-11T12:03:39Z</time>
      </trkpt>
      <trkpt lat="44.7311" lon="6.62785">
        <ele>1905.987061</ele>
        <time>2011-08-11T12:03:50Z</time>
      </trkpt>
      <trkpt lat="44.73123" lon="6.62788">
        <ele>1906.888184</ele>
        <time>2011-08-11T12:03:58Z</time>
      </trkpt>
      <trkpt lat="44.73137" lon="6.62785">
        <ele>1905.926025</ele>
        <time>2011-08-11T12:04:06Z</time>
      </trkpt>
      <trkpt lat="44.7315" lon="6.62782">
        <ele>1905.029663</ele>
        <time>2011-08-11T12:04:14Z</time>
      </trkpt>
      <trkpt lat="44.73167" lon="6.62783">
        <ele>1905.800659</ele>
        <time>2011-08-11T12:04:24Z</time>
      </trkpt>
      <trkpt lat="44.73182" lon="6.62783">
        <ele>1906.049561</ele>
        <time>2011-08-11T12:04:32Z</time>
      </trkpt>
      <trkpt lat="44.73197" lon="6.62785">
        <ele>1906.614502</ele>
        <time>2011-08-11T12:04:42Z</time>
      </trkpt>
      <trkpt lat="44.7321" lon="6.62792">
        <ele>1908.55188</ele>
        <time>2011-08-11T12:04:51Z</time>
      </trkpt>
      <trkpt lat="44.73223" lon="6.628">
        <ele>1911.13916</ele>
        <time>2011-08-11T12:05:01Z</time>
      </trkpt>
      <trkpt lat="44.73237" lon="6.6281">
        <ele>1913.68042</ele>
        <time>2011-08-11T12:05:09Z</time>
      </trkpt>
      <trkpt lat="44.7325" lon="6.62817">
        <ele>1914.44043</ele>
        <time>2011-08-11T12:05:15Z</time>
      </trkpt>
      <trkpt lat="44.73263" lon="6.62825">
        <ele>1915.547852</ele>
        <time>2011-08-11T12:05:21Z</time>
      </trkpt>
      <trkpt lat="44.7328" lon="6.62833">
        <ele>1916.029907</ele>
        <time>2011-08-11T12:05:30Z</time>
      </trkpt>
      <trkpt lat="44.73293" lon="6.62845">
        <ele>1915.117188</ele>
        <time>2011-08-11T12:05:38Z</time>
      </trkpt>
      <trkpt lat="44.73303" lon="6.62862">
        <ele>1915.953003</ele>
        <time>2011-08-11T12:06:14Z</time>
      </trkpt>
      <trkpt lat="44.73312" lon="6.62883">
        <ele>1916.402222</ele>
        <time>2011-08-11T12:06:22Z</time>
      </trkpt>
      <trkpt lat="44.73318" lon="6.62902">
        <ele>1915.533813</ele>
        <time>2011-08-11T12:06:28Z</time>
      </trkpt>
      <trkpt lat="44.7332" lon="6.62925">
        <ele>1916.209961</ele>
        <time>2011-08-11T12:06:32Z</time>
      </trkpt>
      <trkpt lat="44.73317" lon="6.62948">
        <ele>1918.320801</ele>
        <time>2011-08-11T12:06:38Z</time>
      </trkpt>
      <trkpt lat="44.73318" lon="6.62968">
        <ele>1918.442383</ele>
        <time>2011-08-11T12:06:44Z</time>
      </trkpt>
      <trkpt lat="44.7332" lon="6.62993">
        <ele>1918.438354</ele>
        <time>2011-08-11T12:06:51Z</time>
      </trkpt>
      <trkpt lat="44.73323" lon="6.63013">
        <ele>1920.39563</ele>
        <time>2011-08-11T12:06:55Z</time>
      </trkpt>
      <trkpt lat="44.73328" lon="6.63033">
        <ele>1922.445923</ele>
        <time>2011-08-11T12:06:59Z</time>
      </trkpt>
      <trkpt lat="44.73337" lon="6.63058">
        <ele>1923.582275</ele>
        <time>2011-08-11T12:07:05Z</time>
      </trkpt>
      <trkpt lat="44.73342" lon="6.63077">
        <ele>1924.84021</ele>
        <time>2011-08-11T12:07:09Z</time>
      </trkpt>
      <trkpt lat="44.7335" lon="6.63093">
        <ele>1923.815186</ele>
        <time>2011-08-11T12:07:13Z</time>
      </trkpt>
      <trkpt lat="44.73362" lon="6.63117">
        <ele>1921.345093</ele>
        <time>2011-08-11T12:07:19Z</time>
      </trkpt>
      <trkpt lat="44.73368" lon="6.63137">
        <ele>1919.11377</ele>
        <time>2011-08-11T12:07:23Z</time>
      </trkpt>
      <trkpt lat="44.7337" lon="6.63157">
        <ele>1919.099365</ele>
        <time>2011-08-11T12:07:27Z</time>
      </trkpt>
      <trkpt lat="44.73368" lon="6.63185">
        <ele>1922.140381</ele>
        <time>2011-08-11T12:07:34Z</time>
      </trkpt>
      <trkpt lat="44.73363" lon="6.63213">
        <ele>1926.703369</ele>
        <time>2011-08-11T12:07:40Z</time>
      </trkpt>
      <trkpt lat="44.73358" lon="6.63242">
        <ele>1930.505493</ele>
        <time>2011-08-11T12:07:46Z</time>
      </trkpt>
      <trkpt lat="44.73363" lon="6.63267">
        <ele>1929.575317</ele>
        <time>2011-08-11T12:07:54Z</time>
      </trkpt>
      <trkpt lat="44.73373" lon="6.63287">
        <ele>1926.786255</ele>
        <time>2011-08-11T12:08:00Z</time>
      </trkpt>
      <trkpt lat="44.73382" lon="6.6331">
        <ele>1925.965454</ele>
        <time>2011-08-11T12:08:06Z</time>
      </trkpt>
      <trkpt lat="44.73392" lon="6.6333">
        <ele>1923.930664</ele>
        <time>2011-08-11T12:08:12Z</time>
      </trkpt>
      <trkpt lat="44.73397" lon="6.63355">
        <ele>1927.710815</ele>
        <time>2011-08-11T12:08:18Z</time>
      </trkpt>
      <trkpt lat="44.73403" lon="6.63377">
        <ele>1928.712402</ele>
        <time>2011-08-11T12:08:24Z</time>
      </trkpt>
      <trkpt lat="44.73408" lon="6.63395">
        <ele>1928.628418</ele>
        <time>2011-08-11T12:08:30Z</time>
      </trkpt>
      <trkpt lat="44.73413" lon="6.63425">
        <ele>1929.528564</ele>
        <time>2011-08-11T12:08:39Z</time>
      </trkpt>
      <trkpt lat="44.7342" lon="6.63447">
        <ele>1927.5448</ele>
        <time>2011-08-11T12:08:45Z</time>
      </trkpt>
      <trkpt lat="44.73422" lon="6.6347">
        <ele>1929.512329</ele>
        <time>2011-08-11T12:08:51Z</time>
      </trkpt>
      <trkpt lat="44.73425" lon="6.63495">
        <ele>1930.280396</ele>
        <time>2011-08-11T12:08:57Z</time>
      </trkpt>
      <trkpt lat="44.73425" lon="6.63517">
        <ele>1934.006958</ele>
        <time>2011-08-11T12:09:03Z</time>
      </trkpt>
      <trkpt lat="44.73423" lon="6.6354">
        <ele>1942.234863</ele>
        <time>2011-08-11T12:09:09Z</time>
      </trkpt>
      <trkpt lat="44.73427" lon="6.63562">
        <ele>1945.963379</ele>
        <time>2011-08-11T12:09:15Z</time>
      </trkpt>
      <trkpt lat="44.73438" lon="6.63583">
        <ele>1944.370361</ele>
        <time>2011-08-11T12:09:21Z</time>
      </trkpt>
      <trkpt lat="44.7345" lon="6.63593">
        <ele>1939.219238</ele>
        <time>2011-08-11T12:09:27Z</time>
      </trkpt>
      <trkpt lat="44.7346" lon="6.63608">
        <ele>1936.267456</ele>
        <time>2011-08-11T12:09:34Z</time>
      </trkpt>
      <trkpt lat="44.73467" lon="6.63625">
        <ele>1935.734741</ele>
        <time>2011-08-11T12:09:40Z</time>
      </trkpt>
      <trkpt lat="44.73475" lon="6.63642">
        <ele>1932.874146</ele>
        <time>2011-08-11T12:09:46Z</time>
      </trkpt>
      <trkpt lat="44.73475" lon="6.63662">
        <ele>1935.501953</ele>
        <time>2011-08-11T12:09:52Z</time>
      </trkpt>
      <trkpt lat="44.73475" lon="6.63682">
        <ele>1938.071533</ele>
        <time>2011-08-11T12:09:58Z</time>
      </trkpt>
      <trkpt lat="44.73475" lon="6.63705">
        <ele>1941.124634</ele>
        <time>2011-08-11T12:10:04Z</time>
      </trkpt>
      <trkpt lat="44.73478" lon="6.63728">
        <ele>1943.960938</ele>
        <time>2011-08-11T12:10:10Z</time>
      </trkpt>
      <trkpt lat="44.73485" lon="6.63745">
        <ele>1942.741699</ele>
        <time>2011-08-11T12:10:14Z</time>
      </trkpt>
      <trkpt lat="44.73495" lon="6.63767">
        <ele>1940.729614</ele>
        <time>2011-08-11T12:10:20Z</time>
      </trkpt>
      <trkpt lat="44.73503" lon="6.63792">
        <ele>1940.11792</ele>
        <time>2011-08-11T12:10:26Z</time>
      </trkpt>
      <trkpt lat="44.73512" lon="6.63823">
        <ele>1940.71167</ele>
        <time>2011-08-11T12:10:35Z</time>
      </trkpt>
      <trkpt lat="44.73517" lon="6.63847">
        <ele>1940.944702</ele>
        <time>2011-08-11T12:10:41Z</time>
      </trkpt>
      <trkpt lat="44.73522" lon="6.63878">
        <ele>1941.581177</ele>
        <time>2011-08-11T12:10:49Z</time>
      </trkpt>
      <trkpt lat="44.73525" lon="6.63902">
        <ele>1942.194458</ele>
        <time>2011-08-11T12:10:55Z</time>
      </trkpt>
      <trkpt lat="44.73527" lon="6.63923">
        <ele>1941.177124</ele>
        <time>2011-08-11T12:11:01Z</time>
      </trkpt>
      <trkpt lat="44.73525" lon="6.63948">
        <ele>1942.462036</ele>
        <time>2011-08-11T12:11:07Z</time>
      </trkpt>
      <trkpt lat="44.73522" lon="6.63978">
        <ele>1942.531494</ele>
        <time>2011-08-11T12:11:13Z</time>
      </trkpt>
      <trkpt lat="44.73513" lon="6.64003">
        <ele>1943.878662</ele>
        <time>2011-08-11T12:11:19Z</time>
      </trkpt>
      <trkpt lat="44.73507" lon="6.64027">
        <ele>1944.452759</ele>
        <time>2011-08-11T12:11:25Z</time>
      </trkpt>
      <trkpt lat="44.73505" lon="6.64053">
        <ele>1943.075684</ele>
        <time>2011-08-11T12:11:32Z</time>
      </trkpt>
      <trkpt lat="44.73497" lon="6.64075">
        <ele>1945.528809</ele>
        <time>2011-08-11T12:11:38Z</time>
      </trkpt>
      <trkpt lat="44.7349" lon="6.64095">
        <ele>1949.323608</ele>
        <time>2011-08-11T12:11:42Z</time>
      </trkpt>
      <trkpt lat="44.73493" lon="6.64115">
        <ele>1950.659424</ele>
        <time>2011-08-11T12:11:46Z</time>
      </trkpt>
      <trkpt lat="44.735" lon="6.64138">
        <ele>1950.848022</ele>
        <time>2011-08-11T12:11:50Z</time>
      </trkpt>
      <trkpt lat="44.73507" lon="6.64155">
        <ele>1950.481323</ele>
        <time>2011-08-11T12:11:54Z</time>
      </trkpt>
      <trkpt lat="44.73515" lon="6.6417">
        <ele>1949.503906</ele>
        <time>2011-08-11T12:11:58Z</time>
      </trkpt>
      <trkpt lat="44.73528" lon="6.6419">
        <ele>1947.126709</ele>
        <time>2011-08-11T12:12:04Z</time>
      </trkpt>
      <trkpt lat="44.7354" lon="6.6421">
        <ele>1945.554932</ele>
        <time>2011-08-11T12:12:11Z</time>
      </trkpt>
      <trkpt lat="44.73553" lon="6.64233">
        <ele>1942.584351</ele>
        <time>2011-08-11T12:12:17Z</time>
      </trkpt>
      <trkpt lat="44.73558" lon="6.64252">
        <ele>1942.475464</ele>
        <time>2011-08-11T12:12:21Z</time>
      </trkpt>
      <trkpt lat="44.73558" lon="6.6428">
        <ele>1945.994873</ele>
        <time>2011-08-11T12:12:27Z</time>
      </trkpt>
      <trkpt lat="44.73558" lon="6.64308">
        <ele>1945.598389</ele>
        <time>2011-08-11T12:12:33Z</time>
      </trkpt>
      <trkpt lat="44.73553" lon="6.64337">
        <ele>1947.41333</ele>
        <time>2011-08-11T12:12:39Z</time>
      </trkpt>
      <trkpt lat="44.7355" lon="6.64358">
        <ele>1947.710205</ele>
        <time>2011-08-11T12:12:43Z</time>
      </trkpt>
      <trkpt lat="44.73545" lon="6.64385">
        <ele>1947.936035</ele>
        <time>2011-08-11T12:12:49Z</time>
      </trkpt>
      <trkpt lat="44.73547" lon="6.64412">
        <ele>1945.197266</ele>
        <time>2011-08-11T12:12:55Z</time>
      </trkpt>
      <trkpt lat="44.73537" lon="6.64433">
        <ele>1947.894165</ele>
        <time>2011-08-11T12:12:59Z</time>
      </trkpt>
      <trkpt lat="44.73535" lon="6.64457">
        <ele>1946.807861</ele>
        <time>2011-08-11T12:13:03Z</time>
      </trkpt>
      <trkpt lat="44.73533" lon="6.64488">
        <ele>1944.692139</ele>
        <time>2011-08-11T12:13:09Z</time>
      </trkpt>
      <trkpt lat="44.73525" lon="6.64507">
        <ele>1946.178711</ele>
        <time>2011-08-11T12:13:14Z</time>
      </trkpt>
      <trkpt lat="44.7352" lon="6.64528">
        <ele>1946.137329</ele>
        <time>2011-08-11T12:13:18Z</time>
      </trkpt>
      <trkpt lat="44.73513" lon="6.64548">
        <ele>1946.268799</ele>
        <time>2011-08-11T12:13:22Z</time>
      </trkpt>
      <trkpt lat="44.73507" lon="6.64567">
        <ele>1946.757324</ele>
        <time>2011-08-11T12:13:26Z</time>
      </trkpt>
      <trkpt lat="44.735" lon="6.64583">
        <ele>1947.678833</ele>
        <time>2011-08-11T12:13:30Z</time>
      </trkpt>
      <trkpt lat="44.73483" lon="6.64598">
        <ele>1953.34375</ele>
        <time>2011-08-11T12:13:36Z</time>
      </trkpt>
      <trkpt lat="44.73478" lon="6.64618">
        <ele>1952.724243</ele>
        <time>2011-08-11T12:13:40Z</time>
      </trkpt>
      <trkpt lat="44.73485" lon="6.6464">
        <ele>1946.437134</ele>
        <time>2011-08-11T12:13:44Z</time>
      </trkpt>
      <trkpt lat="44.73482" lon="6.64665">
        <ele>1944.354736</ele>
        <time>2011-08-11T12:13:51Z</time>
      </trkpt>
      <trkpt lat="44.73472" lon="6.64682">
        <ele>1947.042969</ele>
        <time>2011-08-11T12:13:55Z</time>
      </trkpt>
      <trkpt lat="44.73463" lon="6.64703">
        <ele>1949.067505</ele>
        <time>2011-08-11T12:13:59Z</time>
      </trkpt>
      <trkpt lat="44.73465" lon="6.64732">
        <ele>1946.686523</ele>
        <time>2011-08-11T12:14:05Z</time>
      </trkpt>
      <trkpt lat="44.73472" lon="6.64757">
        <ele>1941.963867</ele>
        <time>2011-08-11T12:14:09Z</time>
      </trkpt>
      <trkpt lat="44.73473" lon="6.64777">
        <ele>1940.613403</ele>
        <time>2011-08-11T12:14:13Z</time>
      </trkpt>
      <trkpt lat="44.73478" lon="6.64805">
        <ele>1938.269287</ele>
        <time>2011-08-11T12:14:20Z</time>
      </trkpt>
      <trkpt lat="44.73475" lon="6.64825">
        <ele>1940.2052</ele>
        <time>2011-08-11T12:14:24Z</time>
      </trkpt>
      <trkpt lat="44.7347" lon="6.6485">
        <ele>1942.205078</ele>
        <time>2011-08-11T12:14:30Z</time>
      </trkpt>
      <trkpt lat="44.73457" lon="6.6487">
        <ele>1947.556274</ele>
        <time>2011-08-11T12:14:36Z</time>
      </trkpt>
      <trkpt lat="44.7344" lon="6.6489">
        <ele>1953.161743</ele>
        <time>2011-08-11T12:14:42Z</time>
      </trkpt>
      <trkpt lat="44.73437" lon="6.64917">
        <ele>1950.283813</ele>
        <time>2011-08-11T12:14:46Z</time>
      </trkpt>
      <trkpt lat="44.73433" lon="6.6494">
        <ele>1948.461304</ele>
        <time>2011-08-11T12:14:50Z</time>
      </trkpt>
      <trkpt lat="44.73433" lon="6.6496">
        <ele>1945.63269</ele>
        <time>2011-08-11T12:14:54Z</time>
      </trkpt>
      <trkpt lat="44.73428" lon="6.6498">
        <ele>1946.849121</ele>
        <time>2011-08-11T12:14:58Z</time>
      </trkpt>
      <trkpt lat="44.73415" lon="6.64998">
        <ele>1952.788208</ele>
        <time>2011-08-11T12:15:05Z</time>
      </trkpt>
      <trkpt lat="44.73402" lon="6.65017">
        <ele>1959.166016</ele>
        <time>2011-08-11T12:15:11Z</time>
      </trkpt>
      <trkpt lat="44.734" lon="6.65045">
        <ele>1958.906494</ele>
        <time>2011-08-11T12:15:17Z</time>
      </trkpt>
      <trkpt lat="44.73402" lon="6.65067">
        <ele>1957.8479</ele>
        <time>2011-08-11T12:15:21Z</time>
      </trkpt>
      <trkpt lat="44.73397" lon="6.65095">
        <ele>1959.245605</ele>
        <time>2011-08-11T12:15:25Z</time>
      </trkpt>
      <trkpt lat="44.73397" lon="6.65115">
        <ele>1959.30127</ele>
        <time>2011-08-11T12:15:29Z</time>
      </trkpt>
      <trkpt lat="44.73398" lon="6.65137">
        <ele>1958.804443</ele>
        <time>2011-08-11T12:15:34Z</time>
      </trkpt>
      <trkpt lat="44.73398" lon="6.65157">
        <ele>1958.893921</ele>
        <time>2011-08-11T12:15:38Z</time>
      </trkpt>
      <trkpt lat="44.73398" lon="6.65188">
        <ele>1959.206665</ele>
        <time>2011-08-11T12:15:44Z</time>
      </trkpt>
      <trkpt lat="44.73395" lon="6.65208">
        <ele>1960.773682</ele>
        <time>2011-08-11T12:15:48Z</time>
      </trkpt>
      <trkpt lat="44.73393" lon="6.65228">
        <ele>1963.056152</ele>
        <time>2011-08-11T12:15:52Z</time>
      </trkpt>
      <trkpt lat="44.73395" lon="6.65252">
        <ele>1964.559814</ele>
        <time>2011-08-11T12:15:58Z</time>
      </trkpt>
      <trkpt lat="44.73395" lon="6.65275">
        <ele>1966.703979</ele>
        <time>2011-08-11T12:16:04Z</time>
      </trkpt>
      <trkpt lat="44.73397" lon="6.65298">
        <ele>1970.756958</ele>
        <time>2011-08-11T12:16:10Z</time>
      </trkpt>
      <trkpt lat="44.73403" lon="6.65317">
        <ele>1970.435303</ele>
        <time>2011-08-11T12:16:17Z</time>
      </trkpt>
      <trkpt lat="44.73408" lon="6.65337">
        <ele>1972.989258</ele>
        <time>2011-08-11T12:16:23Z</time>
      </trkpt>
      <trkpt lat="44.73418" lon="6.65352">
        <ele>1973.169434</ele>
        <time>2011-08-11T12:16:33Z</time>
      </trkpt>
      <trkpt lat="44.73432" lon="6.65365">
        <ele>1971.598145</ele>
        <time>2011-08-11T12:16:43Z</time>
      </trkpt>
      <trkpt lat="44.73442" lon="6.65378">
        <ele>1971.44397</ele>
        <time>2011-08-11T12:16:51Z</time>
      </trkpt>
      <trkpt lat="44.73453" lon="6.65388">
        <ele>1970.437378</ele>
        <time>2011-08-11T12:16:59Z</time>
      </trkpt>
      <trkpt lat="44.73465" lon="6.65398">
        <ele>1970.194336</ele>
        <time>2011-08-11T12:17:07Z</time>
      </trkpt>
      <trkpt lat="44.73482" lon="6.65415">
        <ele>1969.329834</ele>
        <time>2011-08-11T12:17:20Z</time>
      </trkpt>
      <trkpt lat="44.73492" lon="6.65432">
        <ele>1968.755493</ele>
        <time>2011-08-11T12:17:30Z</time>
      </trkpt>
      <trkpt lat="44.73495" lon="6.65453">
        <ele>1970.920654</ele>
        <time>2011-08-11T12:17:40Z</time>
      </trkpt>
      <trkpt lat="44.73483" lon="6.65472">
        <ele>1976.347168</ele>
        <time>2011-08-11T12:17:52Z</time>
      </trkpt>
      <trkpt lat="44.73468" lon="6.65477">
        <ele>1981.066406</ele>
        <time>2011-08-11T12:18:00Z</time>
      </trkpt>
      <trkpt lat="44.73457" lon="6.6549">
        <ele>1984.893921</ele>
        <time>2011-08-11T12:18:13Z</time>
      </trkpt>
      <trkpt lat="44.7345" lon="6.65508">
        <ele>1987.117188</ele>
        <time>2011-08-11T12:18:23Z</time>
      </trkpt>
      <trkpt lat="44.7345" lon="6.65532">
        <ele>1988.155273</ele>
        <time>2011-08-11T12:18:33Z</time>
      </trkpt>
      <trkpt lat="44.7346" lon="6.65545">
        <ele>1989.052734</ele>
        <time>2011-08-11T12:18:41Z</time>
      </trkpt>
      <trkpt lat="44.7347" lon="6.65558">
        <ele>1990.549683</ele>
        <time>2011-08-11T12:18:50Z</time>
      </trkpt>
      <trkpt lat="44.73477" lon="6.65575">
        <ele>1992.969727</ele>
        <time>2011-08-11T12:18:58Z</time>
      </trkpt>
      <trkpt lat="44.7349" lon="6.65587">
        <ele>1993.215576</ele>
        <time>2011-08-11T12:19:08Z</time>
      </trkpt>
      <trkpt lat="44.73503" lon="6.6559">
        <ele>1991.023438</ele>
        <time>2011-08-11T12:19:14Z</time>
      </trkpt>
      <trkpt lat="44.7352" lon="6.65593">
        <ele>1988.110718</ele>
        <time>2011-08-11T12:19:24Z</time>
      </trkpt>
      <trkpt lat="44.7353" lon="6.6561">
        <ele>1988.09375</ele>
        <time>2011-08-11T12:19:30Z</time>
      </trkpt>
      <trkpt lat="44.7353" lon="6.65633">
        <ele>1988.234253</ele>
        <time>2011-08-11T12:19:41Z</time>
      </trkpt>
      <trkpt lat="44.73525" lon="6.65652">
        <ele>1990.167358</ele>
        <time>2011-08-11T12:19:49Z</time>
      </trkpt>
      <trkpt lat="44.7353" lon="6.65673">
        <ele>1988.447021</ele>
        <time>2011-08-11T12:19:57Z</time>
      </trkpt>
      <trkpt lat="44.73537" lon="6.6569">
        <ele>1986.885864</ele>
        <time>2011-08-11T12:20:04Z</time>
      </trkpt>
      <trkpt lat="44.7354" lon="6.65713">
        <ele>1986.407104</ele>
        <time>2011-08-11T12:20:14Z</time>
      </trkpt>
      <trkpt lat="44.73533" lon="6.6573">
        <ele>1988.191895</ele>
        <time>2011-08-11T12:20:22Z</time>
      </trkpt>
      <trkpt lat="44.73525" lon="6.65752">
        <ele>1989.283081</ele>
        <time>2011-08-11T12:20:32Z</time>
      </trkpt>
      <trkpt lat="44.73513" lon="6.65763">
        <ele>1992.278198</ele>
        <time>2011-08-11T12:20:38Z</time>
      </trkpt>
      <trkpt lat="44.735" lon="6.65775">
        <ele>1994.995972</ele>
        <time>2011-08-11T12:20:50Z</time>
      </trkpt>
      <trkpt lat="44.73488" lon="6.65785">
        <ele>1996.64917</ele>
        <time>2011-08-11T12:20:59Z</time>
      </trkpt>
      <trkpt lat="44.73468" lon="6.658">
        <ele>2001.253418</ele>
        <time>2011-08-11T12:21:17Z</time>
      </trkpt>
      <trkpt lat="44.73453" lon="6.65813">
        <ele>2005.35791</ele>
        <time>2011-08-11T12:21:25Z</time>
      </trkpt>
      <trkpt lat="44.73435" lon="6.6582">
        <ele>2010.003418</ele>
        <time>2011-08-11T12:21:50Z</time>
      </trkpt>
      <trkpt lat="44.73428" lon="6.65837">
        <ele>2010.070679</ele>
        <time>2011-08-11T12:22:08Z</time>
      </trkpt>
      <trkpt lat="44.73418" lon="6.6585">
        <ele>2012.720093</ele>
        <time>2011-08-11T12:22:18Z</time>
      </trkpt>
      <trkpt lat="44.73407" lon="6.65867">
        <ele>2016.683105</ele>
        <time>2011-08-11T12:22:28Z</time>
      </trkpt>
      <trkpt lat="44.73395" lon="6.65878">
        <ele>2019.880615</ele>
        <time>2011-08-11T12:22:39Z</time>
      </trkpt>
      <trkpt lat="44.73378" lon="6.65903">
        <ele>2022.162476</ele>
        <time>2011-08-11T12:22:57Z</time>
      </trkpt>
      <trkpt lat="44.73368" lon="6.65917">
        <ele>2025.781982</ele>
        <time>2011-08-11T12:23:07Z</time>
      </trkpt>
      <trkpt lat="44.7336" lon="6.65935">
        <ele>2029.72644</ele>
        <time>2011-08-11T12:23:19Z</time>
      </trkpt>
      <trkpt lat="44.73353" lon="6.65953">
        <ele>2032.77771</ele>
        <time>2011-08-11T12:23:36Z</time>
      </trkpt>
      <trkpt lat="44.73365" lon="6.65965">
        <ele>2028.170654</ele>
        <time>2011-08-11T12:23:54Z</time>
      </trkpt>
      <trkpt lat="44.73378" lon="6.6597">
        <ele>2022.878784</ele>
        <time>2011-08-11T12:24:02Z</time>
      </trkpt>
      <trkpt lat="44.7339" lon="6.65985">
        <ele>2026.434692</ele>
        <time>2011-08-11T12:24:15Z</time>
      </trkpt>
      <trkpt lat="44.73393" lon="6.66005">
        <ele>2035.024292</ele>
        <time>2011-08-11T12:24:27Z</time>
      </trkpt>
      <trkpt lat="44.73408" lon="6.66015">
        <ele>2038.89209</ele>
        <time>2011-08-11T12:24:44Z</time>
      </trkpt>
      <trkpt lat="44.73427" lon="6.66025">
        <ele>2042.992065</ele>
        <time>2011-08-11T12:25:02Z</time>
      </trkpt>
      <trkpt lat="44.73442" lon="6.66027">
        <ele>2043.567749</ele>
        <time>2011-08-11T12:25:19Z</time>
      </trkpt>
      <trkpt lat="44.7346" lon="6.66032">
        <ele>2045.680786</ele>
        <time>2011-08-11T12:25:37Z</time>
      </trkpt>
      <trkpt lat="44.7348" lon="6.66042">
        <ele>2047.58252</ele>
        <time>2011-08-11T12:25:57Z</time>
      </trkpt>
      <trkpt lat="44.73493" lon="6.66047">
        <ele>2046.498779</ele>
        <time>2011-08-11T12:26:10Z</time>
      </trkpt>
      <trkpt lat="44.73503" lon="6.6606">
        <ele>2047.473633</ele>
        <time>2011-08-11T12:26:22Z</time>
      </trkpt>
      <trkpt lat="44.73515" lon="6.66082">
        <ele>2046.108032</ele>
        <time>2011-08-11T12:26:40Z</time>
      </trkpt>
      <trkpt lat="44.73518" lon="6.66102">
        <ele>2046.939575</ele>
        <time>2011-08-11T12:26:57Z</time>
      </trkpt>
      <trkpt lat="44.73515" lon="6.66127">
        <ele>2051.034668</ele>
        <time>2011-08-11T12:27:15Z</time>
      </trkpt>
      <trkpt lat="44.73513" lon="6.66155">
        <ele>2053.437988</ele>
        <time>2011-08-11T12:27:35Z</time>
      </trkpt>
      <trkpt lat="44.73512" lon="6.66178">
        <ele>2055.690674</ele>
        <time>2011-08-11T12:27:53Z</time>
      </trkpt>
      <trkpt lat="44.73505" lon="6.66198">
        <ele>2060.95166</ele>
        <time>2011-08-11T12:28:10Z</time>
      </trkpt>
      <trkpt lat="44.73498" lon="6.66223">
        <ele>2067.187012</ele>
        <time>2011-08-11T12:28:30Z</time>
      </trkpt>
      <trkpt lat="44.73503" lon="6.66245">
        <ele>2065.254639</ele>
        <time>2011-08-11T12:28:48Z</time>
      </trkpt>
      <trkpt lat="44.73508" lon="6.66267">
        <ele>2065.831055</ele>
        <time>2011-08-11T12:29:05Z</time>
      </trkpt>
      <trkpt lat="44.73508" lon="6.66288">
        <ele>2068.731689</ele>
        <time>2011-08-11T12:29:22Z</time>
      </trkpt>
      <trkpt lat="44.7351" lon="6.66312">
        <ele>2072.683105</ele>
        <time>2011-08-11T12:29:40Z</time>
      </trkpt>
      <trkpt lat="44.73508" lon="6.66337">
        <ele>2077.250732</ele>
        <time>2011-08-11T12:29:58Z</time>
      </trkpt>
      <trkpt lat="44.735" lon="6.66353">
        <ele>2078.949463</ele>
        <time>2011-08-11T12:30:15Z</time>
      </trkpt>
      <trkpt lat="44.73487" lon="6.6638">
        <ele>2085.792969</ele>
        <time>2011-08-11T12:30:36Z</time>
      </trkpt>
      <trkpt lat="44.7348" lon="6.66398">
        <ele>2089.387695</ele>
        <time>2011-08-11T12:30:48Z</time>
      </trkpt>
      <trkpt lat="44.73473" lon="6.66415">
        <ele>2092.314941</ele>
        <time>2011-08-11T12:30:59Z</time>
      </trkpt>
      <trkpt lat="44.73463" lon="6.6643">
        <ele>2095.10498</ele>
        <time>2011-08-11T12:31:11Z</time>
      </trkpt>
      <trkpt lat="44.7345" lon="6.66438">
        <ele>2097.698486</ele>
        <time>2011-08-11T12:31:21Z</time>
      </trkpt>
      <trkpt lat="44.73428" lon="6.66415">
        <ele>2099.880127</ele>
        <time>2011-08-11T12:33:39Z</time>
      </trkpt>
      <trkpt lat="44.7343" lon="6.66392">
        <ele>2098.873779</ele>
        <time>2011-08-11T12:33:49Z</time>
      </trkpt>
      <trkpt lat="44.73433" lon="6.6637">
        <ele>2097.366455</ele>
        <time>2011-08-11T12:34:00Z</time>
      </trkpt>
      <trkpt lat="44.73437" lon="6.6635">
        <ele>2096.54248</ele>
        <time>2011-08-11T12:34:10Z</time>
      </trkpt>
      <trkpt lat="44.73435" lon="6.6633">
        <ele>2099.040039</ele>
        <time>2011-08-11T12:34:20Z</time>
      </trkpt>
      <trkpt lat="44.73442" lon="6.6631">
        <ele>2098.282471</ele>
        <time>2011-08-11T12:34:32Z</time>
      </trkpt>
      <trkpt lat="44.73428" lon="6.66302">
        <ele>2104.870361</ele>
        <time>2011-08-11T12:35:11Z</time>
      </trkpt>
      <trkpt lat="44.73415" lon="6.6631">
        <ele>2109.372314</ele>
        <time>2011-08-11T12:35:24Z</time>
      </trkpt>
      <trkpt lat="44.73405" lon="6.66328">
        <ele>2109.466309</ele>
        <time>2011-08-11T12:35:42Z</time>
      </trkpt>
      <trkpt lat="44.7339" lon="6.6635">
        <ele>2110.419189</ele>
        <time>2011-08-11T12:36:00Z</time>
      </trkpt>
      <trkpt lat="44.73397" lon="6.66372">
        <ele>2107.975586</ele>
        <time>2011-08-11T12:36:17Z</time>
      </trkpt>
      <trkpt lat="44.73393" lon="6.66397">
        <ele>2108.809814</ele>
        <time>2011-08-11T12:36:35Z</time>
      </trkpt>
      <trkpt lat="44.73383" lon="6.66413">
        <ele>2111.804199</ele>
        <time>2011-08-11T12:36:52Z</time>
      </trkpt>
      <trkpt lat="44.73377" lon="6.66437">
        <ele>2115.188232</ele>
        <time>2011-08-11T12:37:10Z</time>
      </trkpt>
      <trkpt lat="44.7337" lon="6.66453">
        <ele>2118.151611</ele>
        <time>2011-08-11T12:37:22Z</time>
      </trkpt>
      <trkpt lat="44.73365" lon="6.66477">
        <ele>2120.878418</ele>
        <time>2011-08-11T12:37:39Z</time>
      </trkpt>
      <trkpt lat="44.73357" lon="6.66462">
        <ele>2123.141846</ele>
        <time>2011-08-11T12:38:06Z</time>
      </trkpt>
      <trkpt lat="44.73347" lon="6.6644">
        <ele>2126.117676</ele>
        <time>2011-08-11T12:38:25Z</time>
      </trkpt>
      <trkpt lat="44.73347" lon="6.6642">
        <ele>2124.822021</ele>
        <time>2011-08-11T12:38:37Z</time>
      </trkpt>
      <trkpt lat="44.7334" lon="6.66393">
        <ele>2126.368896</ele>
        <time>2011-08-11T12:38:55Z</time>
      </trkpt>
      <trkpt lat="44.73332" lon="6.66378">
        <ele>2128.828857</ele>
        <time>2011-08-11T12:39:08Z</time>
      </trkpt>
      <trkpt lat="44.73315" lon="6.6637">
        <ele>2133.924805</ele>
        <time>2011-08-11T12:39:26Z</time>
      </trkpt>
      <trkpt lat="44.733" lon="6.66367">
        <ele>2138.154785</ele>
        <time>2011-08-11T12:39:38Z</time>
      </trkpt>
      <trkpt lat="44.73288" lon="6.66378">
        <ele>2142.185547</ele>
        <time>2011-08-11T12:39:55Z</time>
      </trkpt>
      <trkpt lat="44.73302" lon="6.66393">
        <ele>2139.05127</ele>
        <time>2011-08-11T12:40:12Z</time>
      </trkpt>
      <trkpt lat="44.73313" lon="6.6641">
        <ele>2136.49292</ele>
        <time>2011-08-11T12:40:24Z</time>
      </trkpt>
      <trkpt lat="44.73318" lon="6.6643">
        <ele>2136.923096</ele>
        <time>2011-08-11T12:40:37Z</time>
      </trkpt>
      <trkpt lat="44.7332" lon="6.66458">
        <ele>2138.842529</ele>
        <time>2011-08-11T12:40:55Z</time>
      </trkpt>
      <trkpt lat="44.73313" lon="6.66475">
        <ele>2142.893311</ele>
        <time>2011-08-11T12:41:08Z</time>
      </trkpt>
      <trkpt lat="44.73305" lon="6.66495">
        <ele>2145.563477</ele>
        <time>2011-08-11T12:41:26Z</time>
      </trkpt>
      <trkpt lat="44.73297" lon="6.6651">
        <ele>2148.461182</ele>
        <time>2011-08-11T12:41:39Z</time>
      </trkpt>
      <trkpt lat="44.7329" lon="6.6653">
        <ele>2150.919922</ele>
        <time>2011-08-11T12:43:31Z</time>
      </trkpt>
      <trkpt lat="44.73278" lon="6.66543">
        <ele>2154.876221</ele>
        <time>2011-08-11T12:43:48Z</time>
      </trkpt>
      <trkpt lat="44.73267" lon="6.66562">
        <ele>2157.413574</ele>
        <time>2011-08-11T12:44:06Z</time>
      </trkpt>
      <trkpt lat="44.73257" lon="6.66575">
        <ele>2158.981689</ele>
        <time>2011-08-11T12:44:14Z</time>
      </trkpt>
      <trkpt lat="44.73245" lon="6.66588">
        <ele>2161.077148</ele>
        <time>2011-08-11T12:44:47Z</time>
      </trkpt>
      <trkpt lat="44.73228" lon="6.66602">
        <ele>2165.431885</ele>
        <time>2011-08-11T12:45:05Z</time>
      </trkpt>
      <trkpt lat="44.73217" lon="6.6662">
        <ele>2168.237061</ele>
        <time>2011-08-11T12:45:22Z</time>
      </trkpt>
      <trkpt lat="44.73208" lon="6.66635">
        <ele>2169.45459</ele>
        <time>2011-08-11T12:45:32Z</time>
      </trkpt>
      <trkpt lat="44.73203" lon="6.66653">
        <ele>2170.354492</ele>
        <time>2011-08-11T12:45:40Z</time>
      </trkpt>
      <trkpt lat="44.73198" lon="6.66672">
        <ele>2172.34375</ele>
        <time>2011-08-11T12:45:51Z</time>
      </trkpt>
      <trkpt lat="44.7319" lon="6.66688">
        <ele>2174.298584</ele>
        <time>2011-08-11T12:46:01Z</time>
      </trkpt>
      <trkpt lat="44.73182" lon="6.66705">
        <ele>2175.973145</ele>
        <time>2011-08-11T12:46:11Z</time>
      </trkpt>
      <trkpt lat="44.73175" lon="6.66722">
        <ele>2177.324463</ele>
        <time>2011-08-11T12:46:21Z</time>
      </trkpt>
      <trkpt lat="44.73168" lon="6.66738">
        <ele>2178.38208</ele>
        <time>2011-08-11T12:46:29Z</time>
      </trkpt>
      <trkpt lat="44.73162" lon="6.66755">
        <ele>2179.202881</ele>
        <time>2011-08-11T12:46:40Z</time>
      </trkpt>
      <trkpt lat="44.73152" lon="6.66768">
        <ele>2179.675293</ele>
        <time>2011-08-11T12:46:48Z</time>
      </trkpt>
      <trkpt lat="44.73138" lon="6.66778">
        <ele>2179.920166</ele>
        <time>2011-08-11T12:46:56Z</time>
      </trkpt>
      <trkpt lat="44.73123" lon="6.66768">
        <ele>2178.509521</ele>
        <time>2011-08-11T12:47:05Z</time>
      </trkpt>
      <trkpt lat="44.73112" lon="6.66752">
        <ele>2176.316162</ele>
        <time>2011-08-11T12:47:13Z</time>
      </trkpt>
      <trkpt lat="44.73102" lon="6.66735">
        <ele>2174.147217</ele>
        <time>2011-08-11T12:47:19Z</time>
      </trkpt>
      <trkpt lat="44.7308" lon="6.66723">
        <ele>2171.045654</ele>
        <time>2011-08-11T12:47:25Z</time>
      </trkpt>
      <trkpt lat="44.73065" lon="6.66725">
        <ele>2169.043945</ele>
        <time>2011-08-11T12:47:29Z</time>
      </trkpt>
      <trkpt lat="44.73055" lon="6.66738">
        <ele>2168.873779</ele>
        <time>2011-08-11T12:47:33Z</time>
      </trkpt>
      <trkpt lat="44.73047" lon="6.6676">
        <ele>2169.81958</ele>
        <time>2011-08-11T12:47:38Z</time>
      </trkpt>
      <trkpt lat="44.73028" lon="6.66798">
        <ele>2173.070068</ele>
        <time>2011-08-11T12:47:44Z</time>
      </trkpt>
      <trkpt lat="44.73008" lon="6.66813">
        <ele>2172.241455</ele>
        <time>2011-08-11T12:47:48Z</time>
      </trkpt>
      <trkpt lat="44.72985" lon="6.66825">
        <ele>2170.442627</ele>
        <time>2011-08-11T12:47:54Z</time>
      </trkpt>
      <trkpt lat="44.72975" lon="6.6684">
        <ele>2173.731201</ele>
        <time>2011-08-11T12:47:58Z</time>
      </trkpt>
      <trkpt lat="44.7296" lon="6.66847">
        <ele>2174.610107</ele>
        <time>2011-08-11T12:48:02Z</time>
      </trkpt>
      <trkpt lat="44.7294" lon="6.66847">
        <ele>2173.270752</ele>
        <time>2011-08-11T12:48:08Z</time>
      </trkpt>
      <trkpt lat="44.72923" lon="6.6685">
        <ele>2174.529297</ele>
        <time>2011-08-11T12:48:14Z</time>
      </trkpt>
      <trkpt lat="44.72908" lon="6.66852">
        <ele>2175.270264</ele>
        <time>2011-08-11T12:48:21Z</time>
      </trkpt>
      <trkpt lat="44.72893" lon="6.66852">
        <ele>2175.568848</ele>
        <time>2011-08-11T12:48:27Z</time>
      </trkpt>
      <trkpt lat="44.7288" lon="6.66858">
        <ele>2178.587158</ele>
        <time>2011-08-11T12:48:33Z</time>
      </trkpt>
      <trkpt lat="44.72867" lon="6.66863">
        <ele>2181.270264</ele>
        <time>2011-08-11T12:48:39Z</time>
      </trkpt>
      <trkpt lat="44.72852" lon="6.66863">
        <ele>2182.35083</ele>
        <time>2011-08-11T12:48:49Z</time>
      </trkpt>
      <trkpt lat="44.72833" lon="6.66863">
        <ele>2182.759766</ele>
        <time>2011-08-11T12:49:02Z</time>
      </trkpt>
      <trkpt lat="44.72817" lon="6.66858">
        <ele>2181.349854</ele>
        <time>2011-08-11T12:49:14Z</time>
      </trkpt>
      <trkpt lat="44.72802" lon="6.66858">
        <ele>2181.793945</ele>
        <time>2011-08-11T12:49:24Z</time>
      </trkpt>
      <trkpt lat="44.72788" lon="6.66862">
        <ele>2183.445068</ele>
        <time>2011-08-11T12:49:32Z</time>
      </trkpt>
      <trkpt lat="44.72772" lon="6.66863">
        <ele>2184.594238</ele>
        <time>2011-08-11T12:49:45Z</time>
      </trkpt>
      <trkpt lat="44.72757" lon="6.66868">
        <ele>2186.285889</ele>
        <time>2011-08-11T12:49:55Z</time>
      </trkpt>
      <trkpt lat="44.72738" lon="6.66875">
        <ele>2189.134766</ele>
        <time>2011-08-11T12:50:08Z</time>
      </trkpt>
      <trkpt lat="44.72723" lon="6.66877">
        <ele>2190.300781</ele>
        <time>2011-08-11T12:50:18Z</time>
      </trkpt>
      <trkpt lat="44.72712" lon="6.66867">
        <ele>2188.806885</ele>
        <time>2011-08-11T12:50:28Z</time>
      </trkpt>
      <trkpt lat="44.72712" lon="6.66843">
        <ele>2185.633301</ele>
        <time>2011-08-11T12:50:38Z</time>
      </trkpt>
      <trkpt lat="44.72702" lon="6.66828">
        <ele>2184.5896</ele>
        <time>2011-08-11T12:50:51Z</time>
      </trkpt>
      <trkpt lat="44.7269" lon="6.66813">
        <ele>2184.047607</ele>
        <time>2011-08-11T12:51:33Z</time>
      </trkpt>
      <trkpt lat="44.7269" lon="6.66793">
        <ele>2182.694824</ele>
        <time>2011-08-11T13:11:15Z</time>
      </trkpt>
      <trkpt lat="44.72693" lon="6.6677">
        <ele>2181.509277</ele>
        <time>2011-08-11T13:11:21Z</time>
      </trkpt>
      <trkpt lat="44.72698" lon="6.6674">
        <ele>2179.968506</ele>
        <time>2011-08-11T13:11:27Z</time>
      </trkpt>
      <trkpt lat="44.727" lon="6.66717">
        <ele>2180.78418</ele>
        <time>2011-08-11T13:11:35Z</time>
      </trkpt>
      <trkpt lat="44.72695" lon="6.66697">
        <ele>2182.411865</ele>
        <time>2011-08-11T13:11:42Z</time>
      </trkpt>
      <trkpt lat="44.72685" lon="6.66668">
        <ele>2185.307373</ele>
        <time>2011-08-11T13:11:52Z</time>
      </trkpt>
      <trkpt lat="44.72672" lon="6.66663">
        <ele>2187.568848</ele>
        <time>2011-08-11T13:12:33Z</time>
      </trkpt>
      <trkpt lat="44.72653" lon="6.66673">
        <ele>2189.373291</ele>
        <time>2011-08-11T13:12:51Z</time>
      </trkpt>
      <trkpt lat="44.72642" lon="6.66687">
        <ele>2189.980469</ele>
        <time>2011-08-11T13:13:01Z</time>
      </trkpt>
      <trkpt lat="44.7264" lon="6.66708">
        <ele>2188.772461</ele>
        <time>2011-08-11T13:13:14Z</time>
      </trkpt>
      <trkpt lat="44.72627" lon="6.66715">
        <ele>2190.11377</ele>
        <time>2011-08-11T13:13:24Z</time>
      </trkpt>
      <trkpt lat="44.72617" lon="6.66728">
        <ele>2190.903564</ele>
        <time>2011-08-11T13:13:35Z</time>
      </trkpt>
      <trkpt lat="44.7261" lon="6.66745">
        <ele>2191.679688</ele>
        <time>2011-08-11T13:13:53Z</time>
      </trkpt>
      <trkpt lat="44.72605" lon="6.66772">
        <ele>2192.809814</ele>
        <time>2011-08-11T13:14:58Z</time>
      </trkpt>
      <trkpt lat="44.72603" lon="6.66792">
        <ele>2193.284912</ele>
        <time>2011-08-11T13:15:24Z</time>
      </trkpt>
      <trkpt lat="44.72603" lon="6.66812">
        <ele>2194.352295</ele>
        <time>2011-08-11T13:15:43Z</time>
      </trkpt>
      <trkpt lat="44.72607" lon="6.66832">
        <ele>2195.182861</ele>
        <time>2011-08-11T13:16:07Z</time>
      </trkpt>
      <trkpt lat="44.7261" lon="6.66852">
        <ele>2196.013672</ele>
        <time>2011-08-11T13:16:34Z</time>
      </trkpt>
      <trkpt lat="44.72613" lon="6.66872">
        <ele>2197.481201</ele>
        <time>2011-08-11T13:16:58Z</time>
      </trkpt>
      <trkpt lat="44.72632" lon="6.66868">
        <ele>2194.428223</ele>
        <time>2011-08-11T13:17:17Z</time>
      </trkpt>
      <trkpt lat="44.72645" lon="6.66862">
        <ele>2192.482178</ele>
        <time>2011-08-11T13:17:43Z</time>
      </trkpt>
      <trkpt lat="44.72662" lon="6.6686">
        <ele>2191.091064</ele>
        <time>2011-08-11T13:18:01Z</time>
      </trkpt>
      <trkpt lat="44.72672" lon="6.66888">
        <ele>2195.159424</ele>
        <time>2011-08-11T13:18:19Z</time>
      </trkpt>
      <trkpt lat="44.72665" lon="6.66905">
        <ele>2198.63208</ele>
        <time>2011-08-11T13:18:32Z</time>
      </trkpt>
      <trkpt lat="44.72648" lon="6.66918">
        <ele>2201.834717</ele>
        <time>2011-08-11T13:18:50Z</time>
      </trkpt>
      <trkpt lat="44.72635" lon="6.66925">
        <ele>2203.493408</ele>
        <time>2011-08-11T13:19:01Z</time>
      </trkpt>
      <trkpt lat="44.72623" lon="6.66935">
        <ele>2206.243164</ele>
        <time>2011-08-11T13:19:13Z</time>
      </trkpt>
      <trkpt lat="44.7261" lon="6.66942">
        <ele>2208.79126</ele>
        <time>2011-08-11T13:19:25Z</time>
      </trkpt>
      <trkpt lat="44.72595" lon="6.66945">
        <ele>2210.516602</ele>
        <time>2011-08-11T13:19:38Z</time>
      </trkpt>
      <trkpt lat="44.72582" lon="6.66953">
        <ele>2212.741943</ele>
        <time>2011-08-11T13:19:51Z</time>
      </trkpt>
      <trkpt lat="44.72568" lon="6.66963">
        <ele>2214.837646</ele>
        <time>2011-08-11T13:20:03Z</time>
      </trkpt>
      <trkpt lat="44.72553" lon="6.66978">
        <ele>2216.199463</ele>
        <time>2011-08-11T13:20:21Z</time>
      </trkpt>
      <trkpt lat="44.7254" lon="6.66992">
        <ele>2217.438721</ele>
        <time>2011-08-11T13:20:33Z</time>
      </trkpt>
      <trkpt lat="44.72525" lon="6.67007">
        <ele>2219.56958</ele>
        <time>2011-08-11T13:20:50Z</time>
      </trkpt>
      <trkpt lat="44.72513" lon="6.6702">
        <ele>2221.393555</ele>
        <time>2011-08-11T13:21:02Z</time>
      </trkpt>
      <trkpt lat="44.725" lon="6.6703">
        <ele>2221.536865</ele>
        <time>2011-08-11T13:21:15Z</time>
      </trkpt>
      <trkpt lat="44.72487" lon="6.67045">
        <ele>2221.238037</ele>
        <time>2011-08-11T13:21:32Z</time>
      </trkpt>
      <trkpt lat="44.72495" lon="6.67023">
        <ele>2220.910645</ele>
        <time>2011-08-11T13:24:04Z</time>
      </trkpt>
      <trkpt lat="44.72508" lon="6.67008">
        <ele>2220.241211</ele>
        <time>2011-08-11T13:24:08Z</time>
      </trkpt>
      <trkpt lat="44.72523" lon="6.6699">
        <ele>2217.221436</ele>
        <time>2011-08-11T13:24:14Z</time>
      </trkpt>
      <trkpt lat="44.72535" lon="6.66978">
        <ele>2215.34082</ele>
        <time>2011-08-11T13:24:18Z</time>
      </trkpt>
      <trkpt lat="44.72547" lon="6.66967">
        <ele>2215.490234</ele>
        <time>2011-08-11T13:24:25Z</time>
      </trkpt>
      <trkpt lat="44.72557" lon="6.66953">
        <ele>2214.431152</ele>
        <time>2011-08-11T13:26:01Z</time>
      </trkpt>
      <trkpt lat="44.72545" lon="6.66968">
        <ele>2215.541748</ele>
        <time>2011-08-11T13:26:19Z</time>
      </trkpt>
      <trkpt lat="44.7253" lon="6.66987">
        <ele>2215.934082</ele>
        <time>2011-08-11T13:26:31Z</time>
      </trkpt>
      <trkpt lat="44.72512" lon="6.67008">
        <ele>2220.173096</ele>
        <time>2011-08-11T13:26:48Z</time>
      </trkpt>
      <trkpt lat="44.725" lon="6.6702">
        <ele>2220.983643</ele>
        <time>2011-08-11T13:26:58Z</time>
      </trkpt>
      <trkpt lat="44.72488" lon="6.67033">
        <ele>2220.620605</ele>
        <time>2011-08-11T13:27:08Z</time>
      </trkpt>
      <trkpt lat="44.72478" lon="6.67047">
        <ele>2221.112793</ele>
        <time>2011-08-11T13:27:18Z</time>
      </trkpt>
      <trkpt lat="44.72462" lon="6.67067">
        <ele>2222.9021</ele>
        <time>2011-08-11T13:27:28Z</time>
      </trkpt>
      <trkpt lat="44.72445" lon="6.67082">
        <ele>2221.269287</ele>
        <time>2011-08-11T13:27:36Z</time>
      </trkpt>
      <trkpt lat="44.7243" lon="6.67097">
        <ele>2218.631104</ele>
        <time>2011-08-11T13:27:42Z</time>
      </trkpt>
      <trkpt lat="44.72418" lon="6.67112">
        <ele>2219.030273</ele>
        <time>2011-08-11T13:27:47Z</time>
      </trkpt>
      <trkpt lat="44.72405" lon="6.67133">
        <ele>2217.30542</ele>
        <time>2011-08-11T13:27:51Z</time>
      </trkpt>
      <trkpt lat="44.72393" lon="6.6716">
        <ele>2211.926025</ele>
        <time>2011-08-11T13:27:55Z</time>
      </trkpt>
      <trkpt lat="44.72378" lon="6.67183">
        <ele>2213.008545</ele>
        <time>2011-08-11T13:27:59Z</time>
      </trkpt>
      <trkpt lat="44.7236" lon="6.67207">
        <ele>2209.045898</ele>
        <time>2011-08-11T13:28:03Z</time>
      </trkpt>
      <trkpt lat="44.72332" lon="6.6724">
        <ele>2202.506836</ele>
        <time>2011-08-11T13:28:09Z</time>
      </trkpt>
      <trkpt lat="44.72312" lon="6.67263">
        <ele>2200.213623</ele>
        <time>2011-08-11T13:28:13Z</time>
      </trkpt>
      <trkpt lat="44.72298" lon="6.67285">
        <ele>2198.153564</ele>
        <time>2011-08-11T13:28:15Z</time>
      </trkpt>
      <trkpt lat="44.72278" lon="6.67305">
        <ele>2196.7146</ele>
        <time>2011-08-11T13:28:19Z</time>
      </trkpt>
      <trkpt lat="44.72268" lon="6.67318">
        <ele>2196.799561</ele>
        <time>2011-08-11T13:28:21Z</time>
      </trkpt>
      <trkpt lat="44.7225" lon="6.6734">
        <ele>2194.294434</ele>
        <time>2011-08-11T13:28:26Z</time>
      </trkpt>
      <trkpt lat="44.72238" lon="6.67352">
        <ele>2194.411377</ele>
        <time>2011-08-11T13:28:28Z</time>
      </trkpt>
      <trkpt lat="44.72227" lon="6.67362">
        <ele>2194.27832</ele>
        <time>2011-08-11T13:28:30Z</time>
      </trkpt>
      <trkpt lat="44.72213" lon="6.67372">
        <ele>2193.092041</ele>
        <time>2011-08-11T13:28:32Z</time>
      </trkpt>
      <trkpt lat="44.72178" lon="6.67397">
        <ele>2188.7146</ele>
        <time>2011-08-11T13:28:38Z</time>
      </trkpt>
      <trkpt lat="44.72155" lon="6.67413">
        <ele>2187.868652</ele>
        <time>2011-08-11T13:28:42Z</time>
      </trkpt>
      <trkpt lat="44.72135" lon="6.67437">
        <ele>2190.70166</ele>
        <time>2011-08-11T13:28:46Z</time>
      </trkpt>
      <trkpt lat="44.72112" lon="6.67448">
        <ele>2187.303711</ele>
        <time>2011-08-11T13:28:50Z</time>
      </trkpt>
      <trkpt lat="44.72087" lon="6.67447">
        <ele>2183.853027</ele>
        <time>2011-08-11T13:28:54Z</time>
      </trkpt>
      <trkpt lat="44.72063" lon="6.67448">
        <ele>2181.948486</ele>
        <time>2011-08-11T13:28:58Z</time>
      </trkpt>
      <trkpt lat="44.72043" lon="6.67453">
        <ele>2181.127441</ele>
        <time>2011-08-11T13:29:02Z</time>
      </trkpt>
      <trkpt lat="44.7203" lon="6.6746">
        <ele>2180.947266</ele>
        <time>2011-08-11T13:29:04Z</time>
      </trkpt>
      <trkpt lat="44.72015" lon="6.67472">
        <ele>2180.639893</ele>
        <time>2011-08-11T13:29:08Z</time>
      </trkpt>
      <trkpt lat="44.71988" lon="6.6749">
        <ele>2176.909424</ele>
        <time>2011-08-11T13:29:17Z</time>
      </trkpt>
      <trkpt lat="44.71973" lon="6.6749">
        <ele>2173.39209</ele>
        <time>2011-08-11T13:29:21Z</time>
      </trkpt>
      <trkpt lat="44.7196" lon="6.67502">
        <ele>2171.468994</ele>
        <time>2011-08-11T13:29:25Z</time>
      </trkpt>
      <trkpt lat="44.71943" lon="6.67517">
        <ele>2170.76123</ele>
        <time>2011-08-11T13:29:29Z</time>
      </trkpt>
      <trkpt lat="44.71925" lon="6.67538">
        <ele>2167.92749</ele>
        <time>2011-08-11T13:29:35Z</time>
      </trkpt>
      <trkpt lat="44.71917" lon="6.67555">
        <ele>2166.712891</ele>
        <time>2011-08-11T13:29:41Z</time>
      </trkpt>
      <trkpt lat="44.7193" lon="6.67552">
        <ele>2167.824951</ele>
        <time>2011-08-11T13:30:15Z</time>
      </trkpt>
      <trkpt lat="44.71917" lon="6.67562">
        <ele>2165.932861</ele>
        <time>2011-08-11T13:30:28Z</time>
      </trkpt>
      <trkpt lat="44.71903" lon="6.67568">
        <ele>2166.225342</ele>
        <time>2011-08-11T13:30:34Z</time>
      </trkpt>
      <trkpt lat="44.7189" lon="6.67573">
        <ele>2166.034424</ele>
        <time>2011-08-11T13:30:40Z</time>
      </trkpt>
      <trkpt lat="44.71877" lon="6.67582">
        <ele>2164.169678</ele>
        <time>2011-08-11T13:30:58Z</time>
      </trkpt>
      <trkpt lat="44.71862" lon="6.67598">
        <ele>2160.683105</ele>
        <time>2011-08-11T13:31:06Z</time>
      </trkpt>
      <trkpt lat="44.71842" lon="6.6761">
        <ele>2159.406006</ele>
        <time>2011-08-11T13:31:12Z</time>
      </trkpt>
      <trkpt lat="44.71825" lon="6.6762">
        <ele>2158.167969</ele>
        <time>2011-08-11T13:31:16Z</time>
      </trkpt>
      <trkpt lat="44.7181" lon="6.67633">
        <ele>2156.133789</ele>
        <time>2011-08-11T13:31:20Z</time>
      </trkpt>
      <trkpt lat="44.71788" lon="6.67655">
        <ele>2151.715332</ele>
        <time>2011-08-11T13:31:26Z</time>
      </trkpt>
      <trkpt lat="44.71777" lon="6.67678">
        <ele>2145.6875</ele>
        <time>2011-08-11T13:31:30Z</time>
      </trkpt>
      <trkpt lat="44.71773" lon="6.6771">
        <ele>2147.128418</ele>
        <time>2011-08-11T13:31:34Z</time>
      </trkpt>
      <trkpt lat="44.71775" lon="6.67733">
        <ele>2149.727783</ele>
        <time>2011-08-11T13:32:08Z</time>
      </trkpt>
      <trkpt lat="44.71762" lon="6.67747">
        <ele>2147.893311</ele>
        <time>2011-08-11T13:32:19Z</time>
      </trkpt>
      <trkpt lat="44.71748" lon="6.6776">
        <ele>2146.863525</ele>
        <time>2011-08-11T13:32:27Z</time>
      </trkpt>
      <trkpt lat="44.71733" lon="6.67782">
        <ele>2145.816895</ele>
        <time>2011-08-11T13:32:35Z</time>
      </trkpt>
      <trkpt lat="44.71723" lon="6.67798">
        <ele>2145.808105</ele>
        <time>2011-08-11T13:32:57Z</time>
      </trkpt>
      <trkpt lat="44.7171" lon="6.6781">
        <ele>2145.46167</ele>
        <time>2011-08-11T13:33:02Z</time>
      </trkpt>
      <trkpt lat="44.71688" lon="6.67817">
        <ele>2142.455078</ele>
        <time>2011-08-11T13:33:06Z</time>
      </trkpt>
      <trkpt lat="44.71665" lon="6.67818">
        <ele>2137.997803</ele>
        <time>2011-08-11T13:33:10Z</time>
      </trkpt>
      <trkpt lat="44.7164" lon="6.67822">
        <ele>2133.915771</ele>
        <time>2011-08-11T13:33:14Z</time>
      </trkpt>
      <trkpt lat="44.71613" lon="6.67825">
        <ele>2130.429199</ele>
        <time>2011-08-11T13:33:18Z</time>
      </trkpt>
      <trkpt lat="44.71587" lon="6.67823">
        <ele>2125.450684</ele>
        <time>2011-08-11T13:33:22Z</time>
      </trkpt>
      <trkpt lat="44.71537" lon="6.6782">
        <ele>2118.050049</ele>
        <time>2011-08-11T13:33:30Z</time>
      </trkpt>
      <trkpt lat="44.71513" lon="6.67815">
        <ele>2115.195557</ele>
        <time>2011-08-11T13:33:34Z</time>
      </trkpt>
      <trkpt lat="44.71487" lon="6.67807">
        <ele>2112.247314</ele>
        <time>2011-08-11T13:33:40Z</time>
      </trkpt>
      <trkpt lat="44.71497" lon="6.67793">
        <ele>2109.148682</ele>
        <time>2011-08-11T13:35:59Z</time>
      </trkpt>
      <trkpt lat="44.71513" lon="6.67782">
        <ele>2106.89209</ele>
        <time>2011-08-11T13:36:05Z</time>
      </trkpt>
      <trkpt lat="44.71533" lon="6.67762">
        <ele>2102.371582</ele>
        <time>2011-08-11T13:36:11Z</time>
      </trkpt>
      <trkpt lat="44.71552" lon="6.67745">
        <ele>2098.680908</ele>
        <time>2011-08-11T13:36:15Z</time>
      </trkpt>
      <trkpt lat="44.71583" lon="6.67715">
        <ele>2093.72583</ele>
        <time>2011-08-11T13:36:23Z</time>
      </trkpt>
      <trkpt lat="44.71595" lon="6.67693">
        <ele>2089.093506</ele>
        <time>2011-08-11T13:36:27Z</time>
      </trkpt>
      <trkpt lat="44.71607" lon="6.6767">
        <ele>2084.628662</ele>
        <time>2011-08-11T13:36:32Z</time>
      </trkpt>
      <trkpt lat="44.71622" lon="6.67648">
        <ele>2081.128906</ele>
        <time>2011-08-11T13:36:36Z</time>
      </trkpt>
      <trkpt lat="44.7164" lon="6.67643">
        <ele>2082.842529</ele>
        <time>2011-08-11T13:36:40Z</time>
      </trkpt>
      <trkpt lat="44.71657" lon="6.67628">
        <ele>2082.312988</ele>
        <time>2011-08-11T13:36:44Z</time>
      </trkpt>
      <trkpt lat="44.71668" lon="6.67605">
        <ele>2079.97998</ele>
        <time>2011-08-11T13:36:48Z</time>
      </trkpt>
      <trkpt lat="44.71678" lon="6.67582">
        <ele>2080.318604</ele>
        <time>2011-08-11T13:36:52Z</time>
      </trkpt>
      <trkpt lat="44.71683" lon="6.67562">
        <ele>2078.214844</ele>
        <time>2011-08-11T13:36:54Z</time>
      </trkpt>
      <trkpt lat="44.7169" lon="6.6753">
        <ele>2076.133545</ele>
        <time>2011-08-11T13:36:58Z</time>
      </trkpt>
      <trkpt lat="44.71692" lon="6.67508">
        <ele>2074.89624</ele>
        <time>2011-08-11T13:37:02Z</time>
      </trkpt>
      <trkpt lat="44.71683" lon="6.67483">
        <ele>2072.840576</ele>
        <time>2011-08-11T13:37:19Z</time>
      </trkpt>
      <trkpt lat="44.71665" lon="6.67485">
        <ele>2070.817871</ele>
        <time>2011-08-11T13:37:29Z</time>
      </trkpt>
      <trkpt lat="44.7165" lon="6.67495">
        <ele>2068.118164</ele>
        <time>2011-08-11T13:37:35Z</time>
      </trkpt>
      <trkpt lat="44.71633" lon="6.67505">
        <ele>2064.018555</ele>
        <time>2011-08-11T13:37:41Z</time>
      </trkpt>
      <trkpt lat="44.71613" lon="6.67518">
        <ele>2058.625244</ele>
        <time>2011-08-11T13:37:49Z</time>
      </trkpt>
      <trkpt lat="44.71588" lon="6.67532">
        <ele>2050.905029</ele>
        <time>2011-08-11T13:37:55Z</time>
      </trkpt>
      <trkpt lat="44.71575" lon="6.67537">
        <ele>2047.148193</ele>
        <time>2011-08-11T13:38:22Z</time>
      </trkpt>
      <trkpt lat="44.71562" lon="6.6754">
        <ele>2044.160645</ele>
        <time>2011-08-11T13:38:28Z</time>
      </trkpt>
      <trkpt lat="44.71548" lon="6.67543">
        <ele>2042.218872</ele>
        <time>2011-08-11T13:38:32Z</time>
      </trkpt>
      <trkpt lat="44.71535" lon="6.67548">
        <ele>2040.803589</ele>
        <time>2011-08-11T13:38:36Z</time>
      </trkpt>
      <trkpt lat="44.71513" lon="6.67555">
        <ele>2038.692627</ele>
        <time>2011-08-11T13:38:43Z</time>
      </trkpt>
      <trkpt lat="44.71498" lon="6.67553">
        <ele>2036.43457</ele>
        <time>2011-08-11T13:38:47Z</time>
      </trkpt>
      <trkpt lat="44.71468" lon="6.6755">
        <ele>2032.116943</ele>
        <time>2011-08-11T13:38:53Z</time>
      </trkpt>
      <trkpt lat="44.71453" lon="6.67543">
        <ele>2029.258179</ele>
        <time>2011-08-11T13:38:57Z</time>
      </trkpt>
      <trkpt lat="44.7144" lon="6.67538">
        <ele>2026.944946</ele>
        <time>2011-08-11T13:39:01Z</time>
      </trkpt>
      <trkpt lat="44.71418" lon="6.67528">
        <ele>2022.524536</ele>
        <time>2011-08-11T13:39:07Z</time>
      </trkpt>
      <trkpt lat="44.71407" lon="6.67518">
        <ele>2019.345337</ele>
        <time>2011-08-11T13:39:11Z</time>
      </trkpt>
      <trkpt lat="44.71393" lon="6.67508">
        <ele>2015.824585</ele>
        <time>2011-08-11T13:39:15Z</time>
      </trkpt>
      <trkpt lat="44.71373" lon="6.67492">
        <ele>2007.965942</ele>
        <time>2011-08-11T13:39:21Z</time>
      </trkpt>
      <trkpt lat="44.71358" lon="6.67483">
        <ele>2001.928833</ele>
        <time>2011-08-11T13:39:25Z</time>
      </trkpt>
      <trkpt lat="44.71343" lon="6.67467">
        <ele>1993.288818</ele>
        <time>2011-08-11T13:40:25Z</time>
      </trkpt>
      <trkpt lat="44.71337" lon="6.6745">
        <ele>1988.651489</ele>
        <time>2011-08-11T13:40:30Z</time>
      </trkpt>
      <trkpt lat="44.71332" lon="6.67423">
        <ele>1986.713135</ele>
        <time>2011-08-11T13:40:36Z</time>
      </trkpt>
      <trkpt lat="44.71328" lon="6.67402">
        <ele>1985.484741</ele>
        <time>2011-08-11T13:40:54Z</time>
      </trkpt>
      <trkpt lat="44.71315" lon="6.67388">
        <ele>1982.847412</ele>
        <time>2011-08-11T13:41:12Z</time>
      </trkpt>
      <trkpt lat="44.71332" lon="6.674">
        <ele>1986.285889</ele>
        <time>2011-08-11T13:41:46Z</time>
      </trkpt>
      <trkpt lat="44.71315" lon="6.6739">
        <ele>1982.563477</ele>
        <time>2011-08-11T13:41:52Z</time>
      </trkpt>
      <trkpt lat="44.713" lon="6.67385">
        <ele>1979.50769</ele>
        <time>2011-08-11T13:41:56Z</time>
      </trkpt>
      <trkpt lat="44.71282" lon="6.67375">
        <ele>1976.807739</ele>
        <time>2011-08-11T13:42:00Z</time>
      </trkpt>
      <trkpt lat="44.7127" lon="6.67362">
        <ele>1976.265503</ele>
        <time>2011-08-11T13:42:04Z</time>
      </trkpt>
      <trkpt lat="44.7125" lon="6.67342">
        <ele>1974.894531</ele>
        <time>2011-08-11T13:42:10Z</time>
      </trkpt>
      <trkpt lat="44.71232" lon="6.67342">
        <ele>1970.698853</ele>
        <time>2011-08-11T13:42:17Z</time>
      </trkpt>
      <trkpt lat="44.71217" lon="6.67338">
        <ele>1967.786499</ele>
        <time>2011-08-11T13:42:23Z</time>
      </trkpt>
      <trkpt lat="44.7121" lon="6.67322">
        <ele>1968.733398</ele>
        <time>2011-08-11T13:42:31Z</time>
      </trkpt>
      <trkpt lat="44.71208" lon="6.673">
        <ele>1970.853271</ele>
        <time>2011-08-11T13:43:03Z</time>
      </trkpt>
      <trkpt lat="44.71195" lon="6.67295">
        <ele>1968.051147</ele>
        <time>2011-08-11T13:44:23Z</time>
      </trkpt>
      <trkpt lat="44.71177" lon="6.67292">
        <ele>1963.783813</ele>
        <time>2011-08-11T13:44:29Z</time>
      </trkpt>
      <trkpt lat="44.71155" lon="6.67283">
        <ele>1959.717773</ele>
        <time>2011-08-11T13:44:37Z</time>
      </trkpt>
      <trkpt lat="44.7114" lon="6.67282">
        <ele>1956.688232</ele>
        <time>2011-08-11T13:45:36Z</time>
      </trkpt>
      <trkpt lat="44.71128" lon="6.67292">
        <ele>1952.241577</ele>
        <time>2011-08-11T13:45:56Z</time>
      </trkpt>
      <trkpt lat="44.71117" lon="6.67308">
        <ele>1946.294556</ele>
        <time>2011-08-11T13:46:14Z</time>
      </trkpt>
      <trkpt lat="44.71108" lon="6.67323">
        <ele>1941.566895</ele>
        <time>2011-08-11T13:46:34Z</time>
      </trkpt>
      <trkpt lat="44.71102" lon="6.6734">
        <ele>1936.83667</ele>
        <time>2011-08-11T13:47:17Z</time>
      </trkpt>
      <trkpt lat="44.71103" lon="6.67362">
        <ele>1933.054321</ele>
        <time>2011-08-11T13:47:27Z</time>
      </trkpt>
      <trkpt lat="44.7111" lon="6.67378">
        <ele>1931.61438</ele>
        <time>2011-08-11T13:47:35Z</time>
      </trkpt>
      <trkpt lat="44.71103" lon="6.67398">
        <ele>1926.388184</ele>
        <time>2011-08-11T13:47:43Z</time>
      </trkpt>
      <trkpt lat="44.71095" lon="6.67413">
        <ele>1921.706909</ele>
        <time>2011-08-11T13:47:49Z</time>
      </trkpt>
      <trkpt lat="44.71085" lon="6.67432">
        <ele>1916.145142</ele>
        <time>2011-08-11T13:47:55Z</time>
      </trkpt>
      <trkpt lat="44.71072" lon="6.67445">
        <ele>1912.790405</ele>
        <time>2011-08-11T13:48:01Z</time>
      </trkpt>
      <trkpt lat="44.71058" lon="6.67455">
        <ele>1911.627075</ele>
        <time>2011-08-11T13:48:07Z</time>
      </trkpt>
      <trkpt lat="44.7105" lon="6.67475">
        <ele>1911.674316</ele>
        <time>2011-08-11T13:48:25Z</time>
      </trkpt>
      <trkpt lat="44.71042" lon="6.67493">
        <ele>1911.296265</ele>
        <time>2011-08-11T13:48:55Z</time>
      </trkpt>
      <trkpt lat="44.71025" lon="6.675">
        <ele>1908.955078</ele>
        <time>2011-08-11T13:49:03Z</time>
      </trkpt>
      <trkpt lat="44.71007" lon="6.67502">
        <ele>1905.856323</ele>
        <time>2011-08-11T13:49:11Z</time>
      </trkpt>
      <trkpt lat="44.70993" lon="6.67498">
        <ele>1902.679932</ele>
        <time>2011-08-11T13:49:15Z</time>
      </trkpt>
      <trkpt lat="44.70978" lon="6.67497">
        <ele>1899.537231</ele>
        <time>2011-08-11T13:49:19Z</time>
      </trkpt>
      <trkpt lat="44.70962" lon="6.67498">
        <ele>1896.65625</ele>
        <time>2011-08-11T13:49:23Z</time>
      </trkpt>
      <trkpt lat="44.70945" lon="6.67498">
        <ele>1893.442017</ele>
        <time>2011-08-11T13:49:27Z</time>
      </trkpt>
      <trkpt lat="44.70927" lon="6.67498">
        <ele>1890.384155</ele>
        <time>2011-08-11T13:49:31Z</time>
      </trkpt>
      <trkpt lat="44.7091" lon="6.675">
        <ele>1888.407715</ele>
        <time>2011-08-11T13:49:35Z</time>
      </trkpt>
      <trkpt lat="44.70895" lon="6.67495">
        <ele>1886.080078</ele>
        <time>2011-08-11T13:49:43Z</time>
      </trkpt>
      <trkpt lat="44.7088" lon="6.67503">
        <ele>1884.624878</ele>
        <time>2011-08-11T13:49:51Z</time>
      </trkpt>
      <trkpt lat="44.70865" lon="6.6751">
        <ele>1882.791138</ele>
        <time>2011-08-11T13:49:57Z</time>
      </trkpt>
      <trkpt lat="44.7085" lon="6.67512">
        <ele>1880.671509</ele>
        <time>2011-08-11T13:50:01Z</time>
      </trkpt>
      <trkpt lat="44.70837" lon="6.67515">
        <ele>1878.31311</ele>
        <time>2011-08-11T13:50:05Z</time>
      </trkpt>
      <trkpt lat="44.70823" lon="6.6752">
        <ele>1875.408325</ele>
        <time>2011-08-11T13:50:11Z</time>
      </trkpt>
      <trkpt lat="44.7081" lon="6.67528">
        <ele>1871.795654</ele>
        <time>2011-08-11T13:50:17Z</time>
      </trkpt>
      <trkpt lat="44.70795" lon="6.67527">
        <ele>1869.050903</ele>
        <time>2011-08-11T13:50:25Z</time>
      </trkpt>
      <trkpt lat="44.70782" lon="6.6752">
        <ele>1868.039551</ele>
        <time>2011-08-11T13:51:08Z</time>
      </trkpt>
      <trkpt lat="44.70765" lon="6.67518">
        <ele>1865.75293</ele>
        <time>2011-08-11T13:51:26Z</time>
      </trkpt>
      <trkpt lat="44.7075" lon="6.67517">
        <ele>1863.837158</ele>
        <time>2011-08-11T13:51:52Z</time>
      </trkpt>
      <trkpt lat="44.70735" lon="6.6752">
        <ele>1861.490967</ele>
        <time>2011-08-11T13:52:22Z</time>
      </trkpt>
      <trkpt lat="44.70717" lon="6.6752">
        <ele>1859.406128</ele>
        <time>2011-08-11T13:52:39Z</time>
      </trkpt>
      <trkpt lat="44.70688" lon="6.67523">
        <ele>1855.428955</ele>
        <time>2011-08-11T13:52:49Z</time>
      </trkpt>
      <trkpt lat="44.70675" lon="6.6752">
        <ele>1854.223022</ele>
        <time>2011-08-11T13:52:53Z</time>
      </trkpt>
      <trkpt lat="44.70655" lon="6.6752">
        <ele>1851.305786</ele>
        <time>2011-08-11T13:53:00Z</time>
      </trkpt>
      <trkpt lat="44.70605" lon="6.67525">
        <ele>1842.048096</ele>
        <time>2011-08-11T13:53:10Z</time>
      </trkpt>
      <trkpt lat="44.70583" lon="6.67525">
        <ele>1839.320435</ele>
        <time>2011-08-11T13:53:14Z</time>
      </trkpt>
      <trkpt lat="44.70568" lon="6.67528">
        <ele>1836.863647</ele>
        <time>2011-08-11T13:53:18Z</time>
      </trkpt>
      <trkpt lat="44.70552" lon="6.67528">
        <ele>1834.942505</ele>
        <time>2011-08-11T13:54:02Z</time>
      </trkpt>
      <trkpt lat="44.70538" lon="6.67542">
        <ele>1829.920654</ele>
        <time>2011-08-11T13:54:06Z</time>
      </trkpt>
      <trkpt lat="44.70523" lon="6.67555">
        <ele>1823.450073</ele>
        <time>2011-08-11T13:54:23Z</time>
      </trkpt>
      <trkpt lat="44.70508" lon="6.67563">
        <ele>1817.133545</ele>
        <time>2011-08-11T13:54:31Z</time>
      </trkpt>
      <trkpt lat="44.70495" lon="6.67573">
        <ele>1812.012451</ele>
        <time>2011-08-11T13:54:37Z</time>
      </trkpt>
      <trkpt lat="44.70482" lon="6.6758">
        <ele>1808.362427</ele>
        <time>2011-08-11T13:54:41Z</time>
      </trkpt>
      <trkpt lat="44.70468" lon="6.67572">
        <ele>1804.817139</ele>
        <time>2011-08-11T13:54:47Z</time>
      </trkpt>
      <trkpt lat="44.70462" lon="6.6755">
        <ele>1804.489136</ele>
        <time>2011-08-11T13:54:55Z</time>
      </trkpt>
      <trkpt lat="44.70455" lon="6.67533">
        <ele>1803.611572</ele>
        <time>2011-08-11T13:55:07Z</time>
      </trkpt>
      <trkpt lat="44.70445" lon="6.67548">
        <ele>1798.781128</ele>
        <time>2011-08-11T13:55:15Z</time>
      </trkpt>
      <trkpt lat="44.70437" lon="6.67563">
        <ele>1794.630493</ele>
        <time>2011-08-11T13:55:22Z</time>
      </trkpt>
      <trkpt lat="44.70427" lon="6.67577">
        <ele>1791.085449</ele>
        <time>2011-08-11T13:55:28Z</time>
      </trkpt>
      <trkpt lat="44.70415" lon="6.67592">
        <ele>1786.877197</ele>
        <time>2011-08-11T13:55:36Z</time>
      </trkpt>
      <trkpt lat="44.70403" lon="6.67602">
        <ele>1782.217407</ele>
        <time>2011-08-11T13:55:46Z</time>
      </trkpt>
      <trkpt lat="44.7039" lon="6.67612">
        <ele>1776.186157</ele>
        <time>2011-08-11T13:56:18Z</time>
      </trkpt>
      <trkpt lat="44.7038" lon="6.67597">
        <ele>1775.89856</ele>
        <time>2011-08-11T13:57:00Z</time>
      </trkpt>
      <trkpt lat="44.70365" lon="6.676">
        <ele>1770.610718</ele>
        <time>2011-08-11T13:57:34Z</time>
      </trkpt>
      <trkpt lat="44.70352" lon="6.67603">
        <ele>1765.445313</ele>
        <time>2011-08-11T13:57:47Z</time>
      </trkpt>
      <trkpt lat="44.70333" lon="6.67605">
        <ele>1759.037598</ele>
        <time>2011-08-11T13:58:05Z</time>
      </trkpt>
      <trkpt lat="44.70318" lon="6.6761">
        <ele>1752.715576</ele>
        <time>2011-08-11T13:58:15Z</time>
      </trkpt>
      <trkpt lat="44.70303" lon="6.67605">
        <ele>1749.605225</ele>
        <time>2011-08-11T13:59:04Z</time>
      </trkpt>
      <trkpt lat="44.7029" lon="6.67602">
        <ele>1746.590088</ele>
        <time>2011-08-11T13:59:14Z</time>
      </trkpt>
      <trkpt lat="44.70273" lon="6.67598">
        <ele>1742.466919</ele>
        <time>2011-08-11T13:59:22Z</time>
      </trkpt>
      <trkpt lat="44.70258" lon="6.67582">
        <ele>1741.38147</ele>
        <time>2011-08-11T13:59:28Z</time>
      </trkpt>
      <trkpt lat="44.70247" lon="6.6757">
        <ele>1739.604004</ele>
        <time>2011-08-11T14:00:00Z</time>
      </trkpt>
      <trkpt lat="44.70237" lon="6.67548">
        <ele>1740.472778</ele>
        <time>2011-08-11T14:00:09Z</time>
      </trkpt>
      <trkpt lat="44.70227" lon="6.6753">
        <ele>1739.964478</ele>
        <time>2011-08-11T14:00:13Z</time>
      </trkpt>
      <trkpt lat="44.70217" lon="6.67517">
        <ele>1737.774658</ele>
        <time>2011-08-11T14:00:17Z</time>
      </trkpt>
      <trkpt lat="44.70207" lon="6.67503">
        <ele>1739.924316</ele>
        <time>2011-08-11T14:00:23Z</time>
      </trkpt>
      <trkpt lat="44.7021" lon="6.67482">
        <ele>1744.175171</ele>
        <time>2011-08-11T14:01:42Z</time>
      </trkpt>
      <trkpt lat="44.70198" lon="6.67495">
        <ele>1744.49353</ele>
        <time>2011-08-11T14:02:06Z</time>
      </trkpt>
      <trkpt lat="44.70185" lon="6.6751">
        <ele>1744.467407</ele>
        <time>2011-08-11T14:02:24Z</time>
      </trkpt>
      <trkpt lat="44.70168" lon="6.67517">
        <ele>1746.281738</ele>
        <time>2011-08-11T14:03:29Z</time>
      </trkpt>
      <trkpt lat="44.70155" lon="6.67528">
        <ele>1747.144897</ele>
        <time>2011-08-11T14:03:35Z</time>
      </trkpt>
      <trkpt lat="44.70148" lon="6.67545">
        <ele>1744.833984</ele>
        <time>2011-08-11T14:04:23Z</time>
      </trkpt>
      <trkpt lat="44.70138" lon="6.6756">
        <ele>1744.787842</ele>
        <time>2011-08-11T14:04:31Z</time>
      </trkpt>
      <trkpt lat="44.70123" lon="6.67567">
        <ele>1749.387573</ele>
        <time>2011-08-11T14:06:54Z</time>
      </trkpt>
      <trkpt lat="44.70112" lon="6.6759">
        <ele>1738.827881</ele>
        <time>2011-08-11T14:07:12Z</time>
      </trkpt>
      <trkpt lat="44.70097" lon="6.67587">
        <ele>1736.926514</ele>
        <time>2011-08-11T14:07:25Z</time>
      </trkpt>
      <trkpt lat="44.70085" lon="6.67575">
        <ele>1738.124634</ele>
        <time>2011-08-11T14:07:31Z</time>
      </trkpt>
      <trkpt lat="44.70068" lon="6.67563">
        <ele>1734.647705</ele>
        <time>2011-08-11T14:07:37Z</time>
      </trkpt>
      <trkpt lat="44.70058" lon="6.6755">
        <ele>1731.869385</ele>
        <time>2011-08-11T14:07:41Z</time>
      </trkpt>
      <trkpt lat="44.70048" lon="6.67533">
        <ele>1730.627686</ele>
        <time>2011-08-11T14:07:47Z</time>
      </trkpt>
      <trkpt lat="44.70037" lon="6.67515">
        <ele>1730.474731</ele>
        <time>2011-08-11T14:07:54Z</time>
      </trkpt>
      <trkpt lat="44.70022" lon="6.67505">
        <ele>1730.717773</ele>
        <time>2011-08-11T14:08:00Z</time>
      </trkpt>
      <trkpt lat="44.70005" lon="6.67503">
        <ele>1729.094238</ele>
        <time>2011-08-11T14:08:08Z</time>
      </trkpt>
      <trkpt lat="44.6999" lon="6.67498">
        <ele>1729.287598</ele>
        <time>2011-08-11T14:08:16Z</time>
      </trkpt>
      <trkpt lat="44.69972" lon="6.6749">
        <ele>1738.708862</ele>
        <time>2011-08-11T14:08:42Z</time>
      </trkpt>
      <trkpt lat="44.69958" lon="6.67493">
        <ele>1741.718628</ele>
        <time>2011-08-11T14:08:59Z</time>
      </trkpt>
      <trkpt lat="44.6995" lon="6.67508">
        <ele>1737.458862</ele>
        <time>2011-08-11T14:09:09Z</time>
      </trkpt>
      <trkpt lat="44.69938" lon="6.67522">
        <ele>1734.928345</ele>
        <time>2011-08-11T14:09:19Z</time>
      </trkpt>
      <trkpt lat="44.69923" lon="6.6753">
        <ele>1734.855957</ele>
        <time>2011-08-11T14:09:27Z</time>
      </trkpt>
      <trkpt lat="44.69908" lon="6.67528">
        <ele>1739.52832</ele>
        <time>2011-08-11T14:09:33Z</time>
      </trkpt>
      <trkpt lat="44.6989" lon="6.67533">
        <ele>1740.530518</ele>
        <time>2011-08-11T14:09:42Z</time>
      </trkpt>
      <trkpt lat="44.69872" lon="6.67537">
        <ele>1740.340942</ele>
        <time>2011-08-11T14:09:48Z</time>
      </trkpt>
      <trkpt lat="44.69857" lon="6.6754">
        <ele>1740.092529</ele>
        <time>2011-08-11T14:09:56Z</time>
      </trkpt>
      <trkpt lat="44.69842" lon="6.67543">
        <ele>1741.077148</ele>
        <time>2011-08-11T14:10:06Z</time>
      </trkpt>
      <trkpt lat="44.69827" lon="6.67545">
        <ele>1743.427368</ele>
        <time>2011-08-11T14:10:14Z</time>
      </trkpt>
      <trkpt lat="44.69812" lon="6.67547">
        <ele>1745.747925</ele>
        <time>2011-08-11T14:10:24Z</time>
      </trkpt>
      <trkpt lat="44.69795" lon="6.67545">
        <ele>1750.032227</ele>
        <time>2011-08-11T14:10:51Z</time>
      </trkpt>
      <trkpt lat="44.69782" lon="6.67552">
        <ele>1749.955322</ele>
        <time>2011-08-11T14:11:09Z</time>
      </trkpt>
      <trkpt lat="44.69762" lon="6.67557">
        <ele>1752.163574</ele>
        <time>2011-08-11T14:12:09Z</time>
      </trkpt>
      <trkpt lat="44.69753" lon="6.67573">
        <ele>1743.885742</ele>
        <time>2011-08-11T14:12:26Z</time>
      </trkpt>
      <trkpt lat="44.69738" lon="6.67573">
        <ele>1740.658325</ele>
        <time>2011-08-11T14:12:38Z</time>
      </trkpt>
      <trkpt lat="44.69725" lon="6.67567">
        <ele>1740.520508</ele>
        <time>2011-08-11T14:12:48Z</time>
      </trkpt>
      <trkpt lat="44.69715" lon="6.6755">
        <ele>1745.009644</ele>
        <time>2011-08-11T14:12:58Z</time>
      </trkpt>
      <trkpt lat="44.69705" lon="6.67532">
        <ele>1748.41626</ele>
        <time>2011-08-11T14:13:06Z</time>
      </trkpt>
      <trkpt lat="44.69692" lon="6.6751">
        <ele>1750.811401</ele>
        <time>2011-08-11T14:13:16Z</time>
      </trkpt>
      <trkpt lat="44.69682" lon="6.67492">
        <ele>1753.62793</ele>
        <time>2011-08-11T14:13:22Z</time>
      </trkpt>
      <trkpt lat="44.6967" lon="6.67477">
        <ele>1757.602295</ele>
        <time>2011-08-11T14:13:28Z</time>
      </trkpt>
      <trkpt lat="44.69653" lon="6.6747">
        <ele>1765.44165</ele>
        <time>2011-08-11T14:13:35Z</time>
      </trkpt>
      <trkpt lat="44.6964" lon="6.67482">
        <ele>1766.142334</ele>
        <time>2011-08-11T14:13:41Z</time>
      </trkpt>
      <trkpt lat="44.6963" lon="6.67495">
        <ele>1766.078979</ele>
        <time>2011-08-11T14:13:47Z</time>
      </trkpt>
      <trkpt lat="44.69617" lon="6.6751">
        <ele>1766.564209</ele>
        <time>2011-08-11T14:13:55Z</time>
      </trkpt>
      <trkpt lat="44.69607" lon="6.67528">
        <ele>1762.851196</ele>
        <time>2011-08-11T14:14:03Z</time>
      </trkpt>
      <trkpt lat="44.69597" lon="6.67545">
        <ele>1759.744629</ele>
        <time>2011-08-11T14:14:09Z</time>
      </trkpt>
      <trkpt lat="44.69587" lon="6.67565">
        <ele>1755.746338</ele>
        <time>2011-08-11T14:14:15Z</time>
      </trkpt>
      <trkpt lat="44.69577" lon="6.67578">
        <ele>1753.265259</ele>
        <time>2011-08-11T14:14:19Z</time>
      </trkpt>
      <trkpt lat="44.69562" lon="6.67578">
        <ele>1752.361694</ele>
        <time>2011-08-11T14:14:25Z</time>
      </trkpt>
      <trkpt lat="44.69548" lon="6.67562">
        <ele>1757.733765</ele>
        <time>2011-08-11T14:14:31Z</time>
      </trkpt>
      <trkpt lat="44.69538" lon="6.67548">
        <ele>1762.984619</ele>
        <time>2011-08-11T14:14:38Z</time>
      </trkpt>
      <trkpt lat="44.69525" lon="6.67543">
        <ele>1769.98938</ele>
        <time>2011-08-11T14:15:00Z</time>
      </trkpt>
      <trkpt lat="44.69505" lon="6.67555">
        <ele>1773.322266</ele>
        <time>2011-08-11T14:15:46Z</time>
      </trkpt>
      <trkpt lat="44.69493" lon="6.6757">
        <ele>1771.110962</ele>
        <time>2011-08-11T14:15:56Z</time>
      </trkpt>
      <trkpt lat="44.69482" lon="6.6758">
        <ele>1769.12915</ele>
        <time>2011-08-11T14:16:04Z</time>
      </trkpt>
      <trkpt lat="44.69468" lon="6.67587">
        <ele>1767.900024</ele>
        <time>2011-08-11T14:16:14Z</time>
      </trkpt>
      <trkpt lat="44.69453" lon="6.67592">
        <ele>1767.509277</ele>
        <time>2011-08-11T14:16:26Z</time>
      </trkpt>
      <trkpt lat="44.69437" lon="6.67583">
        <ele>1773.379639</ele>
        <time>2011-08-11T14:16:43Z</time>
      </trkpt>
      <trkpt lat="44.69422" lon="6.67575">
        <ele>1777.921875</ele>
        <time>2011-08-11T14:17:01Z</time>
      </trkpt>
      <trkpt lat="44.69408" lon="6.6757">
        <ele>1780.658936</ele>
        <time>2011-08-11T14:17:49Z</time>
      </trkpt>
      <trkpt lat="44.69393" lon="6.6757">
        <ele>1780.419556</ele>
        <time>2011-08-11T14:18:07Z</time>
      </trkpt>
      <trkpt lat="44.69372" lon="6.67568">
        <ele>1780.41333</ele>
        <time>2011-08-11T14:18:58Z</time>
      </trkpt>
      <trkpt lat="44.69353" lon="6.67568">
        <ele>1779.565552</ele>
        <time>2011-08-11T14:19:16Z</time>
      </trkpt>
      <trkpt lat="44.69338" lon="6.67563">
        <ele>1780.660645</ele>
        <time>2011-08-11T14:19:28Z</time>
      </trkpt>
      <trkpt lat="44.69327" lon="6.67553">
        <ele>1784.717651</ele>
        <time>2011-08-11T14:19:36Z</time>
      </trkpt>
      <trkpt lat="44.69315" lon="6.67542">
        <ele>1789.581177</ele>
        <time>2011-08-11T14:19:48Z</time>
      </trkpt>
      <trkpt lat="44.69297" lon="6.67535">
        <ele>1789.717285</ele>
        <time>2011-08-11T14:20:32Z</time>
      </trkpt>
      <trkpt lat="44.69282" lon="6.6752">
        <ele>1793.915405</ele>
        <time>2011-08-11T14:20:57Z</time>
      </trkpt>
      <trkpt lat="44.69258" lon="6.67503">
        <ele>1800.695313</ele>
        <time>2011-08-11T14:22:03Z</time>
      </trkpt>
      <trkpt lat="44.69243" lon="6.67505">
        <ele>1804.337769</ele>
        <time>2011-08-11T14:22:21Z</time>
      </trkpt>
      <trkpt lat="44.69225" lon="6.67512">
        <ele>1808.769165</ele>
        <time>2011-08-11T14:22:39Z</time>
      </trkpt>
      <trkpt lat="44.69222" lon="6.67533">
        <ele>1806.462402</ele>
        <time>2011-08-11T14:25:27Z</time>
      </trkpt>
      <trkpt lat="44.69213" lon="6.67557">
        <ele>1808.571045</ele>
        <time>2011-08-11T14:25:49Z</time>
      </trkpt>
      <trkpt lat="44.69192" lon="6.67583">
        <ele>1818.046387</ele>
        <time>2011-08-11T14:26:34Z</time>
      </trkpt>
      <trkpt lat="44.69183" lon="6.676">
        <ele>1819.829834</ele>
        <time>2011-08-11T14:26:52Z</time>
      </trkpt>
      <trkpt lat="44.69168" lon="6.67613">
        <ele>1825.398682</ele>
        <time>2011-08-11T14:27:16Z</time>
      </trkpt>
      <trkpt lat="44.69157" lon="6.67627">
        <ele>1829.415527</ele>
        <time>2011-08-11T14:27:48Z</time>
      </trkpt>
      <trkpt lat="44.6914" lon="6.67643">
        <ele>1834.578125</ele>
        <time>2011-08-11T14:28:07Z</time>
      </trkpt>
      <trkpt lat="44.69128" lon="6.67657">
        <ele>1837.022339</ele>
        <time>2011-08-11T14:28:25Z</time>
      </trkpt>
      <trkpt lat="44.69098" lon="6.67703">
        <ele>1850.458008</ele>
        <time>2011-08-11T14:30:03Z</time>
      </trkpt>
      <trkpt lat="44.69073" lon="6.67743">
        <ele>1862.407104</ele>
        <time>2011-08-11T14:30:55Z</time>
      </trkpt>
      <trkpt lat="44.69038" lon="6.67782">
        <ele>1872.734863</ele>
        <time>2011-08-11T14:32:13Z</time>
      </trkpt>
      <trkpt lat="44.69022" lon="6.67787">
        <ele>1872.675659</ele>
        <time>2011-08-11T14:32:31Z</time>
      </trkpt>
      <trkpt lat="44.69008" lon="6.67777">
        <ele>1873.275269</ele>
        <time>2011-08-11T14:32:48Z</time>
      </trkpt>
      <trkpt lat="44.6899" lon="6.67782">
        <ele>1869.339966</ele>
        <time>2011-08-11T14:33:58Z</time>
      </trkpt>
      <trkpt lat="44.68975" lon="6.67777">
        <ele>1867.125244</ele>
        <time>2011-08-11T14:34:04Z</time>
      </trkpt>
      <trkpt lat="44.6896" lon="6.67772">
        <ele>1864.579956</ele>
        <time>2011-08-11T14:34:08Z</time>
      </trkpt>
      <trkpt lat="44.6894" lon="6.6777">
        <ele>1859.269897</ele>
        <time>2011-08-11T14:34:12Z</time>
      </trkpt>
      <trkpt lat="44.68923" lon="6.67765">
        <ele>1858.515747</ele>
        <time>2011-08-11T14:34:16Z</time>
      </trkpt>
      <trkpt lat="44.6891" lon="6.67758">
        <ele>1858.897583</ele>
        <time>2011-08-11T14:34:20Z</time>
      </trkpt>
      <trkpt lat="44.68922" lon="6.67777">
        <ele>1853.116333</ele>
        <time>2011-08-11T14:34:28Z</time>
      </trkpt>
      <trkpt lat="44.68935" lon="6.67785">
        <ele>1853.036743</ele>
        <time>2011-08-11T14:34:32Z</time>
      </trkpt>
      <trkpt lat="44.68947" lon="6.67797">
        <ele>1853.251465</ele>
        <time>2011-08-11T14:34:36Z</time>
      </trkpt>
      <trkpt lat="44.68952" lon="6.6782">
        <ele>1849.977783</ele>
        <time>2011-08-11T14:35:13Z</time>
      </trkpt>
      <trkpt lat="44.68948" lon="6.67847">
        <ele>1844.90918</ele>
        <time>2011-08-11T14:35:19Z</time>
      </trkpt>
      <trkpt lat="44.68942" lon="6.67873">
        <ele>1845.924316</ele>
        <time>2011-08-11T14:35:23Z</time>
      </trkpt>
      <trkpt lat="44.68935" lon="6.6789">
        <ele>1845.58313</ele>
        <time>2011-08-11T14:35:27Z</time>
      </trkpt>
      <trkpt lat="44.68933" lon="6.6787">
        <ele>1842.274048</ele>
        <time>2011-08-11T14:35:33Z</time>
      </trkpt>
      <trkpt lat="44.68933" lon="6.67842">
        <ele>1838.931152</ele>
        <time>2011-08-11T14:35:38Z</time>
      </trkpt>
      <trkpt lat="44.68918" lon="6.67822">
        <ele>1839.765137</ele>
        <time>2011-08-11T14:35:42Z</time>
      </trkpt>
      <trkpt lat="44.68898" lon="6.6781">
        <ele>1838.675781</ele>
        <time>2011-08-11T14:35:46Z</time>
      </trkpt>
      <trkpt lat="44.68882" lon="6.6781">
        <ele>1834.399414</ele>
        <time>2011-08-11T14:35:48Z</time>
      </trkpt>
      <trkpt lat="44.68865" lon="6.67818">
        <ele>1827.474365</ele>
        <time>2011-08-11T14:35:52Z</time>
      </trkpt>
      <trkpt lat="44.68842" lon="6.67827">
        <ele>1817.958252</ele>
        <time>2011-08-11T14:35:56Z</time>
      </trkpt>
      <trkpt lat="44.68823" lon="6.67815">
        <ele>1813.68103</ele>
        <time>2011-08-11T14:36:00Z</time>
      </trkpt>
      <trkpt lat="44.6881" lon="6.6779">
        <ele>1814.643188</ele>
        <time>2011-08-11T14:36:04Z</time>
      </trkpt>
      <trkpt lat="44.68793" lon="6.67757">
        <ele>1815.09375</ele>
        <time>2011-08-11T14:36:10Z</time>
      </trkpt>
      <trkpt lat="44.68778" lon="6.67738">
        <ele>1812.549805</ele>
        <time>2011-08-11T14:36:15Z</time>
      </trkpt>
      <trkpt lat="44.68765" lon="6.67717">
        <ele>1811.72229</ele>
        <time>2011-08-11T14:36:19Z</time>
      </trkpt>
      <trkpt lat="44.68748" lon="6.67702">
        <ele>1806.186157</ele>
        <time>2011-08-11T14:36:23Z</time>
      </trkpt>
      <trkpt lat="44.68717" lon="6.6767">
        <ele>1798.150024</ele>
        <time>2011-08-11T14:36:31Z</time>
      </trkpt>
      <trkpt lat="44.68695" lon="6.67645">
        <ele>1793.239502</ele>
        <time>2011-08-11T14:36:35Z</time>
      </trkpt>
      <trkpt lat="44.68677" lon="6.6762">
        <ele>1789.756348</ele>
        <time>2011-08-11T14:36:39Z</time>
      </trkpt>
      <trkpt lat="44.68663" lon="6.67595">
        <ele>1791.343994</ele>
        <time>2011-08-11T14:36:44Z</time>
      </trkpt>
      <trkpt lat="44.68655" lon="6.67577">
        <ele>1792.872559</ele>
        <time>2011-08-11T14:36:48Z</time>
      </trkpt>
      <trkpt lat="44.68642" lon="6.67552">
        <ele>1795.548096</ele>
        <time>2011-08-11T14:36:54Z</time>
      </trkpt>
      <trkpt lat="44.68625" lon="6.67538">
        <ele>1793.01001</ele>
        <time>2011-08-11T14:37:00Z</time>
      </trkpt>
      <trkpt lat="44.68612" lon="6.67523">
        <ele>1792.494385</ele>
        <time>2011-08-11T14:37:04Z</time>
      </trkpt>
      <trkpt lat="44.68593" lon="6.675">
        <ele>1790.184326</ele>
        <time>2011-08-11T14:37:10Z</time>
      </trkpt>
      <trkpt lat="44.68582" lon="6.6748">
        <ele>1793.58667</ele>
        <time>2011-08-11T14:37:14Z</time>
      </trkpt>
      <trkpt lat="44.68563" lon="6.67467">
        <ele>1790.721191</ele>
        <time>2011-08-11T14:37:21Z</time>
      </trkpt>
      <trkpt lat="44.68537" lon="6.67448">
        <ele>1786.194946</ele>
        <time>2011-08-11T14:37:27Z</time>
      </trkpt>
      <trkpt lat="44.68523" lon="6.67435">
        <ele>1786.739136</ele>
        <time>2011-08-11T14:37:31Z</time>
      </trkpt>
      <trkpt lat="44.68507" lon="6.67438">
        <ele>1778.915039</ele>
        <time>2011-08-11T14:37:35Z</time>
      </trkpt>
      <trkpt lat="44.68483" lon="6.67433">
        <ele>1777.972656</ele>
        <time>2011-08-11T14:37:39Z</time>
      </trkpt>
      <trkpt lat="44.68462" lon="6.67422">
        <ele>1781.253906</ele>
        <time>2011-08-11T14:37:43Z</time>
      </trkpt>
      <trkpt lat="44.6845" lon="6.67412">
        <ele>1783.56543</ele>
        <time>2011-08-11T14:37:45Z</time>
      </trkpt>
      <trkpt lat="44.68437" lon="6.67407">
        <ele>1783.341431</ele>
        <time>2011-08-11T14:38:54Z</time>
      </trkpt>
      <trkpt lat="44.68413" lon="6.674">
        <ele>1781.651978</ele>
        <time>2011-08-11T14:39:00Z</time>
      </trkpt>
      <trkpt lat="44.68398" lon="6.67393">
        <ele>1779.842773</ele>
        <time>2011-08-11T14:39:04Z</time>
      </trkpt>
      <trkpt lat="44.68385" lon="6.67387">
        <ele>1778.485596</ele>
        <time>2011-08-11T14:39:08Z</time>
      </trkpt>
      <trkpt lat="44.68368" lon="6.67373">
        <ele>1777.853516</ele>
        <time>2011-08-11T14:39:12Z</time>
      </trkpt>
      <trkpt lat="44.68355" lon="6.67362">
        <ele>1775.649658</ele>
        <time>2011-08-11T14:39:14Z</time>
      </trkpt>
      <trkpt lat="44.68342" lon="6.6734">
        <ele>1776.575317</ele>
        <time>2011-08-11T14:39:19Z</time>
      </trkpt>
      <trkpt lat="44.6833" lon="6.67318">
        <ele>1777.914185</ele>
        <time>2011-08-11T14:39:23Z</time>
      </trkpt>
      <trkpt lat="44.68322" lon="6.67295">
        <ele>1780.77771</ele>
        <time>2011-08-11T14:39:27Z</time>
      </trkpt>
      <trkpt lat="44.68302" lon="6.67243">
        <ele>1784.679077</ele>
        <time>2011-08-11T14:39:37Z</time>
      </trkpt>
      <trkpt lat="44.68292" lon="6.67227">
        <ele>1783.856079</ele>
        <time>2011-08-11T14:39:43Z</time>
      </trkpt>
      <trkpt lat="44.68282" lon="6.67213">
        <ele>1781.574341</ele>
        <time>2011-08-11T14:39:49Z</time>
      </trkpt>
      <trkpt lat="44.68272" lon="6.67195">
        <ele>1779.900269</ele>
        <time>2011-08-11T14:39:55Z</time>
      </trkpt>
      <trkpt lat="44.68267" lon="6.67177">
        <ele>1780.922363</ele>
        <time>2011-08-11T14:40:01Z</time>
      </trkpt>
      <trkpt lat="44.6826" lon="6.67155">
        <ele>1781.590088</ele>
        <time>2011-08-11T14:40:09Z</time>
      </trkpt>
      <trkpt lat="44.68252" lon="6.6714">
        <ele>1779.64624</ele>
        <time>2011-08-11T14:40:15Z</time>
      </trkpt>
      <trkpt lat="44.68245" lon="6.67117">
        <ele>1780.194946</ele>
        <time>2011-08-11T14:40:21Z</time>
      </trkpt>
      <trkpt lat="44.68232" lon="6.67087">
        <ele>1778.627563</ele>
        <time>2011-08-11T14:40:30Z</time>
      </trkpt>
      <trkpt lat="44.68225" lon="6.6707">
        <ele>1776.316895</ele>
        <time>2011-08-11T14:40:34Z</time>
      </trkpt>
      <trkpt lat="44.6822" lon="6.67052">
        <ele>1774.343872</ele>
        <time>2011-08-11T14:40:38Z</time>
      </trkpt>
      <trkpt lat="44.68218" lon="6.67028">
        <ele>1774.117676</ele>
        <time>2011-08-11T14:40:46Z</time>
      </trkpt>
      <trkpt lat="44.68222" lon="6.67008">
        <ele>1775.615967</ele>
        <time>2011-08-11T14:40:50Z</time>
      </trkpt>
      <trkpt lat="44.6822" lon="6.66987">
        <ele>1773.197144</ele>
        <time>2011-08-11T14:40:54Z</time>
      </trkpt>
      <trkpt lat="44.68222" lon="6.6696">
        <ele>1772.982544</ele>
        <time>2011-08-11T14:41:00Z</time>
      </trkpt>
      <trkpt lat="44.68227" lon="6.66935">
        <ele>1775.322754</ele>
        <time>2011-08-11T14:41:04Z</time>
      </trkpt>
      <trkpt lat="44.68227" lon="6.66912">
        <ele>1773.526001</ele>
        <time>2011-08-11T14:41:08Z</time>
      </trkpt>
      <trkpt lat="44.68217" lon="6.66887">
        <ele>1764.022339</ele>
        <time>2011-08-11T14:41:12Z</time>
      </trkpt>
      <trkpt lat="44.68215" lon="6.66863">
        <ele>1762.133911</ele>
        <time>2011-08-11T14:41:18Z</time>
      </trkpt>
      <trkpt lat="44.6821" lon="6.66845">
        <ele>1758.539063</ele>
        <time>2011-08-11T14:41:22Z</time>
      </trkpt>
      <trkpt lat="44.68205" lon="6.66822">
        <ele>1756.008423</ele>
        <time>2011-08-11T14:41:28Z</time>
      </trkpt>
      <trkpt lat="44.68202" lon="6.66792">
        <ele>1755.092529</ele>
        <time>2011-08-11T14:41:37Z</time>
      </trkpt>
      <trkpt lat="44.68195" lon="6.66755">
        <ele>1749.341187</ele>
        <time>2011-08-11T14:41:47Z</time>
      </trkpt>
      <trkpt lat="44.68197" lon="6.66732">
        <ele>1747.946777</ele>
        <time>2011-08-11T14:41:55Z</time>
      </trkpt>
      <trkpt lat="44.68205" lon="6.66712">
        <ele>1751.142212</ele>
        <time>2011-08-11T14:42:01Z</time>
      </trkpt>
      <trkpt lat="44.68217" lon="6.66695">
        <ele>1755.255127</ele>
        <time>2011-08-11T14:42:05Z</time>
      </trkpt>
      <trkpt lat="44.68223" lon="6.66675">
        <ele>1755.714233</ele>
        <time>2011-08-11T14:42:59Z</time>
      </trkpt>
      <trkpt lat="44.68223" lon="6.66652">
        <ele>1751.368164</ele>
        <time>2011-08-11T14:43:04Z</time>
      </trkpt>
      <trkpt lat="44.68217" lon="6.66625">
        <ele>1751.259521</ele>
        <time>2011-08-11T14:43:08Z</time>
      </trkpt>
      <trkpt lat="44.68202" lon="6.666">
        <ele>1745.876221</ele>
        <time>2011-08-11T14:43:12Z</time>
      </trkpt>
      <trkpt lat="44.68193" lon="6.66572">
        <ele>1746.749756</ele>
        <time>2011-08-11T14:43:16Z</time>
      </trkpt>
      <trkpt lat="44.68187" lon="6.66553">
        <ele>1746.210815</ele>
        <time>2011-08-11T14:43:18Z</time>
      </trkpt>
      <trkpt lat="44.68167" lon="6.66512">
        <ele>1742.397827</ele>
        <time>2011-08-11T14:43:24Z</time>
      </trkpt>
      <trkpt lat="44.6815" lon="6.66488">
        <ele>1735.923218</ele>
        <time>2011-08-11T14:43:28Z</time>
      </trkpt>
      <trkpt lat="44.68133" lon="6.66467">
        <ele>1728.81604</ele>
        <time>2011-08-11T14:43:32Z</time>
      </trkpt>
      <trkpt lat="44.68123" lon="6.6644">
        <ele>1725.953003</ele>
        <time>2011-08-11T14:43:37Z</time>
      </trkpt>
      <trkpt lat="44.68113" lon="6.66407">
        <ele>1723.505005</ele>
        <time>2011-08-11T14:43:41Z</time>
      </trkpt>
      <trkpt lat="44.68103" lon="6.66372">
        <ele>1721.567627</ele>
        <time>2011-08-11T14:43:45Z</time>
      </trkpt>
      <trkpt lat="44.68095" lon="6.66357">
        <ele>1718.397583</ele>
        <time>2011-08-11T14:43:47Z</time>
      </trkpt>
      <trkpt lat="44.68062" lon="6.66298">
        <ele>1703.776733</ele>
        <time>2011-08-11T14:43:55Z</time>
      </trkpt>
      <trkpt lat="44.68053" lon="6.66275">
        <ele>1699.837891</ele>
        <time>2011-08-11T14:43:59Z</time>
      </trkpt>
      <trkpt lat="44.68053" lon="6.6625">
        <ele>1698.776978</ele>
        <time>2011-08-11T14:44:35Z</time>
      </trkpt>
      <trkpt lat="44.68065" lon="6.6624">
        <ele>1700.861816</ele>
        <time>2011-08-11T14:44:37Z</time>
      </trkpt>
      <trkpt lat="44.68087" lon="6.6623">
        <ele>1704.848999</ele>
        <time>2011-08-11T14:44:41Z</time>
      </trkpt>
      <trkpt lat="44.68108" lon="6.66217">
        <ele>1706.179565</ele>
        <time>2011-08-11T14:44:45Z</time>
      </trkpt>
      <trkpt lat="44.68128" lon="6.66195">
        <ele>1703.200073</ele>
        <time>2011-08-11T14:44:49Z</time>
      </trkpt>
      <trkpt lat="44.68157" lon="6.6616">
        <ele>1695.571045</ele>
        <time>2011-08-11T14:44:56Z</time>
      </trkpt>
      <trkpt lat="44.68177" lon="6.66143">
        <ele>1694.99231</ele>
        <time>2011-08-11T14:45:02Z</time>
      </trkpt>
      <trkpt lat="44.68158" lon="6.66145">
        <ele>1689.79895</ele>
        <time>2011-08-11T14:45:08Z</time>
      </trkpt>
      <trkpt lat="44.6814" lon="6.66148">
        <ele>1686.51709</ele>
        <time>2011-08-11T14:45:12Z</time>
      </trkpt>
      <trkpt lat="44.68125" lon="6.66155">
        <ele>1686.215698</ele>
        <time>2011-08-11T14:45:16Z</time>
      </trkpt>
      <trkpt lat="44.68105" lon="6.6616">
        <ele>1684.043091</ele>
        <time>2011-08-11T14:45:22Z</time>
      </trkpt>
      <trkpt lat="44.68087" lon="6.66158">
        <ele>1680.230225</ele>
        <time>2011-08-11T14:45:26Z</time>
      </trkpt>
      <trkpt lat="44.68067" lon="6.66153">
        <ele>1674.880249</ele>
        <time>2011-08-11T14:45:30Z</time>
      </trkpt>
      <trkpt lat="44.68048" lon="6.66153">
        <ele>1670.518066</ele>
        <time>2011-08-11T14:45:34Z</time>
      </trkpt>
      <trkpt lat="44.68063" lon="6.66138">
        <ele>1668.491211</ele>
        <time>2011-08-11T14:45:43Z</time>
      </trkpt>
      <trkpt lat="44.68085" lon="6.6613">
        <ele>1668.777466</ele>
        <time>2011-08-11T14:45:47Z</time>
      </trkpt>
      <trkpt lat="44.68102" lon="6.66115">
        <ele>1664.524902</ele>
        <time>2011-08-11T14:45:51Z</time>
      </trkpt>
      <trkpt lat="44.68118" lon="6.66093">
        <ele>1658.037354</ele>
        <time>2011-08-11T14:45:55Z</time>
      </trkpt>
      <trkpt lat="44.6813" lon="6.66083">
        <ele>1656.550415</ele>
        <time>2011-08-11T14:45:59Z</time>
      </trkpt>
      <trkpt lat="44.68113" lon="6.66082">
        <ele>1651.420532</ele>
        <time>2011-08-11T14:46:05Z</time>
      </trkpt>
      <trkpt lat="44.681" lon="6.66085">
        <ele>1650.417114</ele>
        <time>2011-08-11T14:46:07Z</time>
      </trkpt>
      <trkpt lat="44.6807" lon="6.6609">
        <ele>1648.65686</ele>
        <time>2011-08-11T14:46:11Z</time>
      </trkpt>
      <trkpt lat="44.68053" lon="6.66087">
        <ele>1644.432739</ele>
        <time>2011-08-11T14:46:15Z</time>
      </trkpt>
      <trkpt lat="44.68068" lon="6.66065">
        <ele>1637.681396</ele>
        <time>2011-08-11T14:46:21Z</time>
      </trkpt>
      <trkpt lat="44.68087" lon="6.66043">
        <ele>1631.780884</ele>
        <time>2011-08-11T14:46:25Z</time>
      </trkpt>
      <trkpt lat="44.68105" lon="6.6604">
        <ele>1632.642334</ele>
        <time>2011-08-11T14:46:30Z</time>
      </trkpt>
      <trkpt lat="44.68122" lon="6.66032">
        <ele>1635.255981</ele>
        <time>2011-08-11T14:46:34Z</time>
      </trkpt>
      <trkpt lat="44.68133" lon="6.6601">
        <ele>1633.462769</ele>
        <time>2011-08-11T14:46:38Z</time>
      </trkpt>
      <trkpt lat="44.6814" lon="6.65987">
        <ele>1631.953735</ele>
        <time>2011-08-11T14:46:42Z</time>
      </trkpt>
      <trkpt lat="44.6814" lon="6.65952">
        <ele>1624.335449</ele>
        <time>2011-08-11T14:46:46Z</time>
      </trkpt>
      <trkpt lat="44.6814" lon="6.65925">
        <ele>1621.686279</ele>
        <time>2011-08-11T14:46:48Z</time>
      </trkpt>
      <trkpt lat="44.68138" lon="6.65873">
        <ele>1614.984253</ele>
        <time>2011-08-11T14:46:54Z</time>
      </trkpt>
      <trkpt lat="44.68145" lon="6.65847">
        <ele>1613.719482</ele>
        <time>2011-08-11T14:46:59Z</time>
      </trkpt>
      <trkpt lat="44.68152" lon="6.65822">
        <ele>1611.90918</ele>
        <time>2011-08-11T14:47:03Z</time>
      </trkpt>
      <trkpt lat="44.6817" lon="6.65805">
        <ele>1615.80957</ele>
        <time>2011-08-11T14:47:07Z</time>
      </trkpt>
      <trkpt lat="44.68182" lon="6.6578">
        <ele>1612.507324</ele>
        <time>2011-08-11T14:47:11Z</time>
      </trkpt>
      <trkpt lat="44.68192" lon="6.65752">
        <ele>1606.392212</ele>
        <time>2011-08-11T14:47:15Z</time>
      </trkpt>
      <trkpt lat="44.68203" lon="6.65725">
        <ele>1601.680908</ele>
        <time>2011-08-11T14:47:19Z</time>
      </trkpt>
      <trkpt lat="44.68217" lon="6.6569">
        <ele>1592.815552</ele>
        <time>2011-08-11T14:47:23Z</time>
      </trkpt>
      <trkpt lat="44.68235" lon="6.65668">
        <ele>1587.825073</ele>
        <time>2011-08-11T14:47:27Z</time>
      </trkpt>
      <trkpt lat="44.68252" lon="6.65653">
        <ele>1584.743774</ele>
        <time>2011-08-11T14:47:31Z</time>
      </trkpt>
      <trkpt lat="44.68273" lon="6.65655">
        <ele>1586.978271</ele>
        <time>2011-08-11T14:47:36Z</time>
      </trkpt>
      <trkpt lat="44.6829" lon="6.65653">
        <ele>1586.542358</ele>
        <time>2011-08-11T14:47:40Z</time>
      </trkpt>
      <trkpt lat="44.68302" lon="6.65623">
        <ele>1574.657104</ele>
        <time>2011-08-11T14:47:44Z</time>
      </trkpt>
      <trkpt lat="44.68322" lon="6.65605">
        <ele>1566.271851</ele>
        <time>2011-08-11T14:47:48Z</time>
      </trkpt>
      <trkpt lat="44.6834" lon="6.65597">
        <ele>1561.341797</ele>
        <time>2011-08-11T14:47:52Z</time>
      </trkpt>
      <trkpt lat="44.68357" lon="6.65612">
        <ele>1564.178833</ele>
        <time>2011-08-11T14:47:56Z</time>
      </trkpt>
      <trkpt lat="44.68372" lon="6.65638">
        <ele>1571.591309</ele>
        <time>2011-08-11T14:48:00Z</time>
      </trkpt>
      <trkpt lat="44.68395" lon="6.65642">
        <ele>1569.001099</ele>
        <time>2011-08-11T14:48:04Z</time>
      </trkpt>
      <trkpt lat="44.68408" lon="6.65635">
        <ele>1565.725098</ele>
        <time>2011-08-11T14:48:06Z</time>
      </trkpt>
      <trkpt lat="44.68435" lon="6.65623">
        <ele>1559.453125</ele>
        <time>2011-08-11T14:48:10Z</time>
      </trkpt>
      <trkpt lat="44.68453" lon="6.65613">
        <ele>1554.605103</ele>
        <time>2011-08-11T14:48:12Z</time>
      </trkpt>
      <trkpt lat="44.6847" lon="6.65603">
        <ele>1549.797974</ele>
        <time>2011-08-11T14:48:17Z</time>
      </trkpt>
      <trkpt lat="44.68488" lon="6.65608">
        <ele>1553.933838</ele>
        <time>2011-08-11T14:48:39Z</time>
      </trkpt>
      <trkpt lat="44.68505" lon="6.65608">
        <ele>1556.766235</ele>
        <time>2011-08-11T14:48:43Z</time>
      </trkpt>
      <trkpt lat="44.68522" lon="6.65607">
        <ele>1559.074951</ele>
        <time>2011-08-11T14:48:47Z</time>
      </trkpt>
      <trkpt lat="44.68533" lon="6.65597">
        <ele>1558.943604</ele>
        <time>2011-08-11T14:48:51Z</time>
      </trkpt>
      <trkpt lat="44.68533" lon="6.65575">
        <ele>1555.248169</ele>
        <time>2011-08-11T14:48:55Z</time>
      </trkpt>
      <trkpt lat="44.68528" lon="6.65552">
        <ele>1548.859253</ele>
        <time>2011-08-11T14:49:00Z</time>
      </trkpt>
      <trkpt lat="44.68535" lon="6.65525">
        <ele>1547.872803</ele>
        <time>2011-08-11T14:49:06Z</time>
      </trkpt>
      <trkpt lat="44.68555" lon="6.6547">
        <ele>1549.850464</ele>
        <time>2011-08-11T14:49:14Z</time>
      </trkpt>
      <trkpt lat="44.68562" lon="6.65443">
        <ele>1545.470215</ele>
        <time>2011-08-11T14:49:18Z</time>
      </trkpt>
      <trkpt lat="44.68568" lon="6.65423">
        <ele>1543.147705</ele>
        <time>2011-08-11T14:49:24Z</time>
      </trkpt>
      <trkpt lat="44.68573" lon="6.65405">
        <ele>1539.375122</ele>
        <time>2011-08-11T14:49:50Z</time>
      </trkpt>
      <trkpt lat="44.68587" lon="6.65388">
        <ele>1538.493164</ele>
        <time>2011-08-11T14:49:59Z</time>
      </trkpt>
      <trkpt lat="44.68598" lon="6.65377">
        <ele>1537.399902</ele>
        <time>2011-08-11T14:50:03Z</time>
      </trkpt>
      <trkpt lat="44.6861" lon="6.65363">
        <ele>1535.541382</ele>
        <time>2011-08-11T14:50:07Z</time>
      </trkpt>
      <trkpt lat="44.68622" lon="6.65352">
        <ele>1534.526123</ele>
        <time>2011-08-11T14:50:11Z</time>
      </trkpt>
      <trkpt lat="44.68635" lon="6.6534">
        <ele>1533.426514</ele>
        <time>2011-08-11T14:50:15Z</time>
      </trkpt>
      <trkpt lat="44.68647" lon="6.65328">
        <ele>1529.137451</ele>
        <time>2011-08-11T14:50:19Z</time>
      </trkpt>
      <trkpt lat="44.68662" lon="6.65332">
        <ele>1531.445679</ele>
        <time>2011-08-11T14:50:23Z</time>
      </trkpt>
      <trkpt lat="44.68678" lon="6.6533">
        <ele>1531.505127</ele>
        <time>2011-08-11T14:50:27Z</time>
      </trkpt>
      <trkpt lat="44.68703" lon="6.65323">
        <ele>1530.214722</ele>
        <time>2011-08-11T14:50:34Z</time>
      </trkpt>
      <trkpt lat="44.68717" lon="6.65318">
        <ele>1529.134521</ele>
        <time>2011-08-11T14:50:38Z</time>
      </trkpt>
      <trkpt lat="44.68732" lon="6.6531">
        <ele>1529.153076</ele>
        <time>2011-08-11T14:50:42Z</time>
      </trkpt>
      <trkpt lat="44.68745" lon="6.65293">
        <ele>1530.195313</ele>
        <time>2011-08-11T14:50:46Z</time>
      </trkpt>
      <trkpt lat="44.68745" lon="6.65268">
        <ele>1530.118896</ele>
        <time>2011-08-11T14:50:50Z</time>
      </trkpt>
      <trkpt lat="44.68733" lon="6.65252">
        <ele>1522.493286</ele>
        <time>2011-08-11T14:50:54Z</time>
      </trkpt>
      <trkpt lat="44.68722" lon="6.65237">
        <ele>1514.117676</ele>
        <time>2011-08-11T14:50:58Z</time>
      </trkpt>
      <trkpt lat="44.68712" lon="6.65215">
        <ele>1510.005493</ele>
        <time>2011-08-11T14:51:02Z</time>
      </trkpt>
      <trkpt lat="44.68707" lon="6.65197">
        <ele>1508.232544</ele>
        <time>2011-08-11T14:51:04Z</time>
      </trkpt>
      <trkpt lat="44.68698" lon="6.65172">
        <ele>1504.288696</ele>
        <time>2011-08-11T14:51:08Z</time>
      </trkpt>
      <trkpt lat="44.68698" lon="6.65145">
        <ele>1498.26709</ele>
        <time>2011-08-11T14:51:12Z</time>
      </trkpt>
      <trkpt lat="44.6871" lon="6.65122">
        <ele>1498.511841</ele>
        <time>2011-08-11T14:51:16Z</time>
      </trkpt>
      <trkpt lat="44.68727" lon="6.65103">
        <ele>1501.12793</ele>
        <time>2011-08-11T14:51:20Z</time>
      </trkpt>
      <trkpt lat="44.68733" lon="6.65073">
        <ele>1494.170532</ele>
        <time>2011-08-11T14:51:24Z</time>
      </trkpt>
      <trkpt lat="44.68743" lon="6.6505">
        <ele>1490.56189</ele>
        <time>2011-08-11T14:51:29Z</time>
      </trkpt>
      <trkpt lat="44.6873" lon="6.65045">
        <ele>1482.952026</ele>
        <time>2011-08-11T14:51:37Z</time>
      </trkpt>
      <trkpt lat="44.68712" lon="6.6506">
        <ele>1479.609253</ele>
        <time>2011-08-11T14:51:41Z</time>
      </trkpt>
      <trkpt lat="44.687" lon="6.65078">
        <ele>1480.35376</ele>
        <time>2011-08-11T14:51:45Z</time>
      </trkpt>
      <trkpt lat="44.68693" lon="6.65062">
        <ele>1471.660767</ele>
        <time>2011-08-11T14:51:51Z</time>
      </trkpt>
      <trkpt lat="44.68695" lon="6.6504">
        <ele>1465.138306</ele>
        <time>2011-08-11T14:51:57Z</time>
      </trkpt>
      <trkpt lat="44.68712" lon="6.65023">
        <ele>1466.101196</ele>
        <time>2011-08-11T14:52:03Z</time>
      </trkpt>
      <trkpt lat="44.68725" lon="6.65015">
        <ele>1467.703613</ele>
        <time>2011-08-11T14:52:08Z</time>
      </trkpt>
      <trkpt lat="44.68743" lon="6.65002">
        <ele>1467.905396</ele>
        <time>2011-08-11T14:52:14Z</time>
      </trkpt>
      <trkpt lat="44.68758" lon="6.64985">
        <ele>1464.518188</ele>
        <time>2011-08-11T14:52:18Z</time>
      </trkpt>
      <trkpt lat="44.68772" lon="6.64967">
        <ele>1459.781128</ele>
        <time>2011-08-11T14:52:22Z</time>
      </trkpt>
      <trkpt lat="44.68788" lon="6.64948">
        <ele>1455.419678</ele>
        <time>2011-08-11T14:52:26Z</time>
      </trkpt>
      <trkpt lat="44.68802" lon="6.6493">
        <ele>1450.119629</ele>
        <time>2011-08-11T14:52:30Z</time>
      </trkpt>
      <trkpt lat="44.6882" lon="6.64907">
        <ele>1445.130737</ele>
        <time>2011-08-11T14:52:36Z</time>
      </trkpt>
      <trkpt lat="44.68832" lon="6.64892">
        <ele>1440.948975</ele>
        <time>2011-08-11T14:52:42Z</time>
      </trkpt>
      <trkpt lat="44.68815" lon="6.64887">
        <ele>1435.930664</ele>
        <time>2011-08-11T14:52:46Z</time>
      </trkpt>
      <trkpt lat="44.68797" lon="6.64883">
        <ele>1431.32959</ele>
        <time>2011-08-11T14:52:50Z</time>
      </trkpt>
      <trkpt lat="44.68783" lon="6.64893">
        <ele>1432.122559</ele>
        <time>2011-08-11T14:52:54Z</time>
      </trkpt>
      <trkpt lat="44.68788" lon="6.64872">
        <ele>1425.916138</ele>
        <time>2011-08-11T14:53:03Z</time>
      </trkpt>
      <trkpt lat="44.68772" lon="6.64868">
        <ele>1422.150635</ele>
        <time>2011-08-11T14:53:46Z</time>
      </trkpt>
      <trkpt lat="44.68753" lon="6.64877">
        <ele>1421.554565</ele>
        <time>2011-08-11T14:53:52Z</time>
      </trkpt>
      <trkpt lat="44.68733" lon="6.64878">
        <ele>1418.187256</ele>
        <time>2011-08-11T14:53:57Z</time>
      </trkpt>
      <trkpt lat="44.68707" lon="6.64883">
        <ele>1413.366699</ele>
        <time>2011-08-11T14:54:03Z</time>
      </trkpt>
      <trkpt lat="44.68685" lon="6.64893">
        <ele>1408.930664</ele>
        <time>2011-08-11T14:54:07Z</time>
      </trkpt>
      <trkpt lat="44.68687" lon="6.64867">
        <ele>1403.579468</ele>
        <time>2011-08-11T14:54:15Z</time>
      </trkpt>
      <trkpt lat="44.68695" lon="6.64837">
        <ele>1399.703613</ele>
        <time>2011-08-11T14:54:19Z</time>
      </trkpt>
      <trkpt lat="44.68698" lon="6.64807">
        <ele>1393.585693</ele>
        <time>2011-08-11T14:54:26Z</time>
      </trkpt>
      <trkpt lat="44.68712" lon="6.64788">
        <ele>1391.204224</ele>
        <time>2011-08-11T14:54:30Z</time>
      </trkpt>
      <trkpt lat="44.68728" lon="6.6477">
        <ele>1388.88501</ele>
        <time>2011-08-11T14:54:34Z</time>
      </trkpt>
      <trkpt lat="44.68755" lon="6.64753">
        <ele>1386.164307</ele>
        <time>2011-08-11T14:54:38Z</time>
      </trkpt>
      <trkpt lat="44.68768" lon="6.64748">
        <ele>1384.242432</ele>
        <time>2011-08-11T14:54:40Z</time>
      </trkpt>
      <trkpt lat="44.68793" lon="6.64742">
        <ele>1380.501831</ele>
        <time>2011-08-11T14:54:45Z</time>
      </trkpt>
      <trkpt lat="44.68808" lon="6.64748">
        <ele>1380.026855</ele>
        <time>2011-08-11T14:54:49Z</time>
      </trkpt>
      <trkpt lat="44.68798" lon="6.64728">
        <ele>1375.501465</ele>
        <time>2011-08-11T14:54:55Z</time>
      </trkpt>
      <trkpt lat="44.68785" lon="6.64708">
        <ele>1372.437378</ele>
        <time>2011-08-11T14:54:59Z</time>
      </trkpt>
      <trkpt lat="44.68772" lon="6.64688">
        <ele>1369.026855</ele>
        <time>2011-08-11T14:55:03Z</time>
      </trkpt>
      <trkpt lat="44.68748" lon="6.64653">
        <ele>1364.8125</ele>
        <time>2011-08-11T14:55:09Z</time>
      </trkpt>
      <trkpt lat="44.68733" lon="6.64645">
        <ele>1361.999023</ele>
        <time>2011-08-11T14:55:13Z</time>
      </trkpt>
      <trkpt lat="44.6872" lon="6.64648">
        <ele>1361.612671</ele>
        <time>2011-08-11T14:55:19Z</time>
      </trkpt>
      <trkpt lat="44.68707" lon="6.64657">
        <ele>1361.932983</ele>
        <time>2011-08-11T14:55:50Z</time>
      </trkpt>
      <trkpt lat="44.6869" lon="6.64662">
        <ele>1359.651733</ele>
        <time>2011-08-11T14:55:54Z</time>
      </trkpt>
      <trkpt lat="44.68668" lon="6.6467">
        <ele>1356.863281</ele>
        <time>2011-08-11T14:55:58Z</time>
      </trkpt>
      <trkpt lat="44.68652" lon="6.6468">
        <ele>1355.368042</ele>
        <time>2011-08-11T14:56:02Z</time>
      </trkpt>
      <trkpt lat="44.68597" lon="6.64712">
        <ele>1346.990112</ele>
        <time>2011-08-11T14:56:12Z</time>
      </trkpt>
      <trkpt lat="44.68577" lon="6.64717">
        <ele>1341.395386</ele>
        <time>2011-08-11T14:56:16Z</time>
      </trkpt>
      <trkpt lat="44.68572" lon="6.64698">
        <ele>1338.160278</ele>
        <time>2011-08-11T14:56:21Z</time>
      </trkpt>
      <trkpt lat="44.68585" lon="6.64673">
        <ele>1338.908081</ele>
        <time>2011-08-11T14:56:25Z</time>
      </trkpt>
      <trkpt lat="44.686" lon="6.64642">
        <ele>1337.300293</ele>
        <time>2011-08-11T14:56:29Z</time>
      </trkpt>
      <trkpt lat="44.6862" lon="6.64612">
        <ele>1336.312256</ele>
        <time>2011-08-11T14:56:33Z</time>
      </trkpt>
      <trkpt lat="44.68647" lon="6.64578">
        <ele>1334.637207</ele>
        <time>2011-08-11T14:56:39Z</time>
      </trkpt>
      <trkpt lat="44.68632" lon="6.64568">
        <ele>1329.857422</ele>
        <time>2011-08-11T14:56:43Z</time>
      </trkpt>
      <trkpt lat="44.68607" lon="6.64575">
        <ele>1327.060669</ele>
        <time>2011-08-11T14:56:47Z</time>
      </trkpt>
      <trkpt lat="44.68587" lon="6.64577">
        <ele>1323.970947</ele>
        <time>2011-08-11T14:56:51Z</time>
      </trkpt>
      <trkpt lat="44.686" lon="6.64557">
        <ele>1321.760986</ele>
        <time>2011-08-11T14:56:59Z</time>
      </trkpt>
      <trkpt lat="44.68617" lon="6.64545">
        <ele>1322.39209</ele>
        <time>2011-08-11T14:57:03Z</time>
      </trkpt>
      <trkpt lat="44.68632" lon="6.64527">
        <ele>1320.012695</ele>
        <time>2011-08-11T14:57:08Z</time>
      </trkpt>
      <trkpt lat="44.68648" lon="6.64512">
        <ele>1317.611694</ele>
        <time>2011-08-11T14:57:12Z</time>
      </trkpt>
      <trkpt lat="44.68678" lon="6.64488">
        <ele>1314.186646</ele>
        <time>2011-08-11T14:57:18Z</time>
      </trkpt>
      <trkpt lat="44.68712" lon="6.64468">
        <ele>1311.787109</ele>
        <time>2011-08-11T14:57:24Z</time>
      </trkpt>
      <trkpt lat="44.68755" lon="6.64438">
        <ele>1302.500977</ele>
        <time>2011-08-11T14:57:32Z</time>
      </trkpt>
      <trkpt lat="44.6874" lon="6.64435">
        <ele>1302.050537</ele>
        <time>2011-08-11T14:59:29Z</time>
      </trkpt>
      <trkpt lat="44.68723" lon="6.64433">
        <ele>1302.062866</ele>
        <time>2011-08-11T15:00:14Z</time>
      </trkpt>
      <trkpt lat="44.68703" lon="6.64427">
        <ele>1299.391235</ele>
        <time>2011-08-11T15:00:19Z</time>
      </trkpt>
      <trkpt lat="44.68683" lon="6.6442">
        <ele>1294.907593</ele>
        <time>2011-08-11T15:00:23Z</time>
      </trkpt>
      <trkpt lat="44.68697" lon="6.64403">
        <ele>1292.127319</ele>
        <time>2011-08-11T15:01:09Z</time>
      </trkpt>
      <trkpt lat="44.68722" lon="6.64398">
        <ele>1293.064697</ele>
        <time>2011-08-11T15:01:13Z</time>
      </trkpt>
      <trkpt lat="44.68738" lon="6.64385">
        <ele>1290.631104</ele>
        <time>2011-08-11T15:01:17Z</time>
      </trkpt>
      <trkpt lat="44.68752" lon="6.64367">
        <ele>1288.12207</ele>
        <time>2011-08-11T15:01:22Z</time>
      </trkpt>
      <trkpt lat="44.68762" lon="6.64345">
        <ele>1284.744385</ele>
        <time>2011-08-11T15:01:26Z</time>
      </trkpt>
      <trkpt lat="44.6875" lon="6.64332">
        <ele>1280.581055</ele>
        <time>2011-08-11T15:01:32Z</time>
      </trkpt>
      <trkpt lat="44.68732" lon="6.64335">
        <ele>1278.892212</ele>
        <time>2011-08-11T15:01:36Z</time>
      </trkpt>
      <trkpt lat="44.68728" lon="6.64308">
        <ele>1272.694458</ele>
        <time>2011-08-11T15:01:42Z</time>
      </trkpt>
      <trkpt lat="44.68733" lon="6.64285">
        <ele>1268.329346</ele>
        <time>2011-08-11T15:01:46Z</time>
      </trkpt>
      <trkpt lat="44.6875" lon="6.64282">
        <ele>1269.063721</ele>
        <time>2011-08-11T15:02:57Z</time>
      </trkpt>
      <trkpt lat="44.6877" lon="6.6429">
        <ele>1270.099365</ele>
        <time>2011-08-11T15:03:03Z</time>
      </trkpt>
      <trkpt lat="44.68785" lon="6.64308">
        <ele>1269.453369</ele>
        <time>2011-08-11T15:03:07Z</time>
      </trkpt>
      <trkpt lat="44.68797" lon="6.64318">
        <ele>1268.346924</ele>
        <time>2011-08-11T15:03:09Z</time>
      </trkpt>
      <trkpt lat="44.68818" lon="6.64342">
        <ele>1267.931885</ele>
        <time>2011-08-11T15:03:16Z</time>
      </trkpt>
      <trkpt lat="44.68825" lon="6.6436">
        <ele>1270.540161</ele>
        <time>2011-08-11T15:03:20Z</time>
      </trkpt>
      <trkpt lat="44.68818" lon="6.64385">
        <ele>1276.295166</ele>
        <time>2011-08-11T15:03:24Z</time>
      </trkpt>
      <trkpt lat="44.68815" lon="6.64407">
        <ele>1280.237305</ele>
        <time>2011-08-11T15:03:28Z</time>
      </trkpt>
      <trkpt lat="44.68817" lon="6.6443">
        <ele>1283.480713</ele>
        <time>2011-08-11T15:03:34Z</time>
      </trkpt>
      <trkpt lat="44.6882" lon="6.6445">
        <ele>1286.677002</ele>
        <time>2011-08-11T15:03:40Z</time>
      </trkpt>
      <trkpt lat="44.68833" lon="6.64453">
        <ele>1285.172852</ele>
        <time>2011-08-11T15:03:49Z</time>
      </trkpt>
      <trkpt lat="44.68848" lon="6.6444">
        <ele>1279.968994</ele>
        <time>2011-08-11T15:03:57Z</time>
      </trkpt>
      <trkpt lat="44.68852" lon="6.64415">
        <ele>1274.832275</ele>
        <time>2011-08-11T15:04:05Z</time>
      </trkpt>
      <trkpt lat="44.68865" lon="6.644">
        <ele>1277.342407</ele>
        <time>2011-08-11T15:04:10Z</time>
      </trkpt>
      <trkpt lat="44.68885" lon="6.64372">
        <ele>1279.462036</ele>
        <time>2011-08-11T15:04:16Z</time>
      </trkpt>
      <trkpt lat="44.68892" lon="6.64353">
        <ele>1277.910156</ele>
        <time>2011-08-11T15:04:20Z</time>
      </trkpt>
      <trkpt lat="44.68903" lon="6.64335">
        <ele>1279.089478</ele>
        <time>2011-08-11T15:04:24Z</time>
      </trkpt>
      <trkpt lat="44.68912" lon="6.64313">
        <ele>1278.603394</ele>
        <time>2011-08-11T15:04:28Z</time>
      </trkpt>
      <trkpt lat="44.68912" lon="6.64292">
        <ele>1275.76123</ele>
        <time>2011-08-11T15:04:33Z</time>
      </trkpt>
      <trkpt lat="44.6891" lon="6.64255">
        <ele>1273.266235</ele>
        <time>2011-08-11T15:04:39Z</time>
      </trkpt>
      <trkpt lat="44.68908" lon="6.64222">
        <ele>1271.298218</ele>
        <time>2011-08-11T15:04:43Z</time>
      </trkpt>
      <trkpt lat="44.68903" lon="6.64197">
        <ele>1268.496826</ele>
        <time>2011-08-11T15:04:47Z</time>
      </trkpt>
      <trkpt lat="44.689" lon="6.64173">
        <ele>1266.295654</ele>
        <time>2011-08-11T15:04:51Z</time>
      </trkpt>
      <trkpt lat="44.68897" lon="6.6415">
        <ele>1261.572266</ele>
        <time>2011-08-11T15:04:58Z</time>
      </trkpt>
      <trkpt lat="44.68888" lon="6.64135">
        <ele>1256.452637</ele>
        <time>2011-08-11T15:05:08Z</time>
      </trkpt>
      <trkpt lat="44.68897" lon="6.64117">
        <ele>1257.937378</ele>
        <time>2011-08-11T15:05:41Z</time>
      </trkpt>
      <trkpt lat="44.68902" lon="6.64098">
        <ele>1256.868408</ele>
        <time>2011-08-11T15:05:51Z</time>
      </trkpt>
      <trkpt lat="44.68915" lon="6.64092">
        <ele>1259.817383</ele>
        <time>2011-08-11T15:05:58Z</time>
      </trkpt>
      <trkpt lat="44.6893" lon="6.64082">
        <ele>1262.768921</ele>
        <time>2011-08-11T15:06:04Z</time>
      </trkpt>
      <trkpt lat="44.68943" lon="6.64068">
        <ele>1264.704834</ele>
        <time>2011-08-11T15:06:10Z</time>
      </trkpt>
      <trkpt lat="44.68967" lon="6.64045">
        <ele>1267.279663</ele>
        <time>2011-08-11T15:06:23Z</time>
      </trkpt>
      <trkpt lat="44.6898" lon="6.64037">
        <ele>1269.032959</ele>
        <time>2011-08-11T15:06:33Z</time>
      </trkpt>
      <trkpt lat="44.68967" lon="6.64043">
        <ele>1267.109009</ele>
        <time>2011-08-11T15:07:50Z</time>
      </trkpt>
      <trkpt lat="44.68953" lon="6.64053">
        <ele>1265.281982</ele>
        <time>2011-08-11T15:07:56Z</time>
      </trkpt>
      <trkpt lat="44.68938" lon="6.6407">
        <ele>1263.463135</ele>
        <time>2011-08-11T15:08:05Z</time>
      </trkpt>
      <trkpt lat="44.6892" lon="6.64087">
        <ele>1260.543335</ele>
        <time>2011-08-11T15:08:11Z</time>
      </trkpt>
      <trkpt lat="44.68903" lon="6.64097">
        <ele>1257.103882</ele>
        <time>2011-08-11T15:08:18Z</time>
      </trkpt>
      <trkpt lat="44.68888" lon="6.64108">
        <ele>1254.415649</ele>
        <time>2011-08-11T15:08:24Z</time>
      </trkpt>
      <trkpt lat="44.68875" lon="6.64112">
        <ele>1250.699097</ele>
        <time>2011-08-11T15:08:34Z</time>
      </trkpt>
      <trkpt lat="44.6885" lon="6.64127">
        <ele>1239.942017</ele>
        <time>2011-08-11T15:11:51Z</time>
      </trkpt>
      <trkpt lat="44.6883" lon="6.64132">
        <ele>1229.699341</ele>
        <time>2011-08-11T15:12:13Z</time>
      </trkpt>
      <trkpt lat="44.68808" lon="6.64135">
        <ele>1221.234497</ele>
        <time>2011-08-11T15:12:58Z</time>
      </trkpt>
      <trkpt lat="44.68795" lon="6.64128">
        <ele>1219.516357</ele>
        <time>2011-08-11T15:13:37Z</time>
      </trkpt>
      <trkpt lat="44.68783" lon="6.64115">
        <ele>1214.510742</ele>
        <time>2011-08-11T15:13:58Z</time>
      </trkpt>
      <trkpt lat="44.6878" lon="6.64095">
        <ele>1208.267456</ele>
        <time>2011-08-11T15:14:20Z</time>
      </trkpt>
      <trkpt lat="44.68777" lon="6.64075">
        <ele>1203.119995</ele>
        <time>2011-08-11T15:14:38Z</time>
      </trkpt>
      <trkpt lat="44.68782" lon="6.64055">
        <ele>1201.500732</ele>
        <time>2011-08-11T15:16:05Z</time>
      </trkpt>
      <trkpt lat="44.68785" lon="6.64035">
        <ele>1199.411743</ele>
        <time>2011-08-11T15:16:11Z</time>
      </trkpt>
      <trkpt lat="44.68792" lon="6.64018">
        <ele>1199.336426</ele>
        <time>2011-08-11T15:16:17Z</time>
      </trkpt>
      <trkpt lat="44.68808" lon="6.64003">
        <ele>1202.900391</ele>
        <time>2011-08-11T15:16:23Z</time>
      </trkpt>
      <trkpt lat="44.68823" lon="6.63993">
        <ele>1206.265503</ele>
        <time>2011-08-11T15:16:30Z</time>
      </trkpt>
      <trkpt lat="44.68835" lon="6.63983">
        <ele>1209.017456</ele>
        <time>2011-08-11T15:16:36Z</time>
      </trkpt>
      <trkpt lat="44.68843" lon="6.63968">
        <ele>1210.419067</ele>
        <time>2011-08-11T15:16:42Z</time>
      </trkpt>
      <trkpt lat="44.68848" lon="6.63947">
        <ele>1209.424316</ele>
        <time>2011-08-11T15:16:50Z</time>
      </trkpt>
      <trkpt lat="44.68858" lon="6.6393">
        <ele>1211.442383</ele>
        <time>2011-08-11T15:16:58Z</time>
      </trkpt>
      <trkpt lat="44.6887" lon="6.63912">
        <ele>1214.054199</ele>
        <time>2011-08-11T15:17:09Z</time>
      </trkpt>
      <trkpt lat="44.68877" lon="6.6389">
        <ele>1213.446777</ele>
        <time>2011-08-11T15:17:19Z</time>
      </trkpt>
      <trkpt lat="44.68883" lon="6.63867">
        <ele>1211.518311</ele>
        <time>2011-08-11T15:17:29Z</time>
      </trkpt>
      <trkpt lat="44.68888" lon="6.63837">
        <ele>1210.22168</ele>
        <time>2011-08-11T15:17:41Z</time>
      </trkpt>
      <trkpt lat="44.68902" lon="6.63825">
        <ele>1212.79126</ele>
        <time>2011-08-11T15:17:50Z</time>
      </trkpt>
      <trkpt lat="44.68918" lon="6.63817">
        <ele>1215.750488</ele>
        <time>2011-08-11T15:17:58Z</time>
      </trkpt>
      <trkpt lat="44.68933" lon="6.63813">
        <ele>1217.33252</ele>
        <time>2011-08-11T15:18:06Z</time>
      </trkpt>
      <trkpt lat="44.68953" lon="6.63807">
        <ele>1218.849121</ele>
        <time>2011-08-11T15:18:16Z</time>
      </trkpt>
      <trkpt lat="44.69003" lon="6.63787">
        <ele>1223.861938</ele>
        <time>2011-08-11T15:18:34Z</time>
      </trkpt>
      <trkpt lat="44.69032" lon="6.63775">
        <ele>1222.753662</ele>
        <time>2011-08-11T15:18:45Z</time>
      </trkpt>
      <trkpt lat="44.69048" lon="6.63773">
        <ele>1222.308594</ele>
        <time>2011-08-11T15:18:51Z</time>
      </trkpt>
      <trkpt lat="44.69067" lon="6.63772">
        <ele>1219.636841</ele>
        <time>2011-08-11T15:18:57Z</time>
      </trkpt>
      <trkpt lat="44.69082" lon="6.63777">
        <ele>1218.31604</ele>
        <time>2011-08-11T15:19:03Z</time>
      </trkpt>
      <trkpt lat="44.69097" lon="6.6379">
        <ele>1219.307739</ele>
        <time>2011-08-11T15:19:09Z</time>
      </trkpt>
      <trkpt lat="44.69107" lon="6.63805">
        <ele>1219.89917</ele>
        <time>2011-08-11T15:19:13Z</time>
      </trkpt>
      <trkpt lat="44.69115" lon="6.63827">
        <ele>1221.754272</ele>
        <time>2011-08-11T15:19:19Z</time>
      </trkpt>
      <trkpt lat="44.69117" lon="6.6385">
        <ele>1226.041138</ele>
        <time>2011-08-11T15:19:26Z</time>
      </trkpt>
      <trkpt lat="44.69118" lon="6.63873">
        <ele>1230.328003</ele>
        <time>2011-08-11T15:19:32Z</time>
      </trkpt>
      <trkpt lat="44.69128" lon="6.63895">
        <ele>1230.720703</ele>
        <time>2011-08-11T15:19:38Z</time>
      </trkpt>
      <trkpt lat="44.69135" lon="6.63917">
        <ele>1232.266235</ele>
        <time>2011-08-11T15:19:44Z</time>
      </trkpt>
      <trkpt lat="44.69143" lon="6.63937">
        <ele>1232.518311</ele>
        <time>2011-08-11T15:19:50Z</time>
      </trkpt>
      <trkpt lat="44.69155" lon="6.63947">
        <ele>1229.758911</ele>
        <time>2011-08-11T15:19:54Z</time>
      </trkpt>
      <trkpt lat="44.69165" lon="6.6396">
        <ele>1229.026367</ele>
        <time>2011-08-11T15:19:58Z</time>
      </trkpt>
      <trkpt lat="44.6918" lon="6.6398">
        <ele>1228.276489</ele>
        <time>2011-08-11T15:20:02Z</time>
      </trkpt>
      <trkpt lat="44.69197" lon="6.63988">
        <ele>1231.155396</ele>
        <time>2011-08-11T15:20:06Z</time>
      </trkpt>
      <trkpt lat="44.69208" lon="6.64002">
        <ele>1234.386719</ele>
        <time>2011-08-11T15:20:11Z</time>
      </trkpt>
      <trkpt lat="44.69223" lon="6.64002">
        <ele>1234.534912</ele>
        <time>2011-08-11T15:20:15Z</time>
      </trkpt>
      <trkpt lat="44.69232" lon="6.63982">
        <ele>1234.150635</ele>
        <time>2011-08-11T15:20:19Z</time>
      </trkpt>
      <trkpt lat="44.69242" lon="6.63952">
        <ele>1233.516602</ele>
        <time>2011-08-11T15:20:25Z</time>
      </trkpt>
      <trkpt lat="44.69243" lon="6.63928">
        <ele>1231.851196</ele>
        <time>2011-08-11T15:20:29Z</time>
      </trkpt>
      <trkpt lat="44.69242" lon="6.63903">
        <ele>1228.548218</ele>
        <time>2011-08-11T15:20:33Z</time>
      </trkpt>
      <trkpt lat="44.69247" lon="6.6388">
        <ele>1228.207764</ele>
        <time>2011-08-11T15:20:37Z</time>
      </trkpt>
      <trkpt lat="44.69255" lon="6.63857">
        <ele>1227.68689</ele>
        <time>2011-08-11T15:20:41Z</time>
      </trkpt>
      <trkpt lat="44.69267" lon="6.63835">
        <ele>1228.68396</ele>
        <time>2011-08-11T15:20:45Z</time>
      </trkpt>
      <trkpt lat="44.69282" lon="6.6382">
        <ele>1231.244751</ele>
        <time>2011-08-11T15:20:49Z</time>
      </trkpt>
      <trkpt lat="44.69293" lon="6.63803">
        <ele>1230.164551</ele>
        <time>2011-08-11T15:20:53Z</time>
      </trkpt>
      <trkpt lat="44.69308" lon="6.63787">
        <ele>1229.130005</ele>
        <time>2011-08-11T15:20:57Z</time>
      </trkpt>
      <trkpt lat="44.69328" lon="6.63787">
        <ele>1232.745361</ele>
        <time>2011-08-11T15:21:03Z</time>
      </trkpt>
      <trkpt lat="44.69353" lon="6.63782">
        <ele>1233.41687</ele>
        <time>2011-08-11T15:21:11Z</time>
      </trkpt>
      <trkpt lat="44.69368" lon="6.63788">
        <ele>1236.873169</ele>
        <time>2011-08-11T15:21:15Z</time>
      </trkpt>
      <trkpt lat="44.69383" lon="6.63783">
        <ele>1240.214478</ele>
        <time>2011-08-11T15:21:19Z</time>
      </trkpt>
      <trkpt lat="44.69392" lon="6.63765">
        <ele>1238.913452</ele>
        <time>2011-08-11T15:21:24Z</time>
      </trkpt>
      <trkpt lat="44.69397" lon="6.63738">
        <ele>1237.54126</ele>
        <time>2011-08-11T15:21:28Z</time>
      </trkpt>
      <trkpt lat="44.694" lon="6.63712">
        <ele>1235.833252</ele>
        <time>2011-08-11T15:21:32Z</time>
      </trkpt>
      <trkpt lat="44.69402" lon="6.63685">
        <ele>1234.853027</ele>
        <time>2011-08-11T15:21:36Z</time>
      </trkpt>
      <trkpt lat="44.69398" lon="6.63655">
        <ele>1231.283691</ele>
        <time>2011-08-11T15:21:40Z</time>
      </trkpt>
      <trkpt lat="44.69408" lon="6.63623">
        <ele>1234.285156</ele>
        <time>2011-08-11T15:21:44Z</time>
      </trkpt>
      <trkpt lat="44.69417" lon="6.63592">
        <ele>1236.37439</ele>
        <time>2011-08-11T15:21:48Z</time>
      </trkpt>
      <trkpt lat="44.69413" lon="6.6356">
        <ele>1234.768188</ele>
        <time>2011-08-11T15:21:52Z</time>
      </trkpt>
      <trkpt lat="44.69407" lon="6.63537">
        <ele>1231.982544</ele>
        <time>2011-08-11T15:21:57Z</time>
      </trkpt>
      <trkpt lat="44.69408" lon="6.63503">
        <ele>1232.713257</ele>
        <time>2011-08-11T15:22:01Z</time>
      </trkpt>
      <trkpt lat="44.694" lon="6.63472">
        <ele>1227.334717</ele>
        <time>2011-08-11T15:22:05Z</time>
      </trkpt>
      <trkpt lat="44.694" lon="6.6344">
        <ele>1224.647339</ele>
        <time>2011-08-11T15:22:09Z</time>
      </trkpt>
      <trkpt lat="44.694" lon="6.63402">
        <ele>1219.851929</ele>
        <time>2011-08-11T15:22:15Z</time>
      </trkpt>
      <trkpt lat="44.69398" lon="6.63382">
        <ele>1217.34082</ele>
        <time>2011-08-11T15:22:19Z</time>
      </trkpt>
      <trkpt lat="44.69402" lon="6.63362">
        <ele>1216.248169</ele>
        <time>2011-08-11T15:22:25Z</time>
      </trkpt>
      <trkpt lat="44.69407" lon="6.63338">
        <ele>1214.678711</ele>
        <time>2011-08-11T15:22:33Z</time>
      </trkpt>
      <trkpt lat="44.69403" lon="6.63317">
        <ele>1211.973511</ele>
        <time>2011-08-11T15:23:15Z</time>
      </trkpt>
      <trkpt lat="44.69392" lon="6.63292">
        <ele>1209.074951</ele>
        <time>2011-08-11T15:23:19Z</time>
      </trkpt>
      <trkpt lat="44.69375" lon="6.6327">
        <ele>1205.47522</ele>
        <time>2011-08-11T15:23:24Z</time>
      </trkpt>
      <trkpt lat="44.69352" lon="6.63252">
        <ele>1201.691406</ele>
        <time>2011-08-11T15:23:28Z</time>
      </trkpt>
      <trkpt lat="44.69322" lon="6.63227">
        <ele>1193.806396</ele>
        <time>2011-08-11T15:23:34Z</time>
      </trkpt>
      <trkpt lat="44.6933" lon="6.63192">
        <ele>1193.901978</ele>
        <time>2011-08-11T15:23:38Z</time>
      </trkpt>
      <trkpt lat="44.6934" lon="6.63175">
        <ele>1192.912964</ele>
        <time>2011-08-11T15:23:40Z</time>
      </trkpt>
      <trkpt lat="44.69362" lon="6.63148">
        <ele>1189.899658</ele>
        <time>2011-08-11T15:23:44Z</time>
      </trkpt>
      <trkpt lat="44.69373" lon="6.63138">
        <ele>1188.118042</ele>
        <time>2011-08-11T15:23:46Z</time>
      </trkpt>
      <trkpt lat="44.69397" lon="6.63122">
        <ele>1183.338379</ele>
        <time>2011-08-11T15:23:50Z</time>
      </trkpt>
      <trkpt lat="44.69413" lon="6.63112">
        <ele>1177.592529</ele>
        <time>2011-08-11T15:23:54Z</time>
      </trkpt>
      <trkpt lat="44.69403" lon="6.63093">
        <ele>1174.133301</ele>
        <time>2011-08-11T15:23:58Z</time>
      </trkpt>
      <trkpt lat="44.69378" lon="6.63093">
        <ele>1175.590698</ele>
        <time>2011-08-11T15:24:03Z</time>
      </trkpt>
      <trkpt lat="44.69313" lon="6.6309">
        <ele>1169.010498</ele>
        <time>2011-08-11T15:24:11Z</time>
      </trkpt>
      <trkpt lat="44.69228" lon="6.63085">
        <ele>1155.555664</ele>
        <time>2011-08-11T15:24:21Z</time>
      </trkpt>
      <trkpt lat="44.69207" lon="6.6308">
        <ele>1151.078369</ele>
        <time>2011-08-11T15:24:23Z</time>
      </trkpt>
      <trkpt lat="44.6919" lon="6.63065">
        <ele>1146.603882</ele>
        <time>2011-08-11T15:24:27Z</time>
      </trkpt>
      <trkpt lat="44.69198" lon="6.63035">
        <ele>1143.950806</ele>
        <time>2011-08-11T15:24:31Z</time>
      </trkpt>
      <trkpt lat="44.69207" lon="6.6302">
        <ele>1142.813843</ele>
        <time>2011-08-11T15:24:33Z</time>
      </trkpt>
      <trkpt lat="44.69215" lon="6.63005">
        <ele>1141.421143</ele>
        <time>2011-08-11T15:24:35Z</time>
      </trkpt>
      <trkpt lat="44.69237" lon="6.62982">
        <ele>1139.34729</ele>
        <time>2011-08-11T15:24:39Z</time>
      </trkpt>
      <trkpt lat="44.6925" lon="6.62968">
        <ele>1138.026367</ele>
        <time>2011-08-11T15:24:44Z</time>
      </trkpt>
      <trkpt lat="44.69262" lon="6.62953">
        <ele>1136.122925</ele>
        <time>2011-08-11T15:24:54Z</time>
      </trkpt>
      <trkpt lat="44.69278" lon="6.62935">
        <ele>1133.45752</ele>
        <time>2011-08-11T15:25:04Z</time>
      </trkpt>
      <trkpt lat="44.69297" lon="6.62918">
        <ele>1130.271729</ele>
        <time>2011-08-11T15:25:10Z</time>
      </trkpt>
      <trkpt lat="44.69315" lon="6.6291">
        <ele>1128.857544</ele>
        <time>2011-08-11T15:25:14Z</time>
      </trkpt>
      <trkpt lat="44.69337" lon="6.62897">
        <ele>1125.759521</ele>
        <time>2011-08-11T15:25:18Z</time>
      </trkpt>
      <trkpt lat="44.69362" lon="6.62878">
        <ele>1120.037476</ele>
        <time>2011-08-11T15:25:22Z</time>
      </trkpt>
      <trkpt lat="44.69377" lon="6.62885">
        <ele>1119.335815</ele>
        <time>2011-08-11T15:25:30Z</time>
      </trkpt>
      <trkpt lat="44.6939" lon="6.629">
        <ele>1121.457642</ele>
        <time>2011-08-11T15:25:37Z</time>
      </trkpt>
      <trkpt lat="44.69407" lon="6.62913">
        <ele>1122.87207</ele>
        <time>2011-08-11T15:25:43Z</time>
      </trkpt>
      <trkpt lat="44.69422" lon="6.62907">
        <ele>1117.628418</ele>
        <time>2011-08-11T15:25:47Z</time>
      </trkpt>
      <trkpt lat="44.69438" lon="6.62913">
        <ele>1116.361938</ele>
        <time>2011-08-11T15:25:51Z</time>
      </trkpt>
      <trkpt lat="44.69458" lon="6.62932">
        <ele>1117.32605</ele>
        <time>2011-08-11T15:25:55Z</time>
      </trkpt>
      <trkpt lat="44.6948" lon="6.62942">
        <ele>1114.786011</ele>
        <time>2011-08-11T15:25:59Z</time>
      </trkpt>
      <trkpt lat="44.695" lon="6.62945">
        <ele>1111.434082</ele>
        <time>2011-08-11T15:26:03Z</time>
      </trkpt>
      <trkpt lat="44.69523" lon="6.62952">
        <ele>1109.039551</ele>
        <time>2011-08-11T15:26:07Z</time>
      </trkpt>
      <trkpt lat="44.69543" lon="6.6296">
        <ele>1108.418335</ele>
        <time>2011-08-11T15:26:11Z</time>
      </trkpt>
      <trkpt lat="44.69562" lon="6.6296">
        <ele>1107.696533</ele>
        <time>2011-08-11T15:26:16Z</time>
      </trkpt>
      <trkpt lat="44.69577" lon="6.62965">
        <ele>1108.223267</ele>
        <time>2011-08-11T15:26:20Z</time>
      </trkpt>
      <trkpt lat="44.69592" lon="6.62968">
        <ele>1108.229492</ele>
        <time>2011-08-11T15:26:24Z</time>
      </trkpt>
      <trkpt lat="44.69607" lon="6.6297">
        <ele>1107.669556</ele>
        <time>2011-08-11T15:26:28Z</time>
      </trkpt>
      <trkpt lat="44.69625" lon="6.62978">
        <ele>1108.578003</ele>
        <time>2011-08-11T15:26:34Z</time>
      </trkpt>
      <trkpt lat="44.6965" lon="6.62985">
        <ele>1110.239502</ele>
        <time>2011-08-11T15:26:41Z</time>
      </trkpt>
      <trkpt lat="44.69663" lon="6.62982">
        <ele>1109.673462</ele>
        <time>2011-08-11T15:26:49Z</time>
      </trkpt>
      <trkpt lat="44.6965" lon="6.62987">
        <ele>1110.587891</ele>
        <time>2011-08-11T15:27:37Z</time>
      </trkpt>
      <trkpt lat="44.69633" lon="6.62982">
        <ele>1109.444092</ele>
        <time>2011-08-11T15:27:45Z</time>
      </trkpt>
      <trkpt lat="44.69623" lon="6.62968">
        <ele>1106.145142</ele>
        <time>2011-08-11T15:27:49Z</time>
      </trkpt>
      <trkpt lat="44.69613" lon="6.62955">
        <ele>1104.242554</ele>
        <time>2011-08-11T15:27:54Z</time>
      </trkpt>
      <trkpt lat="44.69595" lon="6.62943">
        <ele>1102.709351</ele>
        <time>2011-08-11T15:28:00Z</time>
      </trkpt>
      <trkpt lat="44.69575" lon="6.62943">
        <ele>1103.515259</ele>
        <time>2011-08-11T15:28:06Z</time>
      </trkpt>
      <trkpt lat="44.69555" lon="6.62937">
        <ele>1103.024048</ele>
        <time>2011-08-11T15:28:12Z</time>
      </trkpt>
      <trkpt lat="44.69547" lon="6.6292">
        <ele>1099.95105</ele>
        <time>2011-08-11T15:28:18Z</time>
      </trkpt>
      <trkpt lat="44.69548" lon="6.62895">
        <ele>1094.893066</ele>
        <time>2011-08-11T15:28:47Z</time>
      </trkpt>
      <trkpt lat="44.69552" lon="6.62868">
        <ele>1090.580811</ele>
        <time>2011-08-11T15:28:51Z</time>
      </trkpt>
      <trkpt lat="44.69555" lon="6.62838">
        <ele>1085.62439</ele>
        <time>2011-08-11T15:28:55Z</time>
      </trkpt>
      <trkpt lat="44.69543" lon="6.62808">
        <ele>1082.933105</ele>
        <time>2011-08-11T15:28:59Z</time>
      </trkpt>
      <trkpt lat="44.69525" lon="6.62785">
        <ele>1079.553711</ele>
        <time>2011-08-11T15:29:03Z</time>
      </trkpt>
      <trkpt lat="44.69503" lon="6.62757">
        <ele>1073.821167</ele>
        <time>2011-08-11T15:29:07Z</time>
      </trkpt>
      <trkpt lat="44.69493" lon="6.62732">
        <ele>1068.651245</ele>
        <time>2011-08-11T15:29:11Z</time>
      </trkpt>
      <trkpt lat="44.6951" lon="6.62707">
        <ele>1064.643677</ele>
        <time>2011-08-11T15:29:15Z</time>
      </trkpt>
      <trkpt lat="44.69525" lon="6.62695">
        <ele>1064.94812</ele>
        <time>2011-08-11T15:29:20Z</time>
      </trkpt>
      <trkpt lat="44.69543" lon="6.627">
        <ele>1066.675293</ele>
        <time>2011-08-11T15:29:26Z</time>
      </trkpt>
      <trkpt lat="44.69557" lon="6.62707">
        <ele>1068.499268</ele>
        <time>2011-08-11T15:29:32Z</time>
      </trkpt>
      <trkpt lat="44.6957" lon="6.6271">
        <ele>1070.324341</ele>
        <time>2011-08-11T15:29:40Z</time>
      </trkpt>
      <trkpt lat="44.69588" lon="6.62707">
        <ele>1072.836304</ele>
        <time>2011-08-11T15:29:52Z</time>
      </trkpt>
      <trkpt lat="44.69577" lon="6.62685">
        <ele>1071.233887</ele>
        <time>2011-08-11T15:30:19Z</time>
      </trkpt>
      <trkpt lat="44.69572" lon="6.6266">
        <ele>1070.361816</ele>
        <time>2011-08-11T15:30:25Z</time>
      </trkpt>
      <trkpt lat="44.69565" lon="6.6264">
        <ele>1069.997559</ele>
        <time>2011-08-11T15:30:29Z</time>
      </trkpt>
      <trkpt lat="44.69557" lon="6.62615">
        <ele>1070.82666</ele>
        <time>2011-08-11T15:30:33Z</time>
      </trkpt>
      <trkpt lat="44.69545" lon="6.6259">
        <ele>1070.325684</ele>
        <time>2011-08-11T15:30:37Z</time>
      </trkpt>
      <trkpt lat="44.69535" lon="6.6257">
        <ele>1070.267822</ele>
        <time>2011-08-11T15:30:41Z</time>
      </trkpt>
      <trkpt lat="44.69528" lon="6.62553">
        <ele>1071.014038</ele>
        <time>2011-08-11T15:30:45Z</time>
      </trkpt>
      <trkpt lat="44.69522" lon="6.62535">
        <ele>1072.160645</ele>
        <time>2011-08-11T15:30:51Z</time>
      </trkpt>
      <trkpt lat="44.69513" lon="6.62512">
        <ele>1074.058472</ele>
        <time>2011-08-11T15:31:02Z</time>
      </trkpt>
      <trkpt lat="44.69502" lon="6.625">
        <ele>1073.074341</ele>
        <time>2011-08-11T15:31:10Z</time>
      </trkpt>
      <trkpt lat="44.6949" lon="6.62485">
        <ele>1071.616211</ele>
        <time>2011-08-11T15:31:18Z</time>
      </trkpt>
      <trkpt lat="44.69478" lon="6.62467">
        <ele>1070.430908</ele>
        <time>2011-08-11T15:31:26Z</time>
      </trkpt>
      <trkpt lat="44.69477" lon="6.62447">
        <ele>1071.71582</ele>
        <time>2011-08-11T15:31:35Z</time>
      </trkpt>
      <trkpt lat="44.69488" lon="6.6243">
        <ele>1074.359497</ele>
        <time>2011-08-11T15:31:43Z</time>
      </trkpt>
      <trkpt lat="44.69502" lon="6.62422">
        <ele>1078.168579</ele>
        <time>2011-08-11T15:31:51Z</time>
      </trkpt>
      <trkpt lat="44.69517" lon="6.62415">
        <ele>1081.223022</ele>
        <time>2011-08-11T15:31:59Z</time>
      </trkpt>
      <trkpt lat="44.6955" lon="6.62398">
        <ele>1082.578247</ele>
        <time>2011-08-11T15:32:16Z</time>
      </trkpt>
      <trkpt lat="44.69565" lon="6.62393">
        <ele>1082.71521</ele>
        <time>2011-08-11T15:32:24Z</time>
      </trkpt>
      <trkpt lat="44.6958" lon="6.62392">
        <ele>1082.357178</ele>
        <time>2011-08-11T15:32:32Z</time>
      </trkpt>
      <trkpt lat="44.69593" lon="6.62402">
        <ele>1084.215576</ele>
        <time>2011-08-11T15:32:42Z</time>
      </trkpt>
      <trkpt lat="44.6961" lon="6.62407">
        <ele>1084.987061</ele>
        <time>2011-08-11T15:32:48Z</time>
      </trkpt>
      <trkpt lat="44.69632" lon="6.6241">
        <ele>1085.563232</ele>
        <time>2011-08-11T15:32:55Z</time>
      </trkpt>
      <trkpt lat="44.69647" lon="6.62417">
        <ele>1086.86853</ele>
        <time>2011-08-11T15:32:59Z</time>
      </trkpt>
      <trkpt lat="44.69665" lon="6.62422">
        <ele>1087.917725</ele>
        <time>2011-08-11T15:33:03Z</time>
      </trkpt>
      <trkpt lat="44.69685" lon="6.62425">
        <ele>1088.730713</ele>
        <time>2011-08-11T15:33:07Z</time>
      </trkpt>
      <trkpt lat="44.69703" lon="6.62427">
        <ele>1089.197998</ele>
        <time>2011-08-11T15:33:11Z</time>
      </trkpt>
      <trkpt lat="44.69717" lon="6.62435">
        <ele>1091.238525</ele>
        <time>2011-08-11T15:33:15Z</time>
      </trkpt>
      <trkpt lat="44.6973" lon="6.62442">
        <ele>1092.881592</ele>
        <time>2011-08-11T15:33:19Z</time>
      </trkpt>
      <trkpt lat="44.69747" lon="6.62442">
        <ele>1093.311646</ele>
        <time>2011-08-11T15:33:25Z</time>
      </trkpt>
      <trkpt lat="44.6976" lon="6.62432">
        <ele>1091.500977</ele>
        <time>2011-08-11T15:33:29Z</time>
      </trkpt>
      <trkpt lat="44.69773" lon="6.62427">
        <ele>1090.925537</ele>
        <time>2011-08-11T15:33:33Z</time>
      </trkpt>
      <trkpt lat="44.69792" lon="6.62428">
        <ele>1092.687866</ele>
        <time>2011-08-11T15:33:41Z</time>
      </trkpt>
      <trkpt lat="44.69807" lon="6.62427">
        <ele>1093.778931</ele>
        <time>2011-08-11T15:33:50Z</time>
      </trkpt>
      <trkpt lat="44.69823" lon="6.6243">
        <ele>1096.206299</ele>
        <time>2011-08-11T15:34:00Z</time>
      </trkpt>
      <trkpt lat="44.69837" lon="6.6244">
        <ele>1101.410522</ele>
        <time>2011-08-11T15:34:08Z</time>
      </trkpt>
      <trkpt lat="44.6985" lon="6.62452">
        <ele>1106.769165</ele>
        <time>2011-08-11T15:34:18Z</time>
      </trkpt>
      <trkpt lat="44.69863" lon="6.62462">
        <ele>1111.153809</ele>
        <time>2011-08-11T15:34:31Z</time>
      </trkpt>
      <trkpt lat="44.69877" lon="6.62452">
        <ele>1112.840698</ele>
        <time>2011-08-11T15:34:41Z</time>
      </trkpt>
      <trkpt lat="44.69882" lon="6.62433">
        <ele>1112.272705</ele>
        <time>2011-08-11T15:34:51Z</time>
      </trkpt>
      <trkpt lat="44.69877" lon="6.62412">
        <ele>1108.689331</ele>
        <time>2011-08-11T15:35:01Z</time>
      </trkpt>
      <trkpt lat="44.69882" lon="6.62392">
        <ele>1110.110474</ele>
        <time>2011-08-11T15:35:10Z</time>
      </trkpt>
      <trkpt lat="44.69888" lon="6.62372">
        <ele>1112.337769</ele>
        <time>2011-08-11T15:35:18Z</time>
      </trkpt>
      <trkpt lat="44.69892" lon="6.6235">
        <ele>1112.572632</ele>
        <time>2011-08-11T15:35:28Z</time>
      </trkpt>
      <trkpt lat="44.69895" lon="6.62325">
        <ele>1110.741333</ele>
        <time>2011-08-11T15:35:38Z</time>
      </trkpt>
      <trkpt lat="44.69908" lon="6.62312">
        <ele>1112.673462</ele>
        <time>2011-08-11T15:35:46Z</time>
      </trkpt>
      <trkpt lat="44.69922" lon="6.62315">
        <ele>1116.461182</ele>
        <time>2011-08-11T15:35:55Z</time>
      </trkpt>
      <trkpt lat="44.69937" lon="6.6232">
        <ele>1115.87085</ele>
        <time>2011-08-11T15:36:03Z</time>
      </trkpt>
      <trkpt lat="44.69948" lon="6.6233">
        <ele>1116.820068</ele>
        <time>2011-08-11T15:36:11Z</time>
      </trkpt>
      <trkpt lat="44.69958" lon="6.62345">
        <ele>1119.285278</ele>
        <time>2011-08-11T15:36:19Z</time>
      </trkpt>
      <trkpt lat="44.69972" lon="6.62363">
        <ele>1122.485474</ele>
        <time>2011-08-11T15:36:31Z</time>
      </trkpt>
      <trkpt lat="44.69983" lon="6.62373">
        <ele>1123.535522</ele>
        <time>2011-08-11T15:36:39Z</time>
      </trkpt>
      <trkpt lat="44.69995" lon="6.62385">
        <ele>1125.852173</ele>
        <time>2011-08-11T15:36:48Z</time>
      </trkpt>
    </trkseg>
  </trk>
</gpx>